<?xml version="1.0" encoding="UTF-8" standalone="no" ?><gpx xmlns="http://www.topografix.com/GPX/1/1" xmlns:gpxx="http://www.garmin.com/xmlschemas/GpxExtensions/v3" xmlns:gpxtrkx="http://www.garmin.com/xmlschemas/TrackStatsExtension/v1" xmlns:wptx1="http://www.garmin.com/xmlschemas/WaypointExtension/v1" xmlns:gpxtpx="http://www.garmin.com/xmlschemas/TrackPointExtension/v1" creator="Alpha 300" version="1.1" xmlns:xsi="http://www.w3.org/2001/XMLSchema-instance" xsi:schemaLocation="http://www.topografix.com/GPX/1/1 http://www.topografix.com/GPX/1/1/gpx.xsd http://www.garmin.com/xmlschemas/GpxExtensions/v3 http://www8.garmin.com/xmlschemas/GpxExtensionsv3.xsd http://www.garmin.com/xmlschemas/TrackStatsExtension/v1 http://www8.garmin.com/xmlschemas/TrackStatsExtension.xsd http://www.garmin.com/xmlschemas/WaypointExtension/v1 http://www8.garmin.com/xmlschemas/WaypointExtensionv1.xsd http://www.garmin.com/xmlschemas/TrackPointExtension/v1 http://www.garmin.com/xmlschemas/TrackPointExtensionv1.xsd"><metadata><link href="http://www.garmin.com"><text>Garmin International</text></link><time>2026-04-25T14:50:36Z</time></metadata><trk><name>Фрэнк-2026-04-25 17:50:35</name><extensions><gpxx:TrackExtension><gpxx:DisplayColor>Red</gpxx:DisplayColor></gpxx:TrackExtension></extensions><trkseg><trkpt lat="59.0632295609" lon="30.0313854218"><time>2026-04-25T08:23:54Z</time></trkpt><trkpt lat="59.0632295609" lon="30.0313425064"><time>2026-04-25T08:24:24Z</time></trkpt><trkpt lat="59.0632510185" lon="30.0312137604"><time>2026-04-25T08:24:39Z</time></trkpt><trkpt lat="59.0632724762" lon="30.0311493874"><time>2026-04-25T08:24:52Z</time></trkpt><trkpt lat="59.0632939339" lon="30.0310635567"><time>2026-04-25T08:25:22Z</time></trkpt><trkpt lat="59.0633153915" lon="30.0310206413"><time>2026-04-25T08:25:42Z</time></trkpt><trkpt lat="59.0633583069" lon="30.0310206413"><time>2026-04-25T08:26:12Z</time></trkpt><trkpt lat="59.0633797646" lon="30.0310206413"><time>2026-04-25T08:26:42Z</time></trkpt><trkpt lat="59.0633583069" lon="30.0310420990"><time>2026-04-25T08:27:12Z</time></trkpt><trkpt lat="59.0633583069" lon="30.0310635567"><time>2026-04-25T08:27:42Z</time></trkpt><trkpt lat="59.0633583069" lon="30.0310635567"><time>2026-04-25T08:28:12Z</time></trkpt><trkpt lat="59.0633583069" lon="30.0310635567"><time>2026-04-25T08:28:42Z</time></trkpt><trkpt lat="59.0633583069" lon="30.0310420990"><time>2026-04-25T08:29:12Z</time></trkpt><trkpt lat="59.0633583069" lon="30.0310635567"><time>2026-04-25T08:29:42Z</time></trkpt><trkpt lat="59.0633583069" lon="30.0310635567"><time>2026-04-25T08:30:12Z</time></trkpt><trkpt lat="59.0633583069" lon="30.0310635567"><time>2026-04-25T08:30:42Z</time></trkpt><trkpt lat="59.0633583069" lon="30.0310635567"><time>2026-04-25T08:31:12Z</time></trkpt><trkpt lat="59.0633583069" lon="30.0310635567"><time>2026-04-25T08:31:42Z</time></trkpt><trkpt lat="59.0633583069" lon="30.0310635567"><time>2026-04-25T08:32:12Z</time></trkpt><trkpt lat="59.0633368492" lon="30.0310635567"><time>2026-04-25T08:32:42Z</time></trkpt><trkpt lat="59.0633368492" lon="30.0310635567"><time>2026-04-25T08:33:12Z</time></trkpt><trkpt lat="59.0633368492" lon="30.0310635567"><time>2026-04-25T08:33:42Z</time></trkpt><trkpt lat="59.0633368492" lon="30.0310635567"><time>2026-04-25T08:34:12Z</time></trkpt><trkpt lat="59.0633368492" lon="30.0310635567"><time>2026-04-25T08:34:42Z</time></trkpt><trkpt lat="59.0633368492" lon="30.0310635567"><time>2026-04-25T08:35:12Z</time></trkpt><trkpt lat="59.0633368492" lon="30.0310635567"><time>2026-04-25T08:35:42Z</time></trkpt><trkpt lat="59.0633368492" lon="30.0310635567"><time>2026-04-25T08:36:12Z</time></trkpt><trkpt lat="59.0633368492" lon="30.0310635567"><time>2026-04-25T08:36:42Z</time></trkpt><trkpt lat="59.0633368492" lon="30.0310635567"><time>2026-04-25T08:37:12Z</time></trkpt><trkpt lat="59.0633368492" lon="30.0310635567"><time>2026-04-25T08:37:42Z</time></trkpt><trkpt lat="59.0633368492" lon="30.0310635567"><time>2026-04-25T08:38:12Z</time></trkpt><trkpt lat="59.0633368492" lon="30.0310420990"><time>2026-04-25T08:38:42Z</time></trkpt><trkpt lat="59.0633368492" lon="30.0310420990"><time>2026-04-25T08:39:12Z</time></trkpt><trkpt lat="59.0633368492" lon="30.0310420990"><time>2026-04-25T08:39:42Z</time></trkpt><trkpt lat="59.0633368492" lon="30.0310420990"><time>2026-04-25T08:40:12Z</time></trkpt><trkpt lat="59.0633153915" lon="30.0310206413"><time>2026-04-25T08:40:32Z</time></trkpt><trkpt lat="59.0632939339" lon="30.0310206413"><time>2026-04-25T08:41:02Z</time></trkpt><trkpt lat="59.0632939339" lon="30.0311064720"><time>2026-04-25T08:41:32Z</time></trkpt><trkpt lat="59.0632724762" lon="30.0310635567"><time>2026-04-25T08:42:02Z</time></trkpt><trkpt lat="59.0632939339" lon="30.0310850143"><time>2026-04-25T08:42:32Z</time></trkpt><trkpt lat="59.0632939339" lon="30.0310635567"><time>2026-04-25T08:43:02Z</time></trkpt><trkpt lat="59.0632939339" lon="30.0310850143"><time>2026-04-25T08:43:32Z</time></trkpt><trkpt lat="59.0632939339" lon="30.0310850143"><time>2026-04-25T08:44:02Z</time></trkpt><trkpt lat="59.0632939339" lon="30.0310850143"><time>2026-04-25T08:44:32Z</time></trkpt><trkpt lat="59.0632939339" lon="30.0310850143"><time>2026-04-25T08:45:02Z</time></trkpt><trkpt lat="59.0632939339" lon="30.0310850143"><time>2026-04-25T08:45:32Z</time></trkpt><trkpt lat="59.0632939339" lon="30.0310850143"><time>2026-04-25T08:46:02Z</time></trkpt><trkpt lat="59.0632939339" lon="30.0310850143"><time>2026-04-25T08:46:32Z</time></trkpt><trkpt lat="59.0632939339" lon="30.0310850143"><time>2026-04-25T08:47:02Z</time></trkpt><trkpt lat="59.0632939339" lon="30.0310635567"><time>2026-04-25T08:47:32Z</time></trkpt><trkpt lat="59.0632939339" lon="30.0310635567"><time>2026-04-25T08:48:02Z</time></trkpt><trkpt lat="59.0632939339" lon="30.0310635567"><time>2026-04-25T08:48:32Z</time></trkpt><trkpt lat="59.0633153915" lon="30.0310635567"><time>2026-04-25T08:48:39Z</time></trkpt><trkpt lat="59.0633797646" lon="30.0310206413"><time>2026-04-25T08:49:09Z</time></trkpt><trkpt lat="59.0633797646" lon="30.0309562683"><time>2026-04-25T08:49:12Z</time></trkpt><trkpt lat="59.0633797646" lon="30.0308918953"><time>2026-04-25T08:49:42Z</time></trkpt><trkpt lat="59.0633583069" lon="30.0308918953"><time>2026-04-25T08:49:52Z</time></trkpt><trkpt lat="59.0633153915" lon="30.0309562683"><time>2026-04-25T08:50:22Z</time></trkpt><trkpt lat="59.0634870529" lon="30.0309133530"><time>2026-04-25T08:50:39Z</time></trkpt><trkpt lat="59.0635943413" lon="30.0308704376"><time>2026-04-25T08:50:59Z</time></trkpt><trkpt lat="59.0636157990" lon="30.0308275223"><time>2026-04-25T08:51:02Z</time></trkpt><trkpt lat="59.0636801720" lon="30.0308060646"><time>2026-04-25T08:51:04Z</time></trkpt><trkpt lat="59.0637230873" lon="30.0308275223"><time>2026-04-25T08:51:07Z</time></trkpt><trkpt lat="59.0636801720" lon="30.0308489799"><time>2026-04-25T08:51:09Z</time></trkpt><trkpt lat="59.0637016296" lon="30.0308275223"><time>2026-04-25T08:51:17Z</time></trkpt><trkpt lat="59.0637660027" lon="30.0307846069"><time>2026-04-25T08:51:22Z</time></trkpt><trkpt lat="59.0638089180" lon="30.0307846069"><time>2026-04-25T08:51:24Z</time></trkpt><trkpt lat="59.0637874603" lon="30.0307846069"><time>2026-04-25T08:51:37Z</time></trkpt><trkpt lat="59.0637874603" lon="30.0307202339"><time>2026-04-25T08:51:39Z</time></trkpt><trkpt lat="59.0638089180" lon="30.0306558609"><time>2026-04-25T08:51:42Z</time></trkpt><trkpt lat="59.0638089180" lon="30.0305914879"><time>2026-04-25T08:51:44Z</time></trkpt><trkpt lat="59.0637660027" lon="30.0306129456"><time>2026-04-25T08:51:52Z</time></trkpt><trkpt lat="59.0638303757" lon="30.0305700302"><time>2026-04-25T08:52:02Z</time></trkpt><trkpt lat="59.0638732910" lon="30.0305271149"><time>2026-04-25T08:52:04Z</time></trkpt><trkpt lat="59.0639162064" lon="30.0304198265"><time>2026-04-25T08:52:07Z</time></trkpt><trkpt lat="59.0639805794" lon="30.0303983688"><time>2026-04-25T08:52:09Z</time></trkpt><trkpt lat="59.0640234947" lon="30.0303983688"><time>2026-04-25T08:52:12Z</time></trkpt><trkpt lat="59.0640449524" lon="30.0303339958"><time>2026-04-25T08:52:14Z</time></trkpt><trkpt lat="59.0641093254" lon="30.0303769112"><time>2026-04-25T08:52:17Z</time></trkpt><trkpt lat="59.0641307831" lon="30.0304627419"><time>2026-04-25T08:52:19Z</time></trkpt><trkpt lat="59.0641093254" lon="30.0305485725"><time>2026-04-25T08:52:22Z</time></trkpt><trkpt lat="59.0640664101" lon="30.0306344032"><time>2026-04-25T08:52:24Z</time></trkpt><trkpt lat="59.0639805794" lon="30.0306987762"><time>2026-04-25T08:52:27Z</time></trkpt><trkpt lat="59.0638947487" lon="30.0307202339"><time>2026-04-25T08:52:29Z</time></trkpt><trkpt lat="59.0638947487" lon="30.0306344032"><time>2026-04-25T08:52:32Z</time></trkpt><trkpt lat="59.0639591217" lon="30.0306129456"><time>2026-04-25T08:52:52Z</time></trkpt><trkpt lat="59.0639805794" lon="30.0306344032"><time>2026-04-25T08:52:54Z</time></trkpt><trkpt lat="59.0640020370" lon="30.0307202339"><time>2026-04-25T08:52:57Z</time></trkpt><trkpt lat="59.0640020370" lon="30.0307631493"><time>2026-04-25T08:52:59Z</time></trkpt><trkpt lat="59.0640664101" lon="30.0307416916"><time>2026-04-25T08:53:17Z</time></trkpt><trkpt lat="59.0641307831" lon="30.0307202339"><time>2026-04-25T08:53:19Z</time></trkpt><trkpt lat="59.0641736984" lon="30.0306558609"><time>2026-04-25T08:53:22Z</time></trkpt><trkpt lat="59.0643239021" lon="30.0306344032"><time>2026-04-25T08:53:39Z</time></trkpt><trkpt lat="59.0643668175" lon="30.0305700302"><time>2026-04-25T08:53:42Z</time></trkpt><trkpt lat="59.0643453598" lon="30.0305485725"><time>2026-04-25T08:53:44Z</time></trkpt><trkpt lat="59.0643882751" lon="30.0305271149"><time>2026-04-25T08:53:54Z</time></trkpt><trkpt lat="59.0644311905" lon="30.0305271149"><time>2026-04-25T08:53:57Z</time></trkpt><trkpt lat="59.0644741058" lon="30.0305056572"><time>2026-04-25T08:54:02Z</time></trkpt><trkpt lat="59.0645384789" lon="30.0304841995"><time>2026-04-25T08:54:07Z</time></trkpt><trkpt lat="59.0645813942" lon="30.0304412842"><time>2026-04-25T08:54:09Z</time></trkpt><trkpt lat="59.0645813942" lon="30.0304412842"><time>2026-04-25T08:54:12Z</time></trkpt><trkpt lat="59.0646457672" lon="30.0304412842"><time>2026-04-25T08:54:14Z</time></trkpt><trkpt lat="59.0646886826" lon="30.0304412842"><time>2026-04-25T08:54:32Z</time></trkpt><trkpt lat="59.0647745132" lon="30.0303983688"><time>2026-04-25T08:54:42Z</time></trkpt><trkpt lat="59.0649247169" lon="30.0303554535"><time>2026-04-25T08:54:47Z</time></trkpt><trkpt lat="59.0649032593" lon="30.0303554535"><time>2026-04-25T08:54:52Z</time></trkpt><trkpt lat="59.0649676323" lon="30.0303339958"><time>2026-04-25T08:54:54Z</time></trkpt><trkpt lat="59.0649247169" lon="30.0303769112"><time>2026-04-25T08:54:57Z</time></trkpt><trkpt lat="59.0648818016" lon="30.0303983688"><time>2026-04-25T08:54:59Z</time></trkpt><trkpt lat="59.0648818016" lon="30.0303769112"><time>2026-04-25T08:55:02Z</time></trkpt><trkpt lat="59.0649032593" lon="30.0303125381"><time>2026-04-25T08:55:04Z</time></trkpt><trkpt lat="59.0649461746" lon="30.0302910805"><time>2026-04-25T08:55:07Z</time></trkpt><trkpt lat="59.0649676323" lon="30.0303769112"><time>2026-04-25T08:55:09Z</time></trkpt><trkpt lat="59.0650105476" lon="30.0303769112"><time>2026-04-25T08:55:17Z</time></trkpt><trkpt lat="59.0650749207" lon="30.0303339958"><time>2026-04-25T08:55:19Z</time></trkpt><trkpt lat="59.0651822090" lon="30.0302696228"><time>2026-04-25T08:55:22Z</time></trkpt><trkpt lat="59.0653967857" lon="30.0302052498"><time>2026-04-25T08:55:34Z</time></trkpt><trkpt lat="59.0655469894" lon="30.0301408768"><time>2026-04-25T08:55:54Z</time></trkpt><trkpt lat="59.0655469894" lon="30.0301408768"><time>2026-04-25T08:56:04Z</time></trkpt><trkpt lat="59.0656113625" lon="30.0300979614"><time>2026-04-25T08:56:07Z</time></trkpt><trkpt lat="59.0656542778" lon="30.0301194191"><time>2026-04-25T08:56:09Z</time></trkpt><trkpt lat="59.0656757355" lon="30.0302696228"><time>2026-04-25T08:56:17Z</time></trkpt><trkpt lat="59.0656971931" lon="30.0302910805"><time>2026-04-25T08:56:19Z</time></trkpt><trkpt lat="59.0657615662" lon="30.0302481651"><time>2026-04-25T08:56:22Z</time></trkpt><trkpt lat="59.0658259392" lon="30.0302481651"><time>2026-04-25T08:56:24Z</time></trkpt><trkpt lat="59.0658688545" lon="30.0302052498"><time>2026-04-25T08:56:27Z</time></trkpt><trkpt lat="59.0659761429" lon="30.0301837921"><time>2026-04-25T08:56:37Z</time></trkpt><trkpt lat="59.0660190582" lon="30.0302052498"><time>2026-04-25T08:56:39Z</time></trkpt><trkpt lat="59.0660834312" lon="30.0301837921"><time>2026-04-25T08:56:42Z</time></trkpt><trkpt lat="59.0661478043" lon="30.0301194191"><time>2026-04-25T08:56:44Z</time></trkpt><trkpt lat="59.0661692619" lon="30.0300335884"><time>2026-04-25T08:56:47Z</time></trkpt><trkpt lat="59.0661692619" lon="30.0299906731"><time>2026-04-25T08:56:49Z</time></trkpt><trkpt lat="59.0661692619" lon="30.0299692154"><time>2026-04-25T08:56:57Z</time></trkpt><trkpt lat="59.0661478043" lon="30.0299048424"><time>2026-04-25T08:56:59Z</time></trkpt><trkpt lat="59.0662121773" lon="30.0297760963"><time>2026-04-25T08:57:02Z</time></trkpt><trkpt lat="59.0662550926" lon="30.0297331810"><time>2026-04-25T08:57:04Z</time></trkpt><trkpt lat="59.0662765503" lon="30.0298190117"><time>2026-04-25T08:57:07Z</time></trkpt><trkpt lat="59.0663194656" lon="30.0298833847"><time>2026-04-25T08:57:09Z</time></trkpt><trkpt lat="59.0663838387" lon="30.0298833847"><time>2026-04-25T08:57:29Z</time></trkpt><trkpt lat="59.0663623810" lon="30.0299263000"><time>2026-04-25T08:57:59Z</time></trkpt><trkpt lat="59.0665769577" lon="30.0297117233"><time>2026-04-25T08:58:19Z</time></trkpt><trkpt lat="59.0665984154" lon="30.0297760963"><time>2026-04-25T08:58:22Z</time></trkpt><trkpt lat="59.0666413307" lon="30.0297760963"><time>2026-04-25T08:58:24Z</time></trkpt><trkpt lat="59.0667057037" lon="30.0297760963"><time>2026-04-25T08:58:27Z</time></trkpt><trkpt lat="59.0667915344" lon="30.0297546387"><time>2026-04-25T08:58:37Z</time></trkpt><trkpt lat="59.0668344498" lon="30.0297331810"><time>2026-04-25T08:58:47Z</time></trkpt><trkpt lat="59.0668773651" lon="30.0297117233"><time>2026-04-25T08:58:49Z</time></trkpt><trkpt lat="59.0669202805" lon="30.0296688080"><time>2026-04-25T08:58:52Z</time></trkpt><trkpt lat="59.0668988228" lon="30.0296688080"><time>2026-04-25T08:58:57Z</time></trkpt><trkpt lat="59.0668773651" lon="30.0296688080"><time>2026-04-25T08:58:59Z</time></trkpt><trkpt lat="59.0668988228" lon="30.0296688080"><time>2026-04-25T08:59:02Z</time></trkpt><trkpt lat="59.0669417381" lon="30.0296688080"><time>2026-04-25T08:59:04Z</time></trkpt><trkpt lat="59.0670061111" lon="30.0296473503"><time>2026-04-25T08:59:07Z</time></trkpt><trkpt lat="59.0670490265" lon="30.0296258926"><time>2026-04-25T08:59:09Z</time></trkpt><trkpt lat="59.0670704842" lon="30.0296258926"><time>2026-04-25T08:59:34Z</time></trkpt><trkpt lat="59.0670919418" lon="30.0295615196"><time>2026-04-25T08:59:37Z</time></trkpt><trkpt lat="59.0671348572" lon="30.0294756889"><time>2026-04-25T08:59:39Z</time></trkpt><trkpt lat="59.0671777725" lon="30.0295400620"><time>2026-04-25T08:59:42Z</time></trkpt><trkpt lat="59.0672206879" lon="30.0295615196"><time>2026-04-25T08:59:44Z</time></trkpt><trkpt lat="59.0673065186" lon="30.0295400620"><time>2026-04-25T08:59:54Z</time></trkpt><trkpt lat="59.0673708916" lon="30.0294971466"><time>2026-04-25T08:59:57Z</time></trkpt><trkpt lat="59.0674352646" lon="30.0294542313"><time>2026-04-25T08:59:59Z</time></trkpt><trkpt lat="59.0676498413" lon="30.0293684006"><time>2026-04-25T09:00:19Z</time></trkpt><trkpt lat="59.0678644180" lon="30.0292611122"><time>2026-04-25T09:00:34Z</time></trkpt><trkpt lat="59.0680360794" lon="30.0292396545"><time>2026-04-25T09:00:54Z</time></trkpt><trkpt lat="59.0681219101" lon="30.0292181969"><time>2026-04-25T09:01:02Z</time></trkpt><trkpt lat="59.0681648254" lon="30.0292181969"><time>2026-04-25T09:01:04Z</time></trkpt><trkpt lat="59.0682077408" lon="30.0292181969"><time>2026-04-25T09:01:07Z</time></trkpt><trkpt lat="59.0682721138" lon="30.0292181969"><time>2026-04-25T09:01:12Z</time></trkpt><trkpt lat="59.0682935715" lon="30.0291967392"><time>2026-04-25T09:01:14Z</time></trkpt><trkpt lat="59.0683579445" lon="30.0291323662"><time>2026-04-25T09:01:17Z</time></trkpt><trkpt lat="59.0684223175" lon="30.0291109085"><time>2026-04-25T09:01:19Z</time></trkpt><trkpt lat="59.0684866905" lon="30.0291109085"><time>2026-04-25T09:01:22Z</time></trkpt><trkpt lat="59.0685081482" lon="30.0290894508"><time>2026-04-25T09:01:27Z</time></trkpt><trkpt lat="59.0685939789" lon="30.0290679932"><time>2026-04-25T09:01:29Z</time></trkpt><trkpt lat="59.0687870979" lon="30.0289392471"><time>2026-04-25T09:01:52Z</time></trkpt><trkpt lat="59.0688085556" lon="30.0289177895"><time>2026-04-25T09:01:54Z</time></trkpt><trkpt lat="59.0688729286" lon="30.0289177895"><time>2026-04-25T09:02:07Z</time></trkpt><trkpt lat="59.0689373016" lon="30.0288748741"><time>2026-04-25T09:02:09Z</time></trkpt><trkpt lat="59.0691518784" lon="30.0288534164"><time>2026-04-25T09:02:24Z</time></trkpt><trkpt lat="59.0693664551" lon="30.0287890434"><time>2026-04-25T09:02:42Z</time></trkpt><trkpt lat="59.0696239471" lon="30.0286817551"><time>2026-04-25T09:02:59Z</time></trkpt><trkpt lat="59.0697097778" lon="30.0286173820"><time>2026-04-25T09:03:02Z</time></trkpt><trkpt lat="59.0697741508" lon="30.0285315514"><time>2026-04-25T09:03:04Z</time></trkpt><trkpt lat="59.0698170662" lon="30.0284457207"><time>2026-04-25T09:03:07Z</time></trkpt><trkpt lat="59.0698814392" lon="30.0285100937"><time>2026-04-25T09:03:09Z</time></trkpt><trkpt lat="59.0698814392" lon="30.0286388397"><time>2026-04-25T09:03:12Z</time></trkpt><trkpt lat="59.0698599815" lon="30.0286602974"><time>2026-04-25T09:03:14Z</time></trkpt><trkpt lat="59.0699028969" lon="30.0285959244"><time>2026-04-25T09:03:19Z</time></trkpt><trkpt lat="59.0699672699" lon="30.0285959244"><time>2026-04-25T09:03:22Z</time></trkpt><trkpt lat="59.0700101852" lon="30.0285744667"><time>2026-04-25T09:03:24Z</time></trkpt><trkpt lat="59.0701389313" lon="30.0285315514"><time>2026-04-25T09:03:37Z</time></trkpt><trkpt lat="59.0702247620" lon="30.0285100937"><time>2026-04-25T09:03:39Z</time></trkpt><trkpt lat="59.0702891350" lon="30.0284457207"><time>2026-04-25T09:03:42Z</time></trkpt><trkpt lat="59.0703105927" lon="30.0282955170"><time>2026-04-25T09:03:44Z</time></trkpt><trkpt lat="59.0702891350" lon="30.0282955170"><time>2026-04-25T09:03:47Z</time></trkpt><trkpt lat="59.0702462196" lon="30.0284457207"><time>2026-04-25T09:03:49Z</time></trkpt><trkpt lat="59.0701389313" lon="30.0285315514"><time>2026-04-25T09:03:52Z</time></trkpt><trkpt lat="59.0700531006" lon="30.0285744667"><time>2026-04-25T09:03:54Z</time></trkpt><trkpt lat="59.0699672699" lon="30.0286602974"><time>2026-04-25T09:03:57Z</time></trkpt><trkpt lat="59.0698599815" lon="30.0287032127"><time>2026-04-25T09:04:02Z</time></trkpt><trkpt lat="59.0698814392" lon="30.0286388397"><time>2026-04-25T09:04:04Z</time></trkpt><trkpt lat="59.0699028969" lon="30.0286602974"><time>2026-04-25T09:04:07Z</time></trkpt><trkpt lat="59.0699458122" lon="30.0287032127"><time>2026-04-25T09:04:12Z</time></trkpt><trkpt lat="59.0699672699" lon="30.0287032127"><time>2026-04-25T09:04:14Z</time></trkpt><trkpt lat="59.0699672699" lon="30.0287032127"><time>2026-04-25T09:04:19Z</time></trkpt><trkpt lat="59.0700316429" lon="30.0287246704"><time>2026-04-25T09:04:22Z</time></trkpt><trkpt lat="59.0700745583" lon="30.0287890434"><time>2026-04-25T09:04:24Z</time></trkpt><trkpt lat="59.0700316429" lon="30.0288748741"><time>2026-04-25T09:04:27Z</time></trkpt><trkpt lat="59.0700316429" lon="30.0289821625"><time>2026-04-25T09:04:29Z</time></trkpt><trkpt lat="59.0701174736" lon="30.0289821625"><time>2026-04-25T09:04:32Z</time></trkpt><trkpt lat="59.0701818466" lon="30.0288534164"><time>2026-04-25T09:04:34Z</time></trkpt><trkpt lat="59.0701818466" lon="30.0287246704"><time>2026-04-25T09:04:37Z</time></trkpt><trkpt lat="59.0701818466" lon="30.0286173820"><time>2026-04-25T09:04:39Z</time></trkpt><trkpt lat="59.0702676773" lon="30.0285959244"><time>2026-04-25T09:04:42Z</time></trkpt><trkpt lat="59.0703535080" lon="30.0285315514"><time>2026-04-25T09:04:44Z</time></trkpt><trkpt lat="59.0704178810" lon="30.0284886360"><time>2026-04-25T09:04:47Z</time></trkpt><trkpt lat="59.0706110001" lon="30.0284028053"><time>2026-04-25T09:04:59Z</time></trkpt><trkpt lat="59.0708255768" lon="30.0283169746"><time>2026-04-25T09:05:22Z</time></trkpt><trkpt lat="59.0708255768" lon="30.0283169746"><time>2026-04-25T09:05:34Z</time></trkpt><trkpt lat="59.0709114075" lon="30.0282740593"><time>2026-04-25T09:05:39Z</time></trkpt><trkpt lat="59.0711259842" lon="30.0281667709"><time>2026-04-25T09:05:44Z</time></trkpt><trkpt lat="59.0711903572" lon="30.0281453133"><time>2026-04-25T09:05:47Z</time></trkpt><trkpt lat="59.0714049339" lon="30.0280809402"><time>2026-04-25T09:05:54Z</time></trkpt><trkpt lat="59.0714693069" lon="30.0280809402"><time>2026-04-25T09:05:57Z</time></trkpt><trkpt lat="59.0715551376" lon="30.0280594826"><time>2026-04-25T09:06:02Z</time></trkpt><trkpt lat="59.0716195107" lon="30.0280809402"><time>2026-04-25T09:06:04Z</time></trkpt><trkpt lat="59.0715980530" lon="30.0280809402"><time>2026-04-25T09:06:12Z</time></trkpt><trkpt lat="59.0715765953" lon="30.0281238556"><time>2026-04-25T09:06:17Z</time></trkpt><trkpt lat="59.0715122223" lon="30.0281667709"><time>2026-04-25T09:06:19Z</time></trkpt><trkpt lat="59.0714693069" lon="30.0281453133"><time>2026-04-25T09:06:22Z</time></trkpt><trkpt lat="59.0715336800" lon="30.0281023979"><time>2026-04-25T09:06:27Z</time></trkpt><trkpt lat="59.0715980530" lon="30.0280809402"><time>2026-04-25T09:06:29Z</time></trkpt><trkpt lat="59.0716624260" lon="30.0280594826"><time>2026-04-25T09:06:32Z</time></trkpt><trkpt lat="59.0717911720" lon="30.0280594826"><time>2026-04-25T09:06:37Z</time></trkpt><trkpt lat="59.0718770027" lon="30.0279951096"><time>2026-04-25T09:06:47Z</time></trkpt><trkpt lat="59.0719199181" lon="30.0279736519"><time>2026-04-25T09:06:49Z</time></trkpt><trkpt lat="59.0720486641" lon="30.0280594826"><time>2026-04-25T09:07:02Z</time></trkpt><trkpt lat="59.0721344948" lon="30.0280380249"><time>2026-04-25T09:07:07Z</time></trkpt><trkpt lat="59.0721988678" lon="30.0280165672"><time>2026-04-25T09:07:09Z</time></trkpt><trkpt lat="59.0722417831" lon="30.0280165672"><time>2026-04-25T09:07:12Z</time></trkpt><trkpt lat="59.0722632408" lon="30.0279307365"><time>2026-04-25T09:07:14Z</time></trkpt><trkpt lat="59.0723276138" lon="30.0279092789"><time>2026-04-25T09:07:22Z</time></trkpt><trkpt lat="59.0723490715" lon="30.0279307365"><time>2026-04-25T09:07:24Z</time></trkpt><trkpt lat="59.0723061562" lon="30.0279092789"><time>2026-04-25T09:07:44Z</time></trkpt><trkpt lat="59.0722846985" lon="30.0279521942"><time>2026-04-25T09:07:47Z</time></trkpt><trkpt lat="59.0723276138" lon="30.0279092789"><time>2026-04-25T09:07:49Z</time></trkpt><trkpt lat="59.0724134445" lon="30.0278878212"><time>2026-04-25T09:07:52Z</time></trkpt><trkpt lat="59.0724563599" lon="30.0278663635"><time>2026-04-25T09:07:54Z</time></trkpt><trkpt lat="59.0724778175" lon="30.0278663635"><time>2026-04-25T09:07:59Z</time></trkpt><trkpt lat="59.0725421906" lon="30.0278234482"><time>2026-04-25T09:08:02Z</time></trkpt><trkpt lat="59.0725636482" lon="30.0278449059"><time>2026-04-25T09:08:04Z</time></trkpt><trkpt lat="59.0725421906" lon="30.0278878212"><time>2026-04-25T09:08:07Z</time></trkpt><trkpt lat="59.0724992752" lon="30.0279521942"><time>2026-04-25T09:08:09Z</time></trkpt><trkpt lat="59.0724992752" lon="30.0278663635"><time>2026-04-25T09:08:12Z</time></trkpt><trkpt lat="59.0725636482" lon="30.0277805328"><time>2026-04-25T09:08:14Z</time></trkpt><trkpt lat="59.0726709366" lon="30.0277376175"><time>2026-04-25T09:08:17Z</time></trkpt><trkpt lat="59.0727353096" lon="30.0276947021"><time>2026-04-25T09:08:19Z</time></trkpt><trkpt lat="59.0727567673" lon="30.0276732445"><time>2026-04-25T09:08:24Z</time></trkpt><trkpt lat="59.0728425980" lon="30.0276303291"><time>2026-04-25T09:08:27Z</time></trkpt><trkpt lat="59.0729069710" lon="30.0275874138"><time>2026-04-25T09:08:29Z</time></trkpt><trkpt lat="59.0730142593" lon="30.0276088715"><time>2026-04-25T09:08:34Z</time></trkpt><trkpt lat="59.0730571747" lon="30.0275874138"><time>2026-04-25T09:08:37Z</time></trkpt><trkpt lat="59.0730142593" lon="30.0275659561"><time>2026-04-25T09:08:39Z</time></trkpt><trkpt lat="59.0730357170" lon="30.0275015831"><time>2026-04-25T09:08:42Z</time></trkpt><trkpt lat="59.0730571747" lon="30.0274157524"><time>2026-04-25T09:09:04Z</time></trkpt><trkpt lat="59.0730571747" lon="30.0273728371"><time>2026-04-25T09:09:14Z</time></trkpt><trkpt lat="59.0730357170" lon="30.0272440910"><time>2026-04-25T09:09:17Z</time></trkpt><trkpt lat="59.0729498863" lon="30.0267720222"><time>2026-04-25T09:09:29Z</time></trkpt><trkpt lat="59.0730142593" lon="30.0268363953"><time>2026-04-25T09:09:44Z</time></trkpt><trkpt lat="59.0730571747" lon="30.0270938873"><time>2026-04-25T09:09:47Z</time></trkpt><trkpt lat="59.0731000900" lon="30.0273299217"><time>2026-04-25T09:09:49Z</time></trkpt><trkpt lat="59.0731215477" lon="30.0273513794"><time>2026-04-25T09:09:52Z</time></trkpt><trkpt lat="59.0730786324" lon="30.0271797180"><time>2026-04-25T09:09:54Z</time></trkpt><trkpt lat="59.0730357170" lon="30.0269222260"><time>2026-04-25T09:09:57Z</time></trkpt><trkpt lat="59.0730142593" lon="30.0268363953"><time>2026-04-25T09:09:59Z</time></trkpt><trkpt lat="59.0730357170" lon="30.0269865990"><time>2026-04-25T09:10:04Z</time></trkpt><trkpt lat="59.0730357170" lon="30.0269651413"><time>2026-04-25T09:10:34Z</time></trkpt><trkpt lat="59.0730786324" lon="30.0270509720"><time>2026-04-25T09:10:42Z</time></trkpt><trkpt lat="59.0730786324" lon="30.0270938873"><time>2026-04-25T09:10:44Z</time></trkpt><trkpt lat="59.0730357170" lon="30.0269865990"><time>2026-04-25T09:10:47Z</time></trkpt><trkpt lat="59.0730142593" lon="30.0269436836"><time>2026-04-25T09:10:49Z</time></trkpt><trkpt lat="59.0729928017" lon="30.0268793106"><time>2026-04-25T09:10:52Z</time></trkpt><trkpt lat="59.0729713440" lon="30.0268149376"><time>2026-04-25T09:10:54Z</time></trkpt><trkpt lat="59.0729713440" lon="30.0267505646"><time>2026-04-25T09:10:57Z</time></trkpt><trkpt lat="59.0729928017" lon="30.0266647339"><time>2026-04-25T09:10:59Z</time></trkpt><trkpt lat="59.0729713440" lon="30.0265789032"><time>2026-04-25T09:11:04Z</time></trkpt><trkpt lat="59.0729713440" lon="30.0264286995"><time>2026-04-25T09:11:07Z</time></trkpt><trkpt lat="59.0729713440" lon="30.0262999535"><time>2026-04-25T09:11:09Z</time></trkpt><trkpt lat="59.0729713440" lon="30.0261712074"><time>2026-04-25T09:11:12Z</time></trkpt><trkpt lat="59.0729928017" lon="30.0262355804"><time>2026-04-25T09:11:17Z</time></trkpt><trkpt lat="59.0729928017" lon="30.0262784958"><time>2026-04-25T09:11:19Z</time></trkpt><trkpt lat="59.0729498863" lon="30.0262141228"><time>2026-04-25T09:11:22Z</time></trkpt><trkpt lat="59.0729284286" lon="30.0260853767"><time>2026-04-25T09:11:24Z</time></trkpt><trkpt lat="59.0728855133" lon="30.0259566307"><time>2026-04-25T09:11:27Z</time></trkpt><trkpt lat="59.0728640556" lon="30.0259780884"><time>2026-04-25T09:11:29Z</time></trkpt><trkpt lat="59.0728855133" lon="30.0259351730"><time>2026-04-25T09:11:32Z</time></trkpt><trkpt lat="59.0728855133" lon="30.0258708000"><time>2026-04-25T09:11:34Z</time></trkpt><trkpt lat="59.0728425980" lon="30.0256776810"><time>2026-04-25T09:11:39Z</time></trkpt><trkpt lat="59.0728211403" lon="30.0255274773"><time>2026-04-25T09:11:42Z</time></trkpt><trkpt lat="59.0727782249" lon="30.0251197815"><time>2026-04-25T09:11:54Z</time></trkpt><trkpt lat="59.0727996826" lon="30.0252270699"><time>2026-04-25T09:12:09Z</time></trkpt><trkpt lat="59.0727782249" lon="30.0251197815"><time>2026-04-25T09:12:24Z</time></trkpt><trkpt lat="59.0727782249" lon="30.0250554085"><time>2026-04-25T09:12:27Z</time></trkpt><trkpt lat="59.0727567673" lon="30.0249481201"><time>2026-04-25T09:12:29Z</time></trkpt><trkpt lat="59.0726709366" lon="30.0245833397"><time>2026-04-25T09:12:37Z</time></trkpt><trkpt lat="59.0726709366" lon="30.0244760513"><time>2026-04-25T09:12:39Z</time></trkpt><trkpt lat="59.0726494789" lon="30.0244545937"><time>2026-04-25T09:12:47Z</time></trkpt><trkpt lat="59.0726494789" lon="30.0243902206"><time>2026-04-25T09:12:49Z</time></trkpt><trkpt lat="59.0726494789" lon="30.0241756439"><time>2026-04-25T09:12:57Z</time></trkpt><trkpt lat="59.0726280212" lon="30.0240254402"><time>2026-04-25T09:12:59Z</time></trkpt><trkpt lat="59.0726065636" lon="30.0239396095"><time>2026-04-25T09:13:02Z</time></trkpt><trkpt lat="59.0726065636" lon="30.0238323212"><time>2026-04-25T09:13:04Z</time></trkpt><trkpt lat="59.0725636482" lon="30.0233173370"><time>2026-04-25T09:13:19Z</time></trkpt><trkpt lat="59.0726065636" lon="30.0234889984"><time>2026-04-25T09:13:37Z</time></trkpt><trkpt lat="59.0726494789" lon="30.0238537788"><time>2026-04-25T09:13:39Z</time></trkpt><trkpt lat="59.0726709366" lon="30.0240683556"><time>2026-04-25T09:13:42Z</time></trkpt><trkpt lat="59.0726709366" lon="30.0240254402"><time>2026-04-25T09:13:44Z</time></trkpt><trkpt lat="59.0726709366" lon="30.0239396095"><time>2026-04-25T09:13:47Z</time></trkpt><trkpt lat="59.0726923943" lon="30.0240468979"><time>2026-04-25T09:13:57Z</time></trkpt><trkpt lat="59.0726494789" lon="30.0240039825"><time>2026-04-25T09:14:12Z</time></trkpt><trkpt lat="59.0726494789" lon="30.0239825249"><time>2026-04-25T09:14:14Z</time></trkpt><trkpt lat="59.0725421906" lon="30.0240468979"><time>2026-04-25T09:14:27Z</time></trkpt><trkpt lat="59.0724992752" lon="30.0240468979"><time>2026-04-25T09:14:29Z</time></trkpt><trkpt lat="59.0724563599" lon="30.0240254402"><time>2026-04-25T09:14:32Z</time></trkpt><trkpt lat="59.0724349022" lon="30.0239825249"><time>2026-04-25T09:14:34Z</time></trkpt><trkpt lat="59.0724134445" lon="30.0240254402"><time>2026-04-25T09:14:37Z</time></trkpt><trkpt lat="59.0723705292" lon="30.0240468979"><time>2026-04-25T09:14:39Z</time></trkpt><trkpt lat="59.0723919868" lon="30.0240254402"><time>2026-04-25T09:14:42Z</time></trkpt><trkpt lat="59.0724778175" lon="30.0240254402"><time>2026-04-25T09:14:44Z</time></trkpt><trkpt lat="59.0725851059" lon="30.0240468979"><time>2026-04-25T09:14:47Z</time></trkpt><trkpt lat="59.0726280212" lon="30.0240683556"><time>2026-04-25T09:14:49Z</time></trkpt><trkpt lat="59.0726494789" lon="30.0240039825"><time>2026-04-25T09:14:52Z</time></trkpt><trkpt lat="59.0726709366" lon="30.0239825249"><time>2026-04-25T09:14:54Z</time></trkpt><trkpt lat="59.0727138519" lon="30.0240039825"><time>2026-04-25T09:14:57Z</time></trkpt><trkpt lat="59.0727782249" lon="30.0239610672"><time>2026-04-25T09:15:04Z</time></trkpt><trkpt lat="59.0728425980" lon="30.0239610672"><time>2026-04-25T09:15:07Z</time></trkpt><trkpt lat="59.0728425980" lon="30.0238752365"><time>2026-04-25T09:15:09Z</time></trkpt><trkpt lat="59.0728640556" lon="30.0237894058"><time>2026-04-25T09:15:12Z</time></trkpt><trkpt lat="59.0728640556" lon="30.0237894058"><time>2026-04-25T09:15:22Z</time></trkpt><trkpt lat="59.0729069710" lon="30.0237679482"><time>2026-04-25T09:15:24Z</time></trkpt><trkpt lat="59.0729713440" lon="30.0237679482"><time>2026-04-25T09:15:27Z</time></trkpt><trkpt lat="59.0730357170" lon="30.0237894058"><time>2026-04-25T09:15:42Z</time></trkpt><trkpt lat="59.0730571747" lon="30.0237894058"><time>2026-04-25T09:15:44Z</time></trkpt><trkpt lat="59.0731000900" lon="30.0237894058"><time>2026-04-25T09:15:47Z</time></trkpt><trkpt lat="59.0731215477" lon="30.0237464905"><time>2026-04-25T09:15:57Z</time></trkpt><trkpt lat="59.0732288361" lon="30.0237894058"><time>2026-04-25T09:16:04Z</time></trkpt><trkpt lat="59.0732502937" lon="30.0238537788"><time>2026-04-25T09:16:07Z</time></trkpt><trkpt lat="59.0732073784" lon="30.0238752365"><time>2026-04-25T09:16:12Z</time></trkpt><trkpt lat="59.0731644630" lon="30.0238108635"><time>2026-04-25T09:16:14Z</time></trkpt><trkpt lat="59.0731644630" lon="30.0237035751"><time>2026-04-25T09:16:17Z</time></trkpt><trkpt lat="59.0731644630" lon="30.0236177444"><time>2026-04-25T09:16:19Z</time></trkpt><trkpt lat="59.0731859207" lon="30.0236392021"><time>2026-04-25T09:16:22Z</time></trkpt><trkpt lat="59.0732288361" lon="30.0236821175"><time>2026-04-25T09:16:24Z</time></trkpt><trkpt lat="59.0732717514" lon="30.0237250328"><time>2026-04-25T09:16:27Z</time></trkpt><trkpt lat="59.0732932091" lon="30.0237679482"><time>2026-04-25T09:16:29Z</time></trkpt><trkpt lat="59.0733146667" lon="30.0237464905"><time>2026-04-25T09:16:32Z</time></trkpt><trkpt lat="59.0733146667" lon="30.0237035751"><time>2026-04-25T09:16:34Z</time></trkpt><trkpt lat="59.0732932091" lon="30.0236606598"><time>2026-04-25T09:16:37Z</time></trkpt><trkpt lat="59.0733146667" lon="30.0236606598"><time>2026-04-25T09:16:39Z</time></trkpt><trkpt lat="59.0733575821" lon="30.0236392021"><time>2026-04-25T09:16:42Z</time></trkpt><trkpt lat="59.0734004974" lon="30.0236177444"><time>2026-04-25T09:16:44Z</time></trkpt><trkpt lat="59.0734004974" lon="30.0235748291"><time>2026-04-25T09:16:47Z</time></trkpt><trkpt lat="59.0734648705" lon="30.0235104561"><time>2026-04-25T09:16:52Z</time></trkpt><trkpt lat="59.0734648705" lon="30.0234031677"><time>2026-04-25T09:16:54Z</time></trkpt><trkpt lat="59.0735292435" lon="30.0233602524"><time>2026-04-25T09:16:57Z</time></trkpt><trkpt lat="59.0735936165" lon="30.0233387947"><time>2026-04-25T09:16:59Z</time></trkpt><trkpt lat="59.0736365318" lon="30.0232958794"><time>2026-04-25T09:17:02Z</time></trkpt><trkpt lat="59.0736365318" lon="30.0232315063"><time>2026-04-25T09:17:17Z</time></trkpt><trkpt lat="59.0736794472" lon="30.0232958794"><time>2026-04-25T09:17:22Z</time></trkpt><trkpt lat="59.0736794472" lon="30.0234031677"><time>2026-04-25T09:17:24Z</time></trkpt><trkpt lat="59.0736365318" lon="30.0235104561"><time>2026-04-25T09:17:27Z</time></trkpt><trkpt lat="59.0736150742" lon="30.0235962868"><time>2026-04-25T09:17:29Z</time></trkpt><trkpt lat="59.0735721588" lon="30.0236392021"><time>2026-04-25T09:17:32Z</time></trkpt><trkpt lat="59.0735507011" lon="30.0235533714"><time>2026-04-25T09:17:34Z</time></trkpt><trkpt lat="59.0735721588" lon="30.0235104561"><time>2026-04-25T09:17:37Z</time></trkpt><trkpt lat="59.0736150742" lon="30.0234675407"><time>2026-04-25T09:17:39Z</time></trkpt><trkpt lat="59.0736579895" lon="30.0234460831"><time>2026-04-25T09:17:42Z</time></trkpt><trkpt lat="59.0737009048" lon="30.0234460831"><time>2026-04-25T09:17:44Z</time></trkpt><trkpt lat="59.0737438202" lon="30.0234675407"><time>2026-04-25T09:17:47Z</time></trkpt><trkpt lat="59.0737867355" lon="30.0234246254"><time>2026-04-25T09:17:49Z</time></trkpt><trkpt lat="59.0737867355" lon="30.0233602524"><time>2026-04-25T09:17:52Z</time></trkpt><trkpt lat="59.0738081932" lon="30.0232958794"><time>2026-04-25T09:17:54Z</time></trkpt><trkpt lat="59.0738725662" lon="30.0232315063"><time>2026-04-25T09:18:07Z</time></trkpt><trkpt lat="59.0739154816" lon="30.0231671333"><time>2026-04-25T09:18:09Z</time></trkpt><trkpt lat="59.0739583969" lon="30.0231242180"><time>2026-04-25T09:18:12Z</time></trkpt><trkpt lat="59.0739798546" lon="30.0231242180"><time>2026-04-25T09:18:14Z</time></trkpt><trkpt lat="59.0739798546" lon="30.0232529640"><time>2026-04-25T09:18:19Z</time></trkpt><trkpt lat="59.0739798546" lon="30.0233387947"><time>2026-04-25T09:18:22Z</time></trkpt><trkpt lat="59.0740013123" lon="30.0233387947"><time>2026-04-25T09:18:27Z</time></trkpt><trkpt lat="59.0740871429" lon="30.0232315063"><time>2026-04-25T09:18:32Z</time></trkpt><trkpt lat="59.0741515160" lon="30.0231242180"><time>2026-04-25T09:18:37Z</time></trkpt><trkpt lat="59.0741729736" lon="30.0231027603"><time>2026-04-25T09:18:57Z</time></trkpt><trkpt lat="59.0742158890" lon="30.0230383873"><time>2026-04-25T09:18:59Z</time></trkpt><trkpt lat="59.0742588043" lon="30.0229740143"><time>2026-04-25T09:19:02Z</time></trkpt><trkpt lat="59.0743231773" lon="30.0229954720"><time>2026-04-25T09:19:04Z</time></trkpt><trkpt lat="59.0742588043" lon="30.0229740143"><time>2026-04-25T09:19:09Z</time></trkpt><trkpt lat="59.0742158890" lon="30.0230598450"><time>2026-04-25T09:19:12Z</time></trkpt><trkpt lat="59.0741944313" lon="30.0231456757"><time>2026-04-25T09:19:14Z</time></trkpt><trkpt lat="59.0742373466" lon="30.0231885910"><time>2026-04-25T09:19:19Z</time></trkpt><trkpt lat="59.0742588043" lon="30.0231456757"><time>2026-04-25T09:19:22Z</time></trkpt><trkpt lat="59.0743017197" lon="30.0231027603"><time>2026-04-25T09:19:24Z</time></trkpt><trkpt lat="59.0743446350" lon="30.0231242180"><time>2026-04-25T09:19:34Z</time></trkpt><trkpt lat="59.0743875504" lon="30.0231671333"><time>2026-04-25T09:19:37Z</time></trkpt><trkpt lat="59.0744304657" lon="30.0231671333"><time>2026-04-25T09:19:39Z</time></trkpt><trkpt lat="59.0744733810" lon="30.0231671333"><time>2026-04-25T09:19:42Z</time></trkpt><trkpt lat="59.0744948387" lon="30.0231456757"><time>2026-04-25T09:19:44Z</time></trkpt><trkpt lat="59.0744519234" lon="30.0230598450"><time>2026-04-25T09:19:57Z</time></trkpt><trkpt lat="59.0744519234" lon="30.0229740143"><time>2026-04-25T09:19:59Z</time></trkpt><trkpt lat="59.0744733810" lon="30.0229096413"><time>2026-04-25T09:20:02Z</time></trkpt><trkpt lat="59.0744733810" lon="30.0227165222"><time>2026-04-25T09:20:17Z</time></trkpt><trkpt lat="59.0744519234" lon="30.0226521492"><time>2026-04-25T09:20:19Z</time></trkpt><trkpt lat="59.0745162964" lon="30.0226521492"><time>2026-04-25T09:20:27Z</time></trkpt><trkpt lat="59.0745377541" lon="30.0225663185"><time>2026-04-25T09:20:29Z</time></trkpt><trkpt lat="59.0745592117" lon="30.0225234032"><time>2026-04-25T09:20:32Z</time></trkpt><trkpt lat="59.0745592117" lon="30.0224590302"><time>2026-04-25T09:20:34Z</time></trkpt><trkpt lat="59.0745592117" lon="30.0224375725"><time>2026-04-25T09:20:37Z</time></trkpt><trkpt lat="59.0746021271" lon="30.0223946571"><time>2026-04-25T09:20:39Z</time></trkpt><trkpt lat="59.0746235847" lon="30.0223946571"><time>2026-04-25T09:20:42Z</time></trkpt><trkpt lat="59.0746450424" lon="30.0223517418"><time>2026-04-25T09:20:44Z</time></trkpt><trkpt lat="59.0746665001" lon="30.0224590302"><time>2026-04-25T09:20:47Z</time></trkpt><trkpt lat="59.0746665001" lon="30.0226306915"><time>2026-04-25T09:20:49Z</time></trkpt><trkpt lat="59.0746879578" lon="30.0227808952"><time>2026-04-25T09:20:52Z</time></trkpt><trkpt lat="59.0747308731" lon="30.0228452682"><time>2026-04-25T09:20:54Z</time></trkpt><trkpt lat="59.0747737885" lon="30.0228881836"><time>2026-04-25T09:20:57Z</time></trkpt><trkpt lat="59.0747952461" lon="30.0229740143"><time>2026-04-25T09:20:59Z</time></trkpt><trkpt lat="59.0748167038" lon="30.0230169296"><time>2026-04-25T09:21:02Z</time></trkpt><trkpt lat="59.0747308731" lon="30.0229740143"><time>2026-04-25T09:21:07Z</time></trkpt><trkpt lat="59.0746879578" lon="30.0229096413"><time>2026-04-25T09:21:09Z</time></trkpt><trkpt lat="59.0746450424" lon="30.0228667259"><time>2026-04-25T09:21:12Z</time></trkpt><trkpt lat="59.0746879578" lon="30.0228667259"><time>2026-04-25T09:21:14Z</time></trkpt><trkpt lat="59.0747094154" lon="30.0228667259"><time>2026-04-25T09:21:44Z</time></trkpt><trkpt lat="59.0747094154" lon="30.0228452682"><time>2026-04-25T09:21:52Z</time></trkpt><trkpt lat="59.0747094154" lon="30.0228238106"><time>2026-04-25T09:22:02Z</time></trkpt><trkpt lat="59.0746665001" lon="30.0228023529"><time>2026-04-25T09:22:04Z</time></trkpt><trkpt lat="59.0746235847" lon="30.0228452682"><time>2026-04-25T09:22:07Z</time></trkpt><trkpt lat="59.0746665001" lon="30.0228667259"><time>2026-04-25T09:22:12Z</time></trkpt><trkpt lat="59.0747094154" lon="30.0228881836"><time>2026-04-25T09:22:14Z</time></trkpt><trkpt lat="59.0747308731" lon="30.0228667259"><time>2026-04-25T09:22:17Z</time></trkpt><trkpt lat="59.0747523308" lon="30.0228881836"><time>2026-04-25T09:22:44Z</time></trkpt><trkpt lat="59.0747737885" lon="30.0228881836"><time>2026-04-25T09:22:47Z</time></trkpt><trkpt lat="59.0747737885" lon="30.0228238106"><time>2026-04-25T09:22:49Z</time></trkpt><trkpt lat="59.0747523308" lon="30.0227594376"><time>2026-04-25T09:22:52Z</time></trkpt><trkpt lat="59.0747523308" lon="30.0227165222"><time>2026-04-25T09:22:54Z</time></trkpt><trkpt lat="59.0747094154" lon="30.0225234032"><time>2026-04-25T09:23:02Z</time></trkpt><trkpt lat="59.0747308731" lon="30.0224161148"><time>2026-04-25T09:23:04Z</time></trkpt><trkpt lat="59.0747523308" lon="30.0223302841"><time>2026-04-25T09:23:07Z</time></trkpt><trkpt lat="59.0747308731" lon="30.0223302841"><time>2026-04-25T09:23:09Z</time></trkpt><trkpt lat="59.0746665001" lon="30.0223088264"><time>2026-04-25T09:23:12Z</time></trkpt><trkpt lat="59.0746235847" lon="30.0222873688"><time>2026-04-25T09:23:14Z</time></trkpt><trkpt lat="59.0746450424" lon="30.0222229958"><time>2026-04-25T09:23:17Z</time></trkpt><trkpt lat="59.0746235847" lon="30.0222444534"><time>2026-04-25T09:23:19Z</time></trkpt><trkpt lat="59.0746879578" lon="30.0223946571"><time>2026-04-25T09:23:22Z</time></trkpt><trkpt lat="59.0746879578" lon="30.0226092339"><time>2026-04-25T09:23:24Z</time></trkpt><trkpt lat="59.0747094154" lon="30.0227594376"><time>2026-04-25T09:23:27Z</time></trkpt><trkpt lat="59.0747523308" lon="30.0228667259"><time>2026-04-25T09:23:29Z</time></trkpt><trkpt lat="59.0747952461" lon="30.0228452682"><time>2026-04-25T09:23:34Z</time></trkpt><trkpt lat="59.0748167038" lon="30.0228667259"><time>2026-04-25T09:23:37Z</time></trkpt><trkpt lat="59.0748596191" lon="30.0228238106"><time>2026-04-25T09:23:39Z</time></trkpt><trkpt lat="59.0748810768" lon="30.0227808952"><time>2026-04-25T09:23:42Z</time></trkpt><trkpt lat="59.0749239922" lon="30.0227379799"><time>2026-04-25T09:23:44Z</time></trkpt><trkpt lat="59.0749669075" lon="30.0226950645"><time>2026-04-25T09:23:47Z</time></trkpt><trkpt lat="59.0750098228" lon="30.0226736069"><time>2026-04-25T09:23:49Z</time></trkpt><trkpt lat="59.0750527382" lon="30.0228023529"><time>2026-04-25T09:23:59Z</time></trkpt><trkpt lat="59.0750956535" lon="30.0228023529"><time>2026-04-25T09:24:02Z</time></trkpt><trkpt lat="59.0750956535" lon="30.0229096413"><time>2026-04-25T09:24:22Z</time></trkpt><trkpt lat="59.0751171112" lon="30.0229525566"><time>2026-04-25T09:24:24Z</time></trkpt><trkpt lat="59.0751385689" lon="30.0230383873"><time>2026-04-25T09:24:29Z</time></trkpt><trkpt lat="59.0751600266" lon="30.0231242180"><time>2026-04-25T09:24:32Z</time></trkpt><trkpt lat="59.0751814842" lon="30.0231671333"><time>2026-04-25T09:24:34Z</time></trkpt><trkpt lat="59.0752243996" lon="30.0231456757"><time>2026-04-25T09:24:37Z</time></trkpt><trkpt lat="59.0752243996" lon="30.0230813026"><time>2026-04-25T09:24:39Z</time></trkpt><trkpt lat="59.0751814842" lon="30.0230813026"><time>2026-04-25T09:24:42Z</time></trkpt><trkpt lat="59.0751385689" lon="30.0230383873"><time>2026-04-25T09:24:44Z</time></trkpt><trkpt lat="59.0751600266" lon="30.0229096413"><time>2026-04-25T09:24:47Z</time></trkpt><trkpt lat="59.0751600266" lon="30.0228452682"><time>2026-04-25T09:24:49Z</time></trkpt><trkpt lat="59.0751814842" lon="30.0227594376"><time>2026-04-25T09:25:12Z</time></trkpt><trkpt lat="59.0752243996" lon="30.0227379799"><time>2026-04-25T09:25:14Z</time></trkpt><trkpt lat="59.0753960609" lon="30.0226092339"><time>2026-04-25T09:25:24Z</time></trkpt><trkpt lat="59.0753531456" lon="30.0225234032"><time>2026-04-25T09:25:27Z</time></trkpt><trkpt lat="59.0753102303" lon="30.0225448608"><time>2026-04-25T09:25:29Z</time></trkpt><trkpt lat="59.0752673149" lon="30.0225663185"><time>2026-04-25T09:25:32Z</time></trkpt><trkpt lat="59.0752243996" lon="30.0225234032"><time>2026-04-25T09:25:34Z</time></trkpt><trkpt lat="59.0752887726" lon="30.0224375725"><time>2026-04-25T09:25:42Z</time></trkpt><trkpt lat="59.0753531456" lon="30.0222444534"><time>2026-04-25T09:25:57Z</time></trkpt><trkpt lat="59.0753746033" lon="30.0221800804"><time>2026-04-25T09:25:59Z</time></trkpt><trkpt lat="59.0754389763" lon="30.0221586227"><time>2026-04-25T09:26:02Z</time></trkpt><trkpt lat="59.0754818916" lon="30.0220942497"><time>2026-04-25T09:26:04Z</time></trkpt><trkpt lat="59.0755033493" lon="30.0219869614"><time>2026-04-25T09:26:07Z</time></trkpt><trkpt lat="59.0755677223" lon="30.0219655037"><time>2026-04-25T09:26:09Z</time></trkpt><trkpt lat="59.0755891800" lon="30.0220727921"><time>2026-04-25T09:26:12Z</time></trkpt><trkpt lat="59.0756320953" lon="30.0220727921"><time>2026-04-25T09:26:14Z</time></trkpt><trkpt lat="59.0756320953" lon="30.0221371651"><time>2026-04-25T09:26:17Z</time></trkpt><trkpt lat="59.0756750107" lon="30.0221800804"><time>2026-04-25T09:26:19Z</time></trkpt><trkpt lat="59.0757179260" lon="30.0221586227"><time>2026-04-25T09:26:22Z</time></trkpt><trkpt lat="59.0757608414" lon="30.0220727921"><time>2026-04-25T09:26:24Z</time></trkpt><trkpt lat="59.0758252144" lon="30.0220513344"><time>2026-04-25T09:26:27Z</time></trkpt><trkpt lat="59.0758252144" lon="30.0221371651"><time>2026-04-25T09:26:29Z</time></trkpt><trkpt lat="59.0757822990" lon="30.0222659111"><time>2026-04-25T09:26:32Z</time></trkpt><trkpt lat="59.0757179260" lon="30.0223088264"><time>2026-04-25T09:26:34Z</time></trkpt><trkpt lat="59.0756750107" lon="30.0223088264"><time>2026-04-25T09:26:37Z</time></trkpt><trkpt lat="59.0756320953" lon="30.0222444534"><time>2026-04-25T09:26:39Z</time></trkpt><trkpt lat="59.0756106377" lon="30.0221371651"><time>2026-04-25T09:26:42Z</time></trkpt><trkpt lat="59.0756320953" lon="30.0220942497"><time>2026-04-25T09:26:44Z</time></trkpt><trkpt lat="59.0756750107" lon="30.0220084190"><time>2026-04-25T09:26:47Z</time></trkpt><trkpt lat="59.0756964684" lon="30.0219225883"><time>2026-04-25T09:26:49Z</time></trkpt><trkpt lat="59.0757179260" lon="30.0219440460"><time>2026-04-25T09:26:52Z</time></trkpt><trkpt lat="59.0757608414" lon="30.0219440460"><time>2026-04-25T09:26:54Z</time></trkpt><trkpt lat="59.0757822990" lon="30.0218796730"><time>2026-04-25T09:26:57Z</time></trkpt><trkpt lat="59.0757822990" lon="30.0218796730"><time>2026-04-25T09:26:59Z</time></trkpt><trkpt lat="59.0758037567" lon="30.0219440460"><time>2026-04-25T09:27:02Z</time></trkpt><trkpt lat="59.0758466721" lon="30.0220084190"><time>2026-04-25T09:27:04Z</time></trkpt><trkpt lat="59.0758681297" lon="30.0219869614"><time>2026-04-25T09:27:07Z</time></trkpt><trkpt lat="59.0759110451" lon="30.0219225883"><time>2026-04-25T09:27:09Z</time></trkpt><trkpt lat="59.0759325027" lon="30.0217938423"><time>2026-04-25T09:27:12Z</time></trkpt><trkpt lat="59.0759110451" lon="30.0217509270"><time>2026-04-25T09:27:14Z</time></trkpt><trkpt lat="59.0759754181" lon="30.0217080116"><time>2026-04-25T09:27:17Z</time></trkpt><trkpt lat="59.0760183334" lon="30.0216436386"><time>2026-04-25T09:27:19Z</time></trkpt><trkpt lat="59.0760183334" lon="30.0215792656"><time>2026-04-25T09:27:22Z</time></trkpt><trkpt lat="59.0760397911" lon="30.0215148926"><time>2026-04-25T09:27:24Z</time></trkpt><trkpt lat="59.0761041641" lon="30.0214934349"><time>2026-04-25T09:27:29Z</time></trkpt><trkpt lat="59.0761470795" lon="30.0215363503"><time>2026-04-25T09:27:32Z</time></trkpt><trkpt lat="59.0761685371" lon="30.0215792656"><time>2026-04-25T09:27:34Z</time></trkpt><trkpt lat="59.0762114525" lon="30.0216221809"><time>2026-04-25T09:27:39Z</time></trkpt><trkpt lat="59.0762543678" lon="30.0216865540"><time>2026-04-25T09:27:42Z</time></trkpt><trkpt lat="59.0762972832" lon="30.0217938423"><time>2026-04-25T09:27:44Z</time></trkpt><trkpt lat="59.0762758255" lon="30.0218796730"><time>2026-04-25T09:27:47Z</time></trkpt><trkpt lat="59.0762543678" lon="30.0219440460"><time>2026-04-25T09:27:49Z</time></trkpt><trkpt lat="59.0762114525" lon="30.0219440460"><time>2026-04-25T09:27:52Z</time></trkpt><trkpt lat="59.0761685371" lon="30.0219440460"><time>2026-04-25T09:27:54Z</time></trkpt><trkpt lat="59.0761685371" lon="30.0219655037"><time>2026-04-25T09:27:57Z</time></trkpt><trkpt lat="59.0762114525" lon="30.0219440460"><time>2026-04-25T09:27:59Z</time></trkpt><trkpt lat="59.0762543678" lon="30.0219225883"><time>2026-04-25T09:28:02Z</time></trkpt><trkpt lat="59.0762758255" lon="30.0218153000"><time>2026-04-25T09:28:04Z</time></trkpt><trkpt lat="59.0762972832" lon="30.0217294693"><time>2026-04-25T09:28:07Z</time></trkpt><trkpt lat="59.0762758255" lon="30.0216436386"><time>2026-04-25T09:28:09Z</time></trkpt><trkpt lat="59.0762972832" lon="30.0216221809"><time>2026-04-25T09:28:12Z</time></trkpt><trkpt lat="59.0762543678" lon="30.0216221809"><time>2026-04-25T09:28:14Z</time></trkpt><trkpt lat="59.0762114525" lon="30.0216221809"><time>2026-04-25T09:28:19Z</time></trkpt><trkpt lat="59.0761256218" lon="30.0217080116"><time>2026-04-25T09:28:22Z</time></trkpt><trkpt lat="59.0760827065" lon="30.0218367577"><time>2026-04-25T09:28:24Z</time></trkpt><trkpt lat="59.0760183334" lon="30.0217938423"><time>2026-04-25T09:28:27Z</time></trkpt><trkpt lat="59.0759539604" lon="30.0217509270"><time>2026-04-25T09:28:29Z</time></trkpt><trkpt lat="59.0759968758" lon="30.0217938423"><time>2026-04-25T09:28:34Z</time></trkpt><trkpt lat="59.0760612488" lon="30.0219011307"><time>2026-04-25T09:28:37Z</time></trkpt><trkpt lat="59.0762114525" lon="30.0220942497"><time>2026-04-25T09:28:47Z</time></trkpt><trkpt lat="59.0761899948" lon="30.0221157074"><time>2026-04-25T09:28:49Z</time></trkpt><trkpt lat="59.0762329102" lon="30.0222659111"><time>2026-04-25T09:29:12Z</time></trkpt><trkpt lat="59.0762758255" lon="30.0222015381"><time>2026-04-25T09:29:17Z</time></trkpt><trkpt lat="59.0762972832" lon="30.0221586227"><time>2026-04-25T09:29:19Z</time></trkpt><trkpt lat="59.0763831139" lon="30.0221157074"><time>2026-04-25T09:29:32Z</time></trkpt><trkpt lat="59.0763831139" lon="30.0220727921"><time>2026-04-25T09:29:37Z</time></trkpt><trkpt lat="59.0763831139" lon="30.0220084190"><time>2026-04-25T09:29:39Z</time></trkpt><trkpt lat="59.0764260292" lon="30.0219655037"><time>2026-04-25T09:29:42Z</time></trkpt><trkpt lat="59.0764474869" lon="30.0219011307"><time>2026-04-25T09:29:44Z</time></trkpt><trkpt lat="59.0764689445" lon="30.0218153000"><time>2026-04-25T09:29:47Z</time></trkpt><trkpt lat="59.0765118599" lon="30.0217723846"><time>2026-04-25T09:29:49Z</time></trkpt><trkpt lat="59.0765976906" lon="30.0217723846"><time>2026-04-25T09:29:54Z</time></trkpt><trkpt lat="59.0766406059" lon="30.0218582153"><time>2026-04-25T09:30:04Z</time></trkpt><trkpt lat="59.0766620636" lon="30.0219869614"><time>2026-04-25T09:30:07Z</time></trkpt><trkpt lat="59.0766406059" lon="30.0220942497"><time>2026-04-25T09:30:09Z</time></trkpt><trkpt lat="59.0765976906" lon="30.0221800804"><time>2026-04-25T09:30:12Z</time></trkpt><trkpt lat="59.0765762329" lon="30.0221157074"><time>2026-04-25T09:30:14Z</time></trkpt><trkpt lat="59.0765762329" lon="30.0220084190"><time>2026-04-25T09:30:17Z</time></trkpt><trkpt lat="59.0765976906" lon="30.0219011307"><time>2026-04-25T09:30:19Z</time></trkpt><trkpt lat="59.0766406059" lon="30.0217938423"><time>2026-04-25T09:30:22Z</time></trkpt><trkpt lat="59.0766620636" lon="30.0217509270"><time>2026-04-25T09:30:24Z</time></trkpt><trkpt lat="59.0767049789" lon="30.0217080116"><time>2026-04-25T09:30:27Z</time></trkpt><trkpt lat="59.0767478943" lon="30.0217080116"><time>2026-04-25T09:30:29Z</time></trkpt><trkpt lat="59.0767908096" lon="30.0217509270"><time>2026-04-25T09:30:32Z</time></trkpt><trkpt lat="59.0768337250" lon="30.0217509270"><time>2026-04-25T09:30:34Z</time></trkpt><trkpt lat="59.0768551826" lon="30.0217509270"><time>2026-04-25T09:30:37Z</time></trkpt><trkpt lat="59.0768766403" lon="30.0217294693"><time>2026-04-25T09:30:39Z</time></trkpt><trkpt lat="59.0768337250" lon="30.0217294693"><time>2026-04-25T09:30:47Z</time></trkpt><trkpt lat="59.0767693520" lon="30.0217723846"><time>2026-04-25T09:30:49Z</time></trkpt><trkpt lat="59.0767478943" lon="30.0217938423"><time>2026-04-25T09:30:52Z</time></trkpt><trkpt lat="59.0767264366" lon="30.0217938423"><time>2026-04-25T09:30:54Z</time></trkpt><trkpt lat="59.0767478943" lon="30.0217509270"><time>2026-04-25T09:30:57Z</time></trkpt><trkpt lat="59.0767693520" lon="30.0217294693"><time>2026-04-25T09:30:59Z</time></trkpt><trkpt lat="59.0768122673" lon="30.0217294693"><time>2026-04-25T09:31:02Z</time></trkpt><trkpt lat="59.0768766403" lon="30.0217080116"><time>2026-04-25T09:31:04Z</time></trkpt><trkpt lat="59.0769195557" lon="30.0217080116"><time>2026-04-25T09:31:07Z</time></trkpt><trkpt lat="59.0769624710" lon="30.0217294693"><time>2026-04-25T09:31:09Z</time></trkpt><trkpt lat="59.0770912170" lon="30.0217723846"><time>2026-04-25T09:31:22Z</time></trkpt><trkpt lat="59.0771126747" lon="30.0217294693"><time>2026-04-25T09:31:24Z</time></trkpt><trkpt lat="59.0770268440" lon="30.0217294693"><time>2026-04-25T09:31:37Z</time></trkpt><trkpt lat="59.0770483017" lon="30.0217509270"><time>2026-04-25T09:31:47Z</time></trkpt><trkpt lat="59.0770912170" lon="30.0217723846"><time>2026-04-25T09:31:59Z</time></trkpt><trkpt lat="59.0771555901" lon="30.0218153000"><time>2026-04-25T09:32:02Z</time></trkpt><trkpt lat="59.0771985054" lon="30.0218367577"><time>2026-04-25T09:32:04Z</time></trkpt><trkpt lat="59.0772628784" lon="30.0218367577"><time>2026-04-25T09:32:09Z</time></trkpt><trkpt lat="59.0774130821" lon="30.0218582153"><time>2026-04-25T09:32:27Z</time></trkpt><trkpt lat="59.0774345398" lon="30.0218367577"><time>2026-04-25T09:32:29Z</time></trkpt><trkpt lat="59.0774774551" lon="30.0217938423"><time>2026-04-25T09:32:32Z</time></trkpt><trkpt lat="59.0774989128" lon="30.0218582153"><time>2026-04-25T09:32:44Z</time></trkpt><trkpt lat="59.0775418282" lon="30.0218796730"><time>2026-04-25T09:32:47Z</time></trkpt><trkpt lat="59.0775632858" lon="30.0219011307"><time>2026-04-25T09:32:49Z</time></trkpt><trkpt lat="59.0776062012" lon="30.0219869614"><time>2026-04-25T09:32:52Z</time></trkpt><trkpt lat="59.0776276588" lon="30.0220513344"><time>2026-04-25T09:32:54Z</time></trkpt><trkpt lat="59.0776491165" lon="30.0221157074"><time>2026-04-25T09:32:57Z</time></trkpt><trkpt lat="59.0776276588" lon="30.0220298767"><time>2026-04-25T09:32:59Z</time></trkpt><trkpt lat="59.0776062012" lon="30.0220084190"><time>2026-04-25T09:33:02Z</time></trkpt><trkpt lat="59.0775847435" lon="30.0219440460"><time>2026-04-25T09:33:07Z</time></trkpt><trkpt lat="59.0774989128" lon="30.0218367577"><time>2026-04-25T09:33:24Z</time></trkpt><trkpt lat="59.0775203705" lon="30.0217938423"><time>2026-04-25T09:33:27Z</time></trkpt><trkpt lat="59.0775632858" lon="30.0217509270"><time>2026-04-25T09:33:29Z</time></trkpt><trkpt lat="59.0775847435" lon="30.0217723846"><time>2026-04-25T09:33:32Z</time></trkpt><trkpt lat="59.0776062012" lon="30.0218153000"><time>2026-04-25T09:33:34Z</time></trkpt><trkpt lat="59.0775847435" lon="30.0218153000"><time>2026-04-25T09:33:39Z</time></trkpt><trkpt lat="59.0775847435" lon="30.0218582153"><time>2026-04-25T09:33:42Z</time></trkpt><trkpt lat="59.0775847435" lon="30.0219225883"><time>2026-04-25T09:33:44Z</time></trkpt><trkpt lat="59.0776062012" lon="30.0219011307"><time>2026-04-25T09:34:02Z</time></trkpt><trkpt lat="59.0775847435" lon="30.0218582153"><time>2026-04-25T09:34:19Z</time></trkpt><trkpt lat="59.0775632858" lon="30.0217509270"><time>2026-04-25T09:34:22Z</time></trkpt><trkpt lat="59.0775632858" lon="30.0217509270"><time>2026-04-25T09:34:52Z</time></trkpt><trkpt lat="59.0776062012" lon="30.0217938423"><time>2026-04-25T09:35:14Z</time></trkpt><trkpt lat="59.0776491165" lon="30.0218367577"><time>2026-04-25T09:35:17Z</time></trkpt><trkpt lat="59.0776705742" lon="30.0219225883"><time>2026-04-25T09:35:19Z</time></trkpt><trkpt lat="59.0776491165" lon="30.0219869614"><time>2026-04-25T09:35:22Z</time></trkpt><trkpt lat="59.0776276588" lon="30.0220513344"><time>2026-04-25T09:35:24Z</time></trkpt><trkpt lat="59.0776491165" lon="30.0220084190"><time>2026-04-25T09:35:29Z</time></trkpt><trkpt lat="59.0776920319" lon="30.0220727921"><time>2026-04-25T09:35:32Z</time></trkpt><trkpt lat="59.0777134895" lon="30.0220942497"><time>2026-04-25T09:35:34Z</time></trkpt><trkpt lat="59.0777778625" lon="30.0221586227"><time>2026-04-25T09:35:37Z</time></trkpt><trkpt lat="59.0777993202" lon="30.0222229958"><time>2026-04-25T09:35:39Z</time></trkpt><trkpt lat="59.0777993202" lon="30.0223088264"><time>2026-04-25T09:35:42Z</time></trkpt><trkpt lat="59.0778207779" lon="30.0223088264"><time>2026-04-25T09:35:44Z</time></trkpt><trkpt lat="59.0778422356" lon="30.0223088264"><time>2026-04-25T09:35:47Z</time></trkpt><trkpt lat="59.0778636932" lon="30.0222873688"><time>2026-04-25T09:35:49Z</time></trkpt><trkpt lat="59.0778851509" lon="30.0222015381"><time>2026-04-25T09:35:59Z</time></trkpt><trkpt lat="59.0778851509" lon="30.0221157074"><time>2026-04-25T09:36:02Z</time></trkpt><trkpt lat="59.0779066086" lon="30.0219655037"><time>2026-04-25T09:36:04Z</time></trkpt><trkpt lat="59.0778636932" lon="30.0218153000"><time>2026-04-25T09:36:12Z</time></trkpt><trkpt lat="59.0778422356" lon="30.0217080116"><time>2026-04-25T09:36:14Z</time></trkpt><trkpt lat="59.0777778625" lon="30.0216221809"><time>2026-04-25T09:36:19Z</time></trkpt><trkpt lat="59.0777564049" lon="30.0215578079"><time>2026-04-25T09:36:22Z</time></trkpt><trkpt lat="59.0777993202" lon="30.0215578079"><time>2026-04-25T09:36:37Z</time></trkpt><trkpt lat="59.0778636932" lon="30.0216436386"><time>2026-04-25T09:36:42Z</time></trkpt><trkpt lat="59.0778851509" lon="30.0216650963"><time>2026-04-25T09:36:44Z</time></trkpt><trkpt lat="59.0778636932" lon="30.0216007233"><time>2026-04-25T09:36:49Z</time></trkpt><trkpt lat="59.0779709816" lon="30.0215578079"><time>2026-04-25T09:37:02Z</time></trkpt><trkpt lat="59.0780138969" lon="30.0216007233"><time>2026-04-25T09:37:04Z</time></trkpt><trkpt lat="59.0780782700" lon="30.0217080116"><time>2026-04-25T09:37:09Z</time></trkpt><trkpt lat="59.0781211853" lon="30.0217723846"><time>2026-04-25T09:37:14Z</time></trkpt><trkpt lat="59.0781426430" lon="30.0217723846"><time>2026-04-25T09:37:17Z</time></trkpt><trkpt lat="59.0781855583" lon="30.0217938423"><time>2026-04-25T09:37:19Z</time></trkpt><trkpt lat="59.0782499313" lon="30.0217723846"><time>2026-04-25T09:37:22Z</time></trkpt><trkpt lat="59.0782713890" lon="30.0217080116"><time>2026-04-25T09:37:24Z</time></trkpt><trkpt lat="59.0782713890" lon="30.0216436386"><time>2026-04-25T09:37:27Z</time></trkpt><trkpt lat="59.0782928467" lon="30.0215792656"><time>2026-04-25T09:37:29Z</time></trkpt><trkpt lat="59.0782928467" lon="30.0215148926"><time>2026-04-25T09:37:32Z</time></trkpt><trkpt lat="59.0782928467" lon="30.0214505196"><time>2026-04-25T09:37:34Z</time></trkpt><trkpt lat="59.0782928467" lon="30.0214076042"><time>2026-04-25T09:37:37Z</time></trkpt><trkpt lat="59.0782928467" lon="30.0214076042"><time>2026-04-25T09:37:39Z</time></trkpt><trkpt lat="59.0783143044" lon="30.0213646889"><time>2026-04-25T09:37:52Z</time></trkpt><trkpt lat="59.0783572197" lon="30.0214076042"><time>2026-04-25T09:37:54Z</time></trkpt><trkpt lat="59.0784215927" lon="30.0214719772"><time>2026-04-25T09:37:57Z</time></trkpt><trkpt lat="59.0784645081" lon="30.0215792656"><time>2026-04-25T09:37:59Z</time></trkpt><trkpt lat="59.0785074234" lon="30.0216436386"><time>2026-04-25T09:38:02Z</time></trkpt><trkpt lat="59.0785288811" lon="30.0217294693"><time>2026-04-25T09:38:04Z</time></trkpt><trkpt lat="59.0785288811" lon="30.0218153000"><time>2026-04-25T09:38:07Z</time></trkpt><trkpt lat="59.0784859657" lon="30.0218367577"><time>2026-04-25T09:38:09Z</time></trkpt><trkpt lat="59.0784430504" lon="30.0218153000"><time>2026-04-25T09:38:12Z</time></trkpt><trkpt lat="59.0784001350" lon="30.0218153000"><time>2026-04-25T09:38:14Z</time></trkpt><trkpt lat="59.0783357620" lon="30.0217723846"><time>2026-04-25T09:38:17Z</time></trkpt><trkpt lat="59.0783357620" lon="30.0216865540"><time>2026-04-25T09:38:19Z</time></trkpt><trkpt lat="59.0783786774" lon="30.0215792656"><time>2026-04-25T09:38:22Z</time></trkpt><trkpt lat="59.0783786774" lon="30.0215578079"><time>2026-04-25T09:38:39Z</time></trkpt><trkpt lat="59.0783357620" lon="30.0214505196"><time>2026-04-25T09:38:59Z</time></trkpt><trkpt lat="59.0782499313" lon="30.0211930275"><time>2026-04-25T09:39:07Z</time></trkpt><trkpt lat="59.0782713890" lon="30.0211286545"><time>2026-04-25T09:39:09Z</time></trkpt><trkpt lat="59.0782928467" lon="30.0210642815"><time>2026-04-25T09:39:12Z</time></trkpt><trkpt lat="59.0782713890" lon="30.0211071968"><time>2026-04-25T09:39:14Z</time></trkpt><trkpt lat="59.0781641006" lon="30.0208926201"><time>2026-04-25T09:39:32Z</time></trkpt><trkpt lat="59.0782070160" lon="30.0208926201"><time>2026-04-25T09:39:57Z</time></trkpt><trkpt lat="59.0782284737" lon="30.0209140778"><time>2026-04-25T09:39:59Z</time></trkpt><trkpt lat="59.0782713890" lon="30.0209569931"><time>2026-04-25T09:40:02Z</time></trkpt><trkpt lat="59.0782928467" lon="30.0209999084"><time>2026-04-25T09:40:04Z</time></trkpt><trkpt lat="59.0782713890" lon="30.0209999084"><time>2026-04-25T09:40:07Z</time></trkpt><trkpt lat="59.0782713890" lon="30.0210213661"><time>2026-04-25T09:40:09Z</time></trkpt><trkpt lat="59.0782070160" lon="30.0209355354"><time>2026-04-25T09:40:14Z</time></trkpt><trkpt lat="59.0781641006" lon="30.0208711624"><time>2026-04-25T09:40:17Z</time></trkpt><trkpt lat="59.0781211853" lon="30.0208282471"><time>2026-04-25T09:40:19Z</time></trkpt><trkpt lat="59.0780782700" lon="30.0208711624"><time>2026-04-25T09:40:22Z</time></trkpt><trkpt lat="59.0780568123" lon="30.0208926201"><time>2026-04-25T09:40:24Z</time></trkpt><trkpt lat="59.0780568123" lon="30.0208067894"><time>2026-04-25T09:40:42Z</time></trkpt><trkpt lat="59.0780568123" lon="30.0207424164"><time>2026-04-25T09:40:47Z</time></trkpt><trkpt lat="59.0780568123" lon="30.0206780434"><time>2026-04-25T09:40:49Z</time></trkpt><trkpt lat="59.0780782700" lon="30.0205278397"><time>2026-04-25T09:41:07Z</time></trkpt><trkpt lat="59.0780568123" lon="30.0203776360"><time>2026-04-25T09:41:24Z</time></trkpt><trkpt lat="59.0780568123" lon="30.0202918053"><time>2026-04-25T09:41:27Z</time></trkpt><trkpt lat="59.0780353546" lon="30.0202274323"><time>2026-04-25T09:41:29Z</time></trkpt><trkpt lat="59.0780568123" lon="30.0201630592"><time>2026-04-25T09:41:32Z</time></trkpt><trkpt lat="59.0780568123" lon="30.0200986862"><time>2026-04-25T09:41:34Z</time></trkpt><trkpt lat="59.0780782700" lon="30.0200128555"><time>2026-04-25T09:41:37Z</time></trkpt><trkpt lat="59.0780353546" lon="30.0199913979"><time>2026-04-25T09:42:07Z</time></trkpt><trkpt lat="59.0780353546" lon="30.0199699402"><time>2026-04-25T09:42:12Z</time></trkpt><trkpt lat="59.0780138969" lon="30.0198626518"><time>2026-04-25T09:42:14Z</time></trkpt><trkpt lat="59.0780138969" lon="30.0197339058"><time>2026-04-25T09:42:17Z</time></trkpt><trkpt lat="59.0780353546" lon="30.0196266174"><time>2026-04-25T09:42:19Z</time></trkpt><trkpt lat="59.0780138969" lon="30.0195622444"><time>2026-04-25T09:42:22Z</time></trkpt><trkpt lat="59.0780138969" lon="30.0194978714"><time>2026-04-25T09:42:24Z</time></trkpt><trkpt lat="59.0779924393" lon="30.0194334984"><time>2026-04-25T09:42:27Z</time></trkpt><trkpt lat="59.0779709816" lon="30.0193476677"><time>2026-04-25T09:42:29Z</time></trkpt><trkpt lat="59.0779280663" lon="30.0193476677"><time>2026-04-25T09:42:32Z</time></trkpt><trkpt lat="59.0779066086" lon="30.0192832947"><time>2026-04-25T09:42:34Z</time></trkpt><trkpt lat="59.0778636932" lon="30.0191330910"><time>2026-04-25T09:42:37Z</time></trkpt><trkpt lat="59.0778422356" lon="30.0190043449"><time>2026-04-25T09:42:39Z</time></trkpt><trkpt lat="59.0778207779" lon="30.0188755989"><time>2026-04-25T09:42:42Z</time></trkpt><trkpt lat="59.0778207779" lon="30.0187897682"><time>2026-04-25T09:42:47Z</time></trkpt><trkpt lat="59.0778422356" lon="30.0187683105"><time>2026-04-25T09:42:49Z</time></trkpt><trkpt lat="59.0778636932" lon="30.0187897682"><time>2026-04-25T09:42:52Z</time></trkpt><trkpt lat="59.0779280663" lon="30.0188541412"><time>2026-04-25T09:42:54Z</time></trkpt><trkpt lat="59.0779709816" lon="30.0189399719"><time>2026-04-25T09:42:57Z</time></trkpt><trkpt lat="59.0779709816" lon="30.0190258026"><time>2026-04-25T09:42:59Z</time></trkpt><trkpt lat="59.0780138969" lon="30.0192189217"><time>2026-04-25T09:43:29Z</time></trkpt><trkpt lat="59.0779924393" lon="30.0191330910"><time>2026-04-25T09:43:39Z</time></trkpt><trkpt lat="59.0779495239" lon="30.0191116333"><time>2026-04-25T09:43:42Z</time></trkpt><trkpt lat="59.0779495239" lon="30.0190472603"><time>2026-04-25T09:43:44Z</time></trkpt><trkpt lat="59.0779066086" lon="30.0190258026"><time>2026-04-25T09:43:47Z</time></trkpt><trkpt lat="59.0778422356" lon="30.0189828873"><time>2026-04-25T09:43:52Z</time></trkpt><trkpt lat="59.0776062012" lon="30.0188970566"><time>2026-04-25T09:44:02Z</time></trkpt><trkpt lat="59.0775632858" lon="30.0188755989"><time>2026-04-25T09:44:04Z</time></trkpt><trkpt lat="59.0775847435" lon="30.0188112259"><time>2026-04-25T09:44:07Z</time></trkpt><trkpt lat="59.0776491165" lon="30.0187039375"><time>2026-04-25T09:44:09Z</time></trkpt><trkpt lat="59.0776920319" lon="30.0186395645"><time>2026-04-25T09:44:12Z</time></trkpt><trkpt lat="59.0777349472" lon="30.0185966492"><time>2026-04-25T09:44:14Z</time></trkpt><trkpt lat="59.0777778625" lon="30.0187039375"><time>2026-04-25T09:44:19Z</time></trkpt><trkpt lat="59.0778422356" lon="30.0187468529"><time>2026-04-25T09:44:22Z</time></trkpt><trkpt lat="59.0778851509" lon="30.0187039375"><time>2026-04-25T09:44:24Z</time></trkpt><trkpt lat="59.0779066086" lon="30.0186395645"><time>2026-04-25T09:44:27Z</time></trkpt><trkpt lat="59.0779495239" lon="30.0185537338"><time>2026-04-25T09:44:42Z</time></trkpt><trkpt lat="59.0779495239" lon="30.0185108185"><time>2026-04-25T09:44:44Z</time></trkpt><trkpt lat="59.0779924393" lon="30.0184679031"><time>2026-04-25T09:44:49Z</time></trkpt><trkpt lat="59.0779709816" lon="30.0184893608"><time>2026-04-25T09:44:57Z</time></trkpt><trkpt lat="59.0779495239" lon="30.0185322762"><time>2026-04-25T09:44:59Z</time></trkpt><trkpt lat="59.0779280663" lon="30.0185751915"><time>2026-04-25T09:45:27Z</time></trkpt><trkpt lat="59.0779280663" lon="30.0186181068"><time>2026-04-25T09:45:57Z</time></trkpt><trkpt lat="59.0780353546" lon="30.0185537338"><time>2026-04-25T09:46:12Z</time></trkpt><trkpt lat="59.0780353546" lon="30.0184893608"><time>2026-04-25T09:46:14Z</time></trkpt><trkpt lat="59.0780782700" lon="30.0184249878"><time>2026-04-25T09:46:17Z</time></trkpt><trkpt lat="59.0781211853" lon="30.0185108185"><time>2026-04-25T09:46:27Z</time></trkpt><trkpt lat="59.0781641006" lon="30.0185108185"><time>2026-04-25T09:46:29Z</time></trkpt><trkpt lat="59.0782070160" lon="30.0184679031"><time>2026-04-25T09:46:32Z</time></trkpt><trkpt lat="59.0782499313" lon="30.0184035301"><time>2026-04-25T09:46:34Z</time></trkpt><trkpt lat="59.0782499313" lon="30.0183391571"><time>2026-04-25T09:46:37Z</time></trkpt><trkpt lat="59.0782284737" lon="30.0184035301"><time>2026-04-25T09:46:42Z</time></trkpt><trkpt lat="59.0781855583" lon="30.0184464455"><time>2026-04-25T09:46:44Z</time></trkpt><trkpt lat="59.0781426430" lon="30.0184679031"><time>2026-04-25T09:46:47Z</time></trkpt><trkpt lat="59.0781211853" lon="30.0185537338"><time>2026-04-25T09:46:49Z</time></trkpt><trkpt lat="59.0780568123" lon="30.0186395645"><time>2026-04-25T09:46:52Z</time></trkpt><trkpt lat="59.0780138969" lon="30.0186824799"><time>2026-04-25T09:46:54Z</time></trkpt><trkpt lat="59.0779495239" lon="30.0185751915"><time>2026-04-25T09:46:59Z</time></trkpt><trkpt lat="59.0780353546" lon="30.0184464455"><time>2026-04-25T09:47:27Z</time></trkpt><trkpt lat="59.0780782700" lon="30.0184249878"><time>2026-04-25T09:47:42Z</time></trkpt><trkpt lat="59.0781211853" lon="30.0184249878"><time>2026-04-25T09:47:44Z</time></trkpt><trkpt lat="59.0781426430" lon="30.0183606148"><time>2026-04-25T09:48:12Z</time></trkpt><trkpt lat="59.0781855583" lon="30.0182533264"><time>2026-04-25T09:48:17Z</time></trkpt><trkpt lat="59.0782284737" lon="30.0182104111"><time>2026-04-25T09:48:19Z</time></trkpt><trkpt lat="59.0782928467" lon="30.0182318687"><time>2026-04-25T09:48:22Z</time></trkpt><trkpt lat="59.0783572197" lon="30.0183176994"><time>2026-04-25T09:48:24Z</time></trkpt><trkpt lat="59.0784001350" lon="30.0183606148"><time>2026-04-25T09:48:37Z</time></trkpt><trkpt lat="59.0784430504" lon="30.0183820724"><time>2026-04-25T09:48:39Z</time></trkpt><trkpt lat="59.0785074234" lon="30.0183391571"><time>2026-04-25T09:48:44Z</time></trkpt><trkpt lat="59.0785288811" lon="30.0183176994"><time>2026-04-25T09:48:47Z</time></trkpt><trkpt lat="59.0785074234" lon="30.0183176994"><time>2026-04-25T09:48:49Z</time></trkpt><trkpt lat="59.0785074234" lon="30.0182533264"><time>2026-04-25T09:48:52Z</time></trkpt><trkpt lat="59.0785288811" lon="30.0181245804"><time>2026-04-25T09:48:54Z</time></trkpt><trkpt lat="59.0784645081" lon="30.0181674957"><time>2026-04-25T09:49:02Z</time></trkpt><trkpt lat="59.0783786774" lon="30.0181245804"><time>2026-04-25T09:49:04Z</time></trkpt><trkpt lat="59.0783143044" lon="30.0180816650"><time>2026-04-25T09:49:07Z</time></trkpt><trkpt lat="59.0782713890" lon="30.0180816650"><time>2026-04-25T09:49:09Z</time></trkpt><trkpt lat="59.0782499313" lon="30.0181460381"><time>2026-04-25T09:49:12Z</time></trkpt><trkpt lat="59.0782284737" lon="30.0181031227"><time>2026-04-25T09:49:14Z</time></trkpt><trkpt lat="59.0782713890" lon="30.0180602074"><time>2026-04-25T09:49:17Z</time></trkpt><trkpt lat="59.0783143044" lon="30.0180816650"><time>2026-04-25T09:49:19Z</time></trkpt><trkpt lat="59.0783572197" lon="30.0181031227"><time>2026-04-25T09:49:22Z</time></trkpt><trkpt lat="59.0783786774" lon="30.0180387497"><time>2026-04-25T09:49:27Z</time></trkpt><trkpt lat="59.0784001350" lon="30.0179743767"><time>2026-04-25T09:49:29Z</time></trkpt><trkpt lat="59.0784645081" lon="30.0179100037"><time>2026-04-25T09:49:32Z</time></trkpt><trkpt lat="59.0785074234" lon="30.0179314613"><time>2026-04-25T09:49:34Z</time></trkpt><trkpt lat="59.0785717964" lon="30.0179958344"><time>2026-04-25T09:49:37Z</time></trkpt><trkpt lat="59.0786147118" lon="30.0180387497"><time>2026-04-25T09:49:42Z</time></trkpt><trkpt lat="59.0786576271" lon="30.0181245804"><time>2026-04-25T09:49:47Z</time></trkpt><trkpt lat="59.0787005424" lon="30.0181674957"><time>2026-04-25T09:49:49Z</time></trkpt><trkpt lat="59.0786790848" lon="30.0182747841"><time>2026-04-25T09:49:57Z</time></trkpt><trkpt lat="59.0786147118" lon="30.0183176994"><time>2026-04-25T09:49:59Z</time></trkpt><trkpt lat="59.0785717964" lon="30.0183176994"><time>2026-04-25T09:50:02Z</time></trkpt><trkpt lat="59.0785503387" lon="30.0183391571"><time>2026-04-25T09:50:32Z</time></trkpt><trkpt lat="59.0785503387" lon="30.0183820724"><time>2026-04-25T09:50:42Z</time></trkpt><trkpt lat="59.0785717964" lon="30.0184464455"><time>2026-04-25T09:50:44Z</time></trkpt><trkpt lat="59.0785932541" lon="30.0185322762"><time>2026-04-25T09:50:47Z</time></trkpt><trkpt lat="59.0785932541" lon="30.0185537338"><time>2026-04-25T09:50:49Z</time></trkpt><trkpt lat="59.0786147118" lon="30.0184249878"><time>2026-04-25T09:50:59Z</time></trkpt><trkpt lat="59.0786576271" lon="30.0185108185"><time>2026-04-25T09:51:04Z</time></trkpt><trkpt lat="59.0787005424" lon="30.0186824799"><time>2026-04-25T09:51:09Z</time></trkpt><trkpt lat="59.0787005424" lon="30.0190043449"><time>2026-04-25T09:51:19Z</time></trkpt><trkpt lat="59.0786790848" lon="30.0191974640"><time>2026-04-25T09:51:22Z</time></trkpt><trkpt lat="59.0786790848" lon="30.0193047523"><time>2026-04-25T09:51:24Z</time></trkpt><trkpt lat="59.0786790848" lon="30.0193905830"><time>2026-04-25T09:51:27Z</time></trkpt><trkpt lat="59.0786147118" lon="30.0194120407"><time>2026-04-25T09:51:34Z</time></trkpt><trkpt lat="59.0785503387" lon="30.0193691254"><time>2026-04-25T09:51:37Z</time></trkpt><trkpt lat="59.0785288811" lon="30.0192618370"><time>2026-04-25T09:51:39Z</time></trkpt><trkpt lat="59.0785288811" lon="30.0191116333"><time>2026-04-25T09:51:42Z</time></trkpt><trkpt lat="59.0784859657" lon="30.0190687180"><time>2026-04-25T09:51:44Z</time></trkpt><trkpt lat="59.0784430504" lon="30.0191116333"><time>2026-04-25T09:51:49Z</time></trkpt><trkpt lat="59.0784645081" lon="30.0192189217"><time>2026-04-25T09:51:52Z</time></trkpt><trkpt lat="59.0784859657" lon="30.0193262100"><time>2026-04-25T09:51:54Z</time></trkpt><trkpt lat="59.0784430504" lon="30.0194120407"><time>2026-04-25T09:51:57Z</time></trkpt><trkpt lat="59.0784001350" lon="30.0194549561"><time>2026-04-25T09:51:59Z</time></trkpt><trkpt lat="59.0784001350" lon="30.0196480751"><time>2026-04-25T09:52:12Z</time></trkpt><trkpt lat="59.0784001350" lon="30.0197339058"><time>2026-04-25T09:52:14Z</time></trkpt><trkpt lat="59.0784001350" lon="30.0197553635"><time>2026-04-25T09:52:17Z</time></trkpt><trkpt lat="59.0784215927" lon="30.0198197365"><time>2026-04-25T09:52:19Z</time></trkpt><trkpt lat="59.0784215927" lon="30.0199055672"><time>2026-04-25T09:52:22Z</time></trkpt><trkpt lat="59.0784430504" lon="30.0199913979"><time>2026-04-25T09:52:24Z</time></trkpt><trkpt lat="59.0784645081" lon="30.0199270248"><time>2026-04-25T09:52:32Z</time></trkpt><trkpt lat="59.0784859657" lon="30.0198626518"><time>2026-04-25T09:52:34Z</time></trkpt><trkpt lat="59.0785074234" lon="30.0197982788"><time>2026-04-25T09:52:37Z</time></trkpt><trkpt lat="59.0785074234" lon="30.0197553635"><time>2026-04-25T09:52:39Z</time></trkpt><trkpt lat="59.0785288811" lon="30.0197124481"><time>2026-04-25T09:52:42Z</time></trkpt><trkpt lat="59.0785288811" lon="30.0196480751"><time>2026-04-25T09:52:44Z</time></trkpt><trkpt lat="59.0785288811" lon="30.0195837021"><time>2026-04-25T09:52:47Z</time></trkpt><trkpt lat="59.0785503387" lon="30.0195407867"><time>2026-04-25T09:52:57Z</time></trkpt><trkpt lat="59.0785717964" lon="30.0196266174"><time>2026-04-25T09:53:02Z</time></trkpt><trkpt lat="59.0785717964" lon="30.0197339058"><time>2026-04-25T09:53:04Z</time></trkpt><trkpt lat="59.0785932541" lon="30.0197982788"><time>2026-04-25T09:53:07Z</time></trkpt><trkpt lat="59.0786147118" lon="30.0198626518"><time>2026-04-25T09:53:09Z</time></trkpt><trkpt lat="59.0786790848" lon="30.0198197365"><time>2026-04-25T09:53:24Z</time></trkpt><trkpt lat="59.0786790848" lon="30.0200128555"><time>2026-04-25T09:53:42Z</time></trkpt><trkpt lat="59.0787005424" lon="30.0200772285"><time>2026-04-25T09:53:44Z</time></trkpt><trkpt lat="59.0787434578" lon="30.0200986862"><time>2026-04-25T09:53:52Z</time></trkpt><trkpt lat="59.0787649155" lon="30.0200343132"><time>2026-04-25T09:53:54Z</time></trkpt><trkpt lat="59.0788078308" lon="30.0200128555"><time>2026-04-25T09:53:57Z</time></trkpt><trkpt lat="59.0788507462" lon="30.0200128555"><time>2026-04-25T09:53:59Z</time></trkpt><trkpt lat="59.0788936615" lon="30.0200557709"><time>2026-04-25T09:54:02Z</time></trkpt><trkpt lat="59.0788722038" lon="30.0201416016"><time>2026-04-25T09:54:14Z</time></trkpt><trkpt lat="59.0789151192" lon="30.0202059746"><time>2026-04-25T09:54:17Z</time></trkpt><trkpt lat="59.0789365768" lon="30.0202703476"><time>2026-04-25T09:54:19Z</time></trkpt><trkpt lat="59.0789580345" lon="30.0203347206"><time>2026-04-25T09:54:22Z</time></trkpt><trkpt lat="59.0789794922" lon="30.0203990936"><time>2026-04-25T09:54:24Z</time></trkpt><trkpt lat="59.0789580345" lon="30.0203561783"><time>2026-04-25T09:54:32Z</time></trkpt><trkpt lat="59.0789151192" lon="30.0203347206"><time>2026-04-25T09:54:34Z</time></trkpt><trkpt lat="59.0788722038" lon="30.0203347206"><time>2026-04-25T09:54:37Z</time></trkpt><trkpt lat="59.0788507462" lon="30.0202703476"><time>2026-04-25T09:54:42Z</time></trkpt><trkpt lat="59.0788292885" lon="30.0201630592"><time>2026-04-25T09:54:47Z</time></trkpt><trkpt lat="59.0788507462" lon="30.0200772285"><time>2026-04-25T09:54:49Z</time></trkpt><trkpt lat="59.0788936615" lon="30.0200557709"><time>2026-04-25T09:54:52Z</time></trkpt><trkpt lat="59.0789151192" lon="30.0200128555"><time>2026-04-25T09:54:54Z</time></trkpt><trkpt lat="59.0789580345" lon="30.0200986862"><time>2026-04-25T09:54:59Z</time></trkpt><trkpt lat="59.0790224075" lon="30.0201416016"><time>2026-04-25T09:55:02Z</time></trkpt><trkpt lat="59.0790653229" lon="30.0202059746"><time>2026-04-25T09:55:04Z</time></trkpt><trkpt lat="59.0790867805" lon="30.0202918053"><time>2026-04-25T09:55:07Z</time></trkpt><trkpt lat="59.0791082382" lon="30.0204420090"><time>2026-04-25T09:55:14Z</time></trkpt><trkpt lat="59.0790867805" lon="30.0204849243"><time>2026-04-25T09:55:17Z</time></trkpt><trkpt lat="59.0790867805" lon="30.0205492973"><time>2026-04-25T09:55:19Z</time></trkpt><trkpt lat="59.0790653229" lon="30.0205707550"><time>2026-04-25T09:55:22Z</time></trkpt><trkpt lat="59.0790653229" lon="30.0205922127"><time>2026-04-25T09:55:34Z</time></trkpt><trkpt lat="59.0790867805" lon="30.0205922127"><time>2026-04-25T09:55:44Z</time></trkpt><trkpt lat="59.0792155266" lon="30.0205278397"><time>2026-04-25T09:56:12Z</time></trkpt><trkpt lat="59.0792155266" lon="30.0204205513"><time>2026-04-25T09:56:17Z</time></trkpt><trkpt lat="59.0792369843" lon="30.0203347206"><time>2026-04-25T09:56:19Z</time></trkpt><trkpt lat="59.0792584419" lon="30.0203776360"><time>2026-04-25T09:56:22Z</time></trkpt><trkpt lat="59.0793013573" lon="30.0204205513"><time>2026-04-25T09:56:24Z</time></trkpt><trkpt lat="59.0793013573" lon="30.0204849243"><time>2026-04-25T09:56:27Z</time></trkpt><trkpt lat="59.0792584419" lon="30.0205922127"><time>2026-04-25T09:56:34Z</time></trkpt><trkpt lat="59.0793228149" lon="30.0206136703"><time>2026-04-25T09:56:59Z</time></trkpt><trkpt lat="59.0792798996" lon="30.0206136703"><time>2026-04-25T09:57:29Z</time></trkpt><trkpt lat="59.0793013573" lon="30.0205278397"><time>2026-04-25T09:57:59Z</time></trkpt><trkpt lat="59.0794086456" lon="30.0203776360"><time>2026-04-25T09:58:19Z</time></trkpt><trkpt lat="59.0795803070" lon="30.0204634666"><time>2026-04-25T09:58:49Z</time></trkpt><trkpt lat="59.0795588493" lon="30.0202488899"><time>2026-04-25T09:59:04Z</time></trkpt><trkpt lat="59.0796017647" lon="30.0203561783"><time>2026-04-25T09:59:09Z</time></trkpt><trkpt lat="59.0796017647" lon="30.0203990936"><time>2026-04-25T09:59:12Z</time></trkpt><trkpt lat="59.0796232224" lon="30.0204634666"><time>2026-04-25T09:59:14Z</time></trkpt><trkpt lat="59.0796661377" lon="30.0205278397"><time>2026-04-25T09:59:17Z</time></trkpt><trkpt lat="59.0796875954" lon="30.0205063820"><time>2026-04-25T09:59:22Z</time></trkpt><trkpt lat="59.0797305107" lon="30.0203990936"><time>2026-04-25T09:59:52Z</time></trkpt><trkpt lat="59.0797519684" lon="30.0203347206"><time>2026-04-25T09:59:54Z</time></trkpt><trkpt lat="59.0798377991" lon="30.0203561783"><time>2026-04-25T10:00:22Z</time></trkpt><trkpt lat="59.0798377991" lon="30.0203561783"><time>2026-04-25T10:00:24Z</time></trkpt><trkpt lat="59.0798592567" lon="30.0203561783"><time>2026-04-25T10:00:54Z</time></trkpt><trkpt lat="59.0798592567" lon="30.0203561783"><time>2026-04-25T10:00:57Z</time></trkpt><trkpt lat="59.0799236298" lon="30.0203132629"><time>2026-04-25T10:00:59Z</time></trkpt><trkpt lat="59.0799880028" lon="30.0202703476"><time>2026-04-25T10:01:04Z</time></trkpt><trkpt lat="59.0800309181" lon="30.0203132629"><time>2026-04-25T10:01:07Z</time></trkpt><trkpt lat="59.0800523758" lon="30.0202918053"><time>2026-04-25T10:01:09Z</time></trkpt><trkpt lat="59.0800952911" lon="30.0202274323"><time>2026-04-25T10:01:12Z</time></trkpt><trkpt lat="59.0801596642" lon="30.0202059746"><time>2026-04-25T10:01:14Z</time></trkpt><trkpt lat="59.0801811218" lon="30.0201416016"><time>2026-04-25T10:01:17Z</time></trkpt><trkpt lat="59.0802240372" lon="30.0200128555"><time>2026-04-25T10:01:19Z</time></trkpt><trkpt lat="59.0802669525" lon="30.0199913979"><time>2026-04-25T10:01:27Z</time></trkpt><trkpt lat="59.0803098679" lon="30.0199913979"><time>2026-04-25T10:01:29Z</time></trkpt><trkpt lat="59.0802884102" lon="30.0200343132"><time>2026-04-25T10:01:32Z</time></trkpt><trkpt lat="59.0802884102" lon="30.0200128555"><time>2026-04-25T10:01:34Z</time></trkpt><trkpt lat="59.0802669525" lon="30.0199484825"><time>2026-04-25T10:01:37Z</time></trkpt><trkpt lat="59.0802669525" lon="30.0198411942"><time>2026-04-25T10:01:39Z</time></trkpt><trkpt lat="59.0802240372" lon="30.0197982788"><time>2026-04-25T10:01:42Z</time></trkpt><trkpt lat="59.0801811218" lon="30.0197982788"><time>2026-04-25T10:01:44Z</time></trkpt><trkpt lat="59.0801382065" lon="30.0198197365"><time>2026-04-25T10:01:47Z</time></trkpt><trkpt lat="59.0801167488" lon="30.0198626518"><time>2026-04-25T10:01:49Z</time></trkpt><trkpt lat="59.0800738335" lon="30.0198841095"><time>2026-04-25T10:01:52Z</time></trkpt><trkpt lat="59.0800523758" lon="30.0199055672"><time>2026-04-25T10:01:54Z</time></trkpt><trkpt lat="59.0800309181" lon="30.0200128555"><time>2026-04-25T10:01:57Z</time></trkpt><trkpt lat="59.0800523758" lon="30.0201630592"><time>2026-04-25T10:01:59Z</time></trkpt><trkpt lat="59.0800738335" lon="30.0201845169"><time>2026-04-25T10:02:02Z</time></trkpt><trkpt lat="59.0801382065" lon="30.0201630592"><time>2026-04-25T10:02:04Z</time></trkpt><trkpt lat="59.0801811218" lon="30.0202059746"><time>2026-04-25T10:02:07Z</time></trkpt><trkpt lat="59.0802454948" lon="30.0202703476"><time>2026-04-25T10:02:09Z</time></trkpt><trkpt lat="59.0803313255" lon="30.0203776360"><time>2026-04-25T10:02:12Z</time></trkpt><trkpt lat="59.0803742409" lon="30.0205063820"><time>2026-04-25T10:02:17Z</time></trkpt><trkpt lat="59.0804171562" lon="30.0205278397"><time>2026-04-25T10:02:19Z</time></trkpt><trkpt lat="59.0804386139" lon="30.0204634666"><time>2026-04-25T10:02:22Z</time></trkpt><trkpt lat="59.0804386139" lon="30.0203990936"><time>2026-04-25T10:02:24Z</time></trkpt><trkpt lat="59.0803956985" lon="30.0202918053"><time>2026-04-25T10:02:34Z</time></trkpt><trkpt lat="59.0804171562" lon="30.0202059746"><time>2026-04-25T10:02:37Z</time></trkpt><trkpt lat="59.0804600716" lon="30.0201416016"><time>2026-04-25T10:02:39Z</time></trkpt><trkpt lat="59.0806102753" lon="30.0201201439"><time>2026-04-25T10:03:09Z</time></trkpt><trkpt lat="59.0806961060" lon="30.0198841095"><time>2026-04-25T10:03:39Z</time></trkpt><trkpt lat="59.0806961060" lon="30.0198841095"><time>2026-04-25T10:03:49Z</time></trkpt><trkpt lat="59.0806961060" lon="30.0198841095"><time>2026-04-25T10:03:57Z</time></trkpt><trkpt lat="59.0806961060" lon="30.0198411942"><time>2026-04-25T10:04:07Z</time></trkpt><trkpt lat="59.0806961060" lon="30.0197768211"><time>2026-04-25T10:04:09Z</time></trkpt><trkpt lat="59.0806746483" lon="30.0196909904"><time>2026-04-25T10:04:12Z</time></trkpt><trkpt lat="59.0807175636" lon="30.0194764137"><time>2026-04-25T10:04:29Z</time></trkpt><trkpt lat="59.0807604790" lon="30.0194120407"><time>2026-04-25T10:04:32Z</time></trkpt><trkpt lat="59.0807819366" lon="30.0193476677"><time>2026-04-25T10:04:34Z</time></trkpt><trkpt lat="59.0808033943" lon="30.0192618370"><time>2026-04-25T10:04:37Z</time></trkpt><trkpt lat="59.0808248520" lon="30.0191760063"><time>2026-04-25T10:04:39Z</time></trkpt><trkpt lat="59.0808677673" lon="30.0190472603"><time>2026-04-25T10:04:44Z</time></trkpt><trkpt lat="59.0809321404" lon="30.0188755989"><time>2026-04-25T10:04:49Z</time></trkpt><trkpt lat="59.0811038017" lon="30.0186610222"><time>2026-04-25T10:04:54Z</time></trkpt><trkpt lat="59.0811467171" lon="30.0187897682"><time>2026-04-25T10:05:07Z</time></trkpt><trkpt lat="59.0811252594" lon="30.0188970566"><time>2026-04-25T10:05:09Z</time></trkpt><trkpt lat="59.0811467171" lon="30.0189828873"><time>2026-04-25T10:05:12Z</time></trkpt><trkpt lat="59.0811681747" lon="30.0190687180"><time>2026-04-25T10:05:14Z</time></trkpt><trkpt lat="59.0811467171" lon="30.0192403793"><time>2026-04-25T10:05:17Z</time></trkpt><trkpt lat="59.0811252594" lon="30.0193691254"><time>2026-04-25T10:05:19Z</time></trkpt><trkpt lat="59.0810823441" lon="30.0194978714"><time>2026-04-25T10:05:22Z</time></trkpt><trkpt lat="59.0810394287" lon="30.0195837021"><time>2026-04-25T10:05:24Z</time></trkpt><trkpt lat="59.0809750557" lon="30.0196909904"><time>2026-04-25T10:05:27Z</time></trkpt><trkpt lat="59.0809321404" lon="30.0197553635"><time>2026-04-25T10:05:29Z</time></trkpt><trkpt lat="59.0809535980" lon="30.0199270248"><time>2026-04-25T10:05:42Z</time></trkpt><trkpt lat="59.0810179710" lon="30.0200772285"><time>2026-04-25T10:05:47Z</time></trkpt><trkpt lat="59.0810394287" lon="30.0201416016"><time>2026-04-25T10:05:49Z</time></trkpt><trkpt lat="59.0810394287" lon="30.0202488899"><time>2026-04-25T10:05:52Z</time></trkpt><trkpt lat="59.0810608864" lon="30.0203132629"><time>2026-04-25T10:05:54Z</time></trkpt><trkpt lat="59.0810823441" lon="30.0203776360"><time>2026-04-25T10:05:57Z</time></trkpt><trkpt lat="59.0811038017" lon="30.0203990936"><time>2026-04-25T10:05:59Z</time></trkpt><trkpt lat="59.0811467171" lon="30.0204420090"><time>2026-04-25T10:06:02Z</time></trkpt><trkpt lat="59.0811896324" lon="30.0204849243"><time>2026-04-25T10:06:04Z</time></trkpt><trkpt lat="59.0812325478" lon="30.0205492973"><time>2026-04-25T10:06:07Z</time></trkpt><trkpt lat="59.0812754631" lon="30.0206351280"><time>2026-04-25T10:06:09Z</time></trkpt><trkpt lat="59.0813183784" lon="30.0206565857"><time>2026-04-25T10:06:12Z</time></trkpt><trkpt lat="59.0813398361" lon="30.0205922127"><time>2026-04-25T10:06:14Z</time></trkpt><trkpt lat="59.0813827515" lon="30.0204849243"><time>2026-04-25T10:06:17Z</time></trkpt><trkpt lat="59.0813183784" lon="30.0205492973"><time>2026-04-25T10:06:19Z</time></trkpt><trkpt lat="59.0812325478" lon="30.0205707550"><time>2026-04-25T10:06:22Z</time></trkpt><trkpt lat="59.0811467171" lon="30.0205707550"><time>2026-04-25T10:06:24Z</time></trkpt><trkpt lat="59.0810823441" lon="30.0205278397"><time>2026-04-25T10:06:27Z</time></trkpt><trkpt lat="59.0810608864" lon="30.0204205513"><time>2026-04-25T10:06:29Z</time></trkpt><trkpt lat="59.0810823441" lon="30.0202274323"><time>2026-04-25T10:06:32Z</time></trkpt><trkpt lat="59.0811038017" lon="30.0199913979"><time>2026-04-25T10:06:34Z</time></trkpt><trkpt lat="59.0811681747" lon="30.0197768211"><time>2026-04-25T10:06:39Z</time></trkpt><trkpt lat="59.0812540054" lon="30.0196909904"><time>2026-04-25T10:06:47Z</time></trkpt><trkpt lat="59.0812969208" lon="30.0198197365"><time>2026-04-25T10:06:52Z</time></trkpt><trkpt lat="59.0812540054" lon="30.0197982788"><time>2026-04-25T10:06:54Z</time></trkpt><trkpt lat="59.0812540054" lon="30.0197339058"><time>2026-04-25T10:06:57Z</time></trkpt><trkpt lat="59.0812540054" lon="30.0196266174"><time>2026-04-25T10:06:59Z</time></trkpt><trkpt lat="59.0812969208" lon="30.0195407867"><time>2026-04-25T10:07:02Z</time></trkpt><trkpt lat="59.0813398361" lon="30.0194978714"><time>2026-04-25T10:07:04Z</time></trkpt><trkpt lat="59.0813612938" lon="30.0195622444"><time>2026-04-25T10:07:07Z</time></trkpt><trkpt lat="59.0814256668" lon="30.0195837021"><time>2026-04-25T10:07:09Z</time></trkpt><trkpt lat="59.0815114975" lon="30.0195837021"><time>2026-04-25T10:07:12Z</time></trkpt><trkpt lat="59.0817046165" lon="30.0196480751"><time>2026-04-25T10:07:19Z</time></trkpt><trkpt lat="59.0817689896" lon="30.0197982788"><time>2026-04-25T10:07:29Z</time></trkpt><trkpt lat="59.0818119049" lon="30.0199055672"><time>2026-04-25T10:07:32Z</time></trkpt><trkpt lat="59.0818119049" lon="30.0200343132"><time>2026-04-25T10:07:34Z</time></trkpt><trkpt lat="59.0817689896" lon="30.0201201439"><time>2026-04-25T10:07:37Z</time></trkpt><trkpt lat="59.0817260742" lon="30.0200557709"><time>2026-04-25T10:07:39Z</time></trkpt><trkpt lat="59.0817046165" lon="30.0199270248"><time>2026-04-25T10:07:42Z</time></trkpt><trkpt lat="59.0816831589" lon="30.0197982788"><time>2026-04-25T10:07:44Z</time></trkpt><trkpt lat="59.0816831589" lon="30.0196695328"><time>2026-04-25T10:07:47Z</time></trkpt><trkpt lat="59.0817260742" lon="30.0196480751"><time>2026-04-25T10:07:49Z</time></trkpt><trkpt lat="59.0817689896" lon="30.0195837021"><time>2026-04-25T10:07:52Z</time></trkpt><trkpt lat="59.0817904472" lon="30.0195193291"><time>2026-04-25T10:07:54Z</time></trkpt><trkpt lat="59.0818548203" lon="30.0195193291"><time>2026-04-25T10:07:57Z</time></trkpt><trkpt lat="59.0818977356" lon="30.0195193291"><time>2026-04-25T10:07:59Z</time></trkpt><trkpt lat="59.0818762779" lon="30.0194334984"><time>2026-04-25T10:08:04Z</time></trkpt><trkpt lat="59.0818762779" lon="30.0193476677"><time>2026-04-25T10:08:07Z</time></trkpt><trkpt lat="59.0818762779" lon="30.0193047523"><time>2026-04-25T10:08:09Z</time></trkpt><trkpt lat="59.0819191933" lon="30.0193047523"><time>2026-04-25T10:08:12Z</time></trkpt><trkpt lat="59.0819621086" lon="30.0193691254"><time>2026-04-25T10:08:17Z</time></trkpt><trkpt lat="59.0819835663" lon="30.0194334984"><time>2026-04-25T10:08:19Z</time></trkpt><trkpt lat="59.0820479393" lon="30.0194764137"><time>2026-04-25T10:08:29Z</time></trkpt><trkpt lat="59.0820693970" lon="30.0194334984"><time>2026-04-25T10:08:32Z</time></trkpt><trkpt lat="59.0820908546" lon="30.0194334984"><time>2026-04-25T10:08:34Z</time></trkpt><trkpt lat="59.0821337700" lon="30.0194120407"><time>2026-04-25T10:08:37Z</time></trkpt><trkpt lat="59.0821337700" lon="30.0193691254"><time>2026-04-25T10:08:39Z</time></trkpt><trkpt lat="59.0821123123" lon="30.0193262100"><time>2026-04-25T10:08:42Z</time></trkpt><trkpt lat="59.0820908546" lon="30.0192832947"><time>2026-04-25T10:08:44Z</time></trkpt><trkpt lat="59.0820693970" lon="30.0193047523"><time>2026-04-25T10:08:47Z</time></trkpt><trkpt lat="59.0821337700" lon="30.0192189217"><time>2026-04-25T10:08:52Z</time></trkpt><trkpt lat="59.0821552277" lon="30.0191545486"><time>2026-04-25T10:08:54Z</time></trkpt><trkpt lat="59.0821766853" lon="30.0190472603"><time>2026-04-25T10:08:57Z</time></trkpt><trkpt lat="59.0822196007" lon="30.0190258026"><time>2026-04-25T10:08:59Z</time></trkpt><trkpt lat="59.0821766853" lon="30.0191330910"><time>2026-04-25T10:09:04Z</time></trkpt><trkpt lat="59.0821981430" lon="30.0192189217"><time>2026-04-25T10:09:07Z</time></trkpt><trkpt lat="59.0822196007" lon="30.0192832947"><time>2026-04-25T10:09:09Z</time></trkpt><trkpt lat="59.0822625160" lon="30.0192618370"><time>2026-04-25T10:09:12Z</time></trkpt><trkpt lat="59.0823054314" lon="30.0192403793"><time>2026-04-25T10:09:14Z</time></trkpt><trkpt lat="59.0823268890" lon="30.0192403793"><time>2026-04-25T10:09:17Z</time></trkpt><trkpt lat="59.0823483467" lon="30.0192403793"><time>2026-04-25T10:09:22Z</time></trkpt><trkpt lat="59.0824127197" lon="30.0189614296"><time>2026-04-25T10:09:47Z</time></trkpt><trkpt lat="59.0824556351" lon="30.0189614296"><time>2026-04-25T10:09:49Z</time></trkpt><trkpt lat="59.0825200081" lon="30.0190472603"><time>2026-04-25T10:10:12Z</time></trkpt><trkpt lat="59.0824770927" lon="30.0190901756"><time>2026-04-25T10:10:14Z</time></trkpt><trkpt lat="59.0824556351" lon="30.0191760063"><time>2026-04-25T10:10:17Z</time></trkpt><trkpt lat="59.0824127197" lon="30.0192403793"><time>2026-04-25T10:10:19Z</time></trkpt><trkpt lat="59.0824127197" lon="30.0191974640"><time>2026-04-25T10:10:39Z</time></trkpt><trkpt lat="59.0824341774" lon="30.0191974640"><time>2026-04-25T10:10:54Z</time></trkpt><trkpt lat="59.0824127197" lon="30.0192618370"><time>2026-04-25T10:10:59Z</time></trkpt><trkpt lat="59.0823912621" lon="30.0193476677"><time>2026-04-25T10:11:02Z</time></trkpt><trkpt lat="59.0823483467" lon="30.0193476677"><time>2026-04-25T10:11:04Z</time></trkpt><trkpt lat="59.0823054314" lon="30.0193691254"><time>2026-04-25T10:11:07Z</time></trkpt><trkpt lat="59.0822625160" lon="30.0193905830"><time>2026-04-25T10:11:09Z</time></trkpt><trkpt lat="59.0822625160" lon="30.0194120407"><time>2026-04-25T10:11:19Z</time></trkpt><trkpt lat="59.0822625160" lon="30.0194334984"><time>2026-04-25T10:11:34Z</time></trkpt><trkpt lat="59.0822625160" lon="30.0195193291"><time>2026-04-25T10:11:37Z</time></trkpt><trkpt lat="59.0822196007" lon="30.0196051598"><time>2026-04-25T10:11:42Z</time></trkpt><trkpt lat="59.0821766853" lon="30.0196266174"><time>2026-04-25T10:11:44Z</time></trkpt><trkpt lat="59.0822196007" lon="30.0196266174"><time>2026-04-25T10:11:47Z</time></trkpt><trkpt lat="59.0822839737" lon="30.0196266174"><time>2026-04-25T10:11:49Z</time></trkpt><trkpt lat="59.0823268890" lon="30.0196695328"><time>2026-04-25T10:11:52Z</time></trkpt><trkpt lat="59.0822625160" lon="30.0197339058"><time>2026-04-25T10:11:57Z</time></trkpt><trkpt lat="59.0822196007" lon="30.0197339058"><time>2026-04-25T10:11:59Z</time></trkpt><trkpt lat="59.0821766853" lon="30.0197768211"><time>2026-04-25T10:12:02Z</time></trkpt><trkpt lat="59.0821552277" lon="30.0198197365"><time>2026-04-25T10:12:04Z</time></trkpt><trkpt lat="59.0821552277" lon="30.0198841095"><time>2026-04-25T10:12:07Z</time></trkpt><trkpt lat="59.0821552277" lon="30.0199484825"><time>2026-04-25T10:12:09Z</time></trkpt><trkpt lat="59.0821981430" lon="30.0199699402"><time>2026-04-25T10:12:12Z</time></trkpt><trkpt lat="59.0822196007" lon="30.0199484825"><time>2026-04-25T10:12:14Z</time></trkpt><trkpt lat="59.0822410583" lon="30.0200128555"><time>2026-04-25T10:12:17Z</time></trkpt><trkpt lat="59.0822625160" lon="30.0200986862"><time>2026-04-25T10:12:22Z</time></trkpt><trkpt lat="59.0822625160" lon="30.0201630592"><time>2026-04-25T10:12:24Z</time></trkpt><trkpt lat="59.0822839737" lon="30.0202488899"><time>2026-04-25T10:12:47Z</time></trkpt><trkpt lat="59.0822625160" lon="30.0202918053"><time>2026-04-25T10:12:49Z</time></trkpt><trkpt lat="59.0822196007" lon="30.0202918053"><time>2026-04-25T10:12:52Z</time></trkpt><trkpt lat="59.0821981430" lon="30.0204205513"><time>2026-04-25T10:13:07Z</time></trkpt><trkpt lat="59.0821981430" lon="30.0204420090"><time>2026-04-25T10:13:24Z</time></trkpt><trkpt lat="59.0822196007" lon="30.0205063820"><time>2026-04-25T10:13:27Z</time></trkpt><trkpt lat="59.0822196007" lon="30.0205707550"><time>2026-04-25T10:13:29Z</time></trkpt><trkpt lat="59.0822196007" lon="30.0205707550"><time>2026-04-25T10:13:32Z</time></trkpt><trkpt lat="59.0822410583" lon="30.0205063820"><time>2026-04-25T10:13:34Z</time></trkpt><trkpt lat="59.0822839737" lon="30.0205063820"><time>2026-04-25T10:13:37Z</time></trkpt><trkpt lat="59.0823054314" lon="30.0205492973"><time>2026-04-25T10:13:39Z</time></trkpt><trkpt lat="59.0823268890" lon="30.0205492973"><time>2026-04-25T10:13:42Z</time></trkpt><trkpt lat="59.0823054314" lon="30.0205278397"><time>2026-04-25T10:14:02Z</time></trkpt><trkpt lat="59.0823054314" lon="30.0205278397"><time>2026-04-25T10:14:32Z</time></trkpt><trkpt lat="59.0823268890" lon="30.0204849243"><time>2026-04-25T10:14:59Z</time></trkpt><trkpt lat="59.0823054314" lon="30.0205063820"><time>2026-04-25T10:15:02Z</time></trkpt><trkpt lat="59.0822410583" lon="30.0205278397"><time>2026-04-25T10:15:04Z</time></trkpt><trkpt lat="59.0822196007" lon="30.0205278397"><time>2026-04-25T10:15:07Z</time></trkpt><trkpt lat="59.0822196007" lon="30.0204634666"><time>2026-04-25T10:15:09Z</time></trkpt><trkpt lat="59.0821981430" lon="30.0204420090"><time>2026-04-25T10:15:12Z</time></trkpt><trkpt lat="59.0821981430" lon="30.0203561783"><time>2026-04-25T10:15:14Z</time></trkpt><trkpt lat="59.0822196007" lon="30.0202703476"><time>2026-04-25T10:15:24Z</time></trkpt><trkpt lat="59.0822410583" lon="30.0202488899"><time>2026-04-25T10:15:37Z</time></trkpt><trkpt lat="59.0822625160" lon="30.0201630592"><time>2026-04-25T10:15:39Z</time></trkpt><trkpt lat="59.0822625160" lon="30.0200343132"><time>2026-04-25T10:15:42Z</time></trkpt><trkpt lat="59.0822839737" lon="30.0199484825"><time>2026-04-25T10:15:44Z</time></trkpt><trkpt lat="59.0822625160" lon="30.0199055672"><time>2026-04-25T10:15:52Z</time></trkpt><trkpt lat="59.0823054314" lon="30.0198197365"><time>2026-04-25T10:15:54Z</time></trkpt><trkpt lat="59.0822839737" lon="30.0196909904"><time>2026-04-25T10:16:07Z</time></trkpt><trkpt lat="59.0822410583" lon="30.0196695328"><time>2026-04-25T10:16:09Z</time></trkpt><trkpt lat="59.0822410583" lon="30.0196695328"><time>2026-04-25T10:16:22Z</time></trkpt><trkpt lat="59.0822410583" lon="30.0195622444"><time>2026-04-25T10:16:24Z</time></trkpt><trkpt lat="59.0822625160" lon="30.0194764137"><time>2026-04-25T10:16:27Z</time></trkpt><trkpt lat="59.0822625160" lon="30.0194334984"><time>2026-04-25T10:16:29Z</time></trkpt><trkpt lat="59.0822839737" lon="30.0192618370"><time>2026-04-25T10:16:44Z</time></trkpt><trkpt lat="59.0823054314" lon="30.0192618370"><time>2026-04-25T10:16:54Z</time></trkpt><trkpt lat="59.0822839737" lon="30.0193047523"><time>2026-04-25T10:17:07Z</time></trkpt><trkpt lat="59.0822839737" lon="30.0194549561"><time>2026-04-25T10:17:12Z</time></trkpt><trkpt lat="59.0822839737" lon="30.0196480751"><time>2026-04-25T10:17:14Z</time></trkpt><trkpt lat="59.0823268890" lon="30.0197982788"><time>2026-04-25T10:17:17Z</time></trkpt><trkpt lat="59.0823483467" lon="30.0198626518"><time>2026-04-25T10:17:19Z</time></trkpt><trkpt lat="59.0823268890" lon="30.0196695328"><time>2026-04-25T10:17:42Z</time></trkpt><trkpt lat="59.0823268890" lon="30.0195622444"><time>2026-04-25T10:17:44Z</time></trkpt><trkpt lat="59.0823483467" lon="30.0195622444"><time>2026-04-25T10:17:47Z</time></trkpt><trkpt lat="59.0822625160" lon="30.0195193291"><time>2026-04-25T10:17:49Z</time></trkpt><trkpt lat="59.0822625160" lon="30.0195622444"><time>2026-04-25T10:17:52Z</time></trkpt><trkpt lat="59.0822625160" lon="30.0194549561"><time>2026-04-25T10:17:54Z</time></trkpt><trkpt lat="59.0823268890" lon="30.0192832947"><time>2026-04-25T10:18:04Z</time></trkpt><trkpt lat="59.0824127197" lon="30.0192832947"><time>2026-04-25T10:18:14Z</time></trkpt><trkpt lat="59.0824341774" lon="30.0193047523"><time>2026-04-25T10:18:19Z</time></trkpt><trkpt lat="59.0824770927" lon="30.0193476677"><time>2026-04-25T10:18:27Z</time></trkpt><trkpt lat="59.0824985504" lon="30.0193905830"><time>2026-04-25T10:18:29Z</time></trkpt><trkpt lat="59.0824341774" lon="30.0192618370"><time>2026-04-25T10:18:32Z</time></trkpt><trkpt lat="59.0825200081" lon="30.0190901756"><time>2026-04-25T10:18:49Z</time></trkpt><trkpt lat="59.0824770927" lon="30.0191116333"><time>2026-04-25T10:19:17Z</time></trkpt><trkpt lat="59.0825414658" lon="30.0191545486"><time>2026-04-25T10:19:22Z</time></trkpt><trkpt lat="59.0825629234" lon="30.0191760063"><time>2026-04-25T10:19:32Z</time></trkpt><trkpt lat="59.0826058388" lon="30.0191974640"><time>2026-04-25T10:19:47Z</time></trkpt><trkpt lat="59.0826487541" lon="30.0191760063"><time>2026-04-25T10:19:49Z</time></trkpt><trkpt lat="59.0826487541" lon="30.0192618370"><time>2026-04-25T10:20:12Z</time></trkpt><trkpt lat="59.0826487541" lon="30.0192618370"><time>2026-04-25T10:20:24Z</time></trkpt><trkpt lat="59.0827131271" lon="30.0191974640"><time>2026-04-25T10:20:49Z</time></trkpt><trkpt lat="59.0827345848" lon="30.0192618370"><time>2026-04-25T10:20:57Z</time></trkpt><trkpt lat="59.0827775002" lon="30.0192403793"><time>2026-04-25T10:21:02Z</time></trkpt><trkpt lat="59.0827775002" lon="30.0191545486"><time>2026-04-25T10:21:04Z</time></trkpt><trkpt lat="59.0828204155" lon="30.0191330910"><time>2026-04-25T10:21:07Z</time></trkpt><trkpt lat="59.0828418732" lon="30.0191545486"><time>2026-04-25T10:21:09Z</time></trkpt><trkpt lat="59.0828633308" lon="30.0191760063"><time>2026-04-25T10:21:19Z</time></trkpt><trkpt lat="59.0828847885" lon="30.0191330910"><time>2026-04-25T10:21:24Z</time></trkpt><trkpt lat="59.0829277039" lon="30.0191116333"><time>2026-04-25T10:21:27Z</time></trkpt><trkpt lat="59.0829491615" lon="30.0190472603"><time>2026-04-25T10:21:42Z</time></trkpt><trkpt lat="59.0829706192" lon="30.0190258026"><time>2026-04-25T10:21:44Z</time></trkpt><trkpt lat="59.0829920769" lon="30.0190043449"><time>2026-04-25T10:21:47Z</time></trkpt><trkpt lat="59.0829920769" lon="30.0189828873"><time>2026-04-25T10:21:52Z</time></trkpt><trkpt lat="59.0830135345" lon="30.0189614296"><time>2026-04-25T10:21:54Z</time></trkpt><trkpt lat="59.0830564499" lon="30.0189399719"><time>2026-04-25T10:21:59Z</time></trkpt><trkpt lat="59.0831208229" lon="30.0189399719"><time>2026-04-25T10:22:12Z</time></trkpt><trkpt lat="59.0831637383" lon="30.0189399719"><time>2026-04-25T10:22:14Z</time></trkpt><trkpt lat="59.0831422806" lon="30.0189828873"><time>2026-04-25T10:22:19Z</time></trkpt><trkpt lat="59.0831637383" lon="30.0190043449"><time>2026-04-25T10:22:22Z</time></trkpt><trkpt lat="59.0832066536" lon="30.0190043449"><time>2026-04-25T10:22:24Z</time></trkpt><trkpt lat="59.0832281113" lon="30.0189828873"><time>2026-04-25T10:22:27Z</time></trkpt><trkpt lat="59.0832495689" lon="30.0189828873"><time>2026-04-25T10:22:29Z</time></trkpt><trkpt lat="59.0832710266" lon="30.0189399719"><time>2026-04-25T10:22:32Z</time></trkpt><trkpt lat="59.0833568573" lon="30.0188755989"><time>2026-04-25T10:22:47Z</time></trkpt><trkpt lat="59.0833783150" lon="30.0187897682"><time>2026-04-25T10:22:49Z</time></trkpt><trkpt lat="59.0833997726" lon="30.0187253952"><time>2026-04-25T10:22:52Z</time></trkpt><trkpt lat="59.0833783150" lon="30.0186824799"><time>2026-04-25T10:22:54Z</time></trkpt><trkpt lat="59.0834426880" lon="30.0186395645"><time>2026-04-25T10:23:02Z</time></trkpt><trkpt lat="59.0834641457" lon="30.0187039375"><time>2026-04-25T10:23:07Z</time></trkpt><trkpt lat="59.0834856033" lon="30.0187897682"><time>2026-04-25T10:23:09Z</time></trkpt><trkpt lat="59.0834856033" lon="30.0188112259"><time>2026-04-25T10:23:12Z</time></trkpt><trkpt lat="59.0835070610" lon="30.0187897682"><time>2026-04-25T10:23:14Z</time></trkpt><trkpt lat="59.0835499763" lon="30.0188112259"><time>2026-04-25T10:23:17Z</time></trkpt><trkpt lat="59.0835928917" lon="30.0188541412"><time>2026-04-25T10:23:19Z</time></trkpt><trkpt lat="59.0836143494" lon="30.0188970566"><time>2026-04-25T10:23:22Z</time></trkpt><trkpt lat="59.0836572647" lon="30.0188755989"><time>2026-04-25T10:23:24Z</time></trkpt><trkpt lat="59.0837001801" lon="30.0189185143"><time>2026-04-25T10:23:27Z</time></trkpt><trkpt lat="59.0837430954" lon="30.0188970566"><time>2026-04-25T10:23:29Z</time></trkpt><trkpt lat="59.0837645531" lon="30.0188755989"><time>2026-04-25T10:23:32Z</time></trkpt><trkpt lat="59.0837430954" lon="30.0189399719"><time>2026-04-25T10:23:37Z</time></trkpt><trkpt lat="59.0837645531" lon="30.0189614296"><time>2026-04-25T10:23:39Z</time></trkpt><trkpt lat="59.0837860107" lon="30.0189399719"><time>2026-04-25T10:23:42Z</time></trkpt><trkpt lat="59.0837860107" lon="30.0188755989"><time>2026-04-25T10:23:44Z</time></trkpt><trkpt lat="59.0837645531" lon="30.0188755989"><time>2026-04-25T10:23:47Z</time></trkpt><trkpt lat="59.0837860107" lon="30.0188326836"><time>2026-04-25T10:23:59Z</time></trkpt><trkpt lat="59.0838289261" lon="30.0188326836"><time>2026-04-25T10:24:02Z</time></trkpt><trkpt lat="59.0838503838" lon="30.0188326836"><time>2026-04-25T10:24:04Z</time></trkpt><trkpt lat="59.0838932991" lon="30.0188112259"><time>2026-04-25T10:24:07Z</time></trkpt><trkpt lat="59.0839147568" lon="30.0188112259"><time>2026-04-25T10:24:09Z</time></trkpt><trkpt lat="59.0839576721" lon="30.0188326836"><time>2026-04-25T10:24:12Z</time></trkpt><trkpt lat="59.0839791298" lon="30.0188541412"><time>2026-04-25T10:24:14Z</time></trkpt><trkpt lat="59.0840220451" lon="30.0188541412"><time>2026-04-25T10:24:17Z</time></trkpt><trkpt lat="59.0840220451" lon="30.0187897682"><time>2026-04-25T10:24:19Z</time></trkpt><trkpt lat="59.0840005875" lon="30.0188112259"><time>2026-04-25T10:24:22Z</time></trkpt><trkpt lat="59.0840220451" lon="30.0188970566"><time>2026-04-25T10:24:24Z</time></trkpt><trkpt lat="59.0840220451" lon="30.0189614296"><time>2026-04-25T10:24:27Z</time></trkpt><trkpt lat="59.0840005875" lon="30.0189828873"><time>2026-04-25T10:24:29Z</time></trkpt><trkpt lat="59.0839791298" lon="30.0189399719"><time>2026-04-25T10:24:32Z</time></trkpt><trkpt lat="59.0839362144" lon="30.0189399719"><time>2026-04-25T10:24:34Z</time></trkpt><trkpt lat="59.0839147568" lon="30.0188755989"><time>2026-04-25T10:24:37Z</time></trkpt><trkpt lat="59.0839576721" lon="30.0188326836"><time>2026-04-25T10:24:39Z</time></trkpt><trkpt lat="59.0839791298" lon="30.0187039375"><time>2026-04-25T10:24:42Z</time></trkpt><trkpt lat="59.0839791298" lon="30.0185322762"><time>2026-04-25T10:24:44Z</time></trkpt><trkpt lat="59.0840220451" lon="30.0184249878"><time>2026-04-25T10:24:49Z</time></trkpt><trkpt lat="59.0840649605" lon="30.0184035301"><time>2026-04-25T10:24:52Z</time></trkpt><trkpt lat="59.0840649605" lon="30.0183606148"><time>2026-04-25T10:24:54Z</time></trkpt><trkpt lat="59.0840649605" lon="30.0182962418"><time>2026-04-25T10:25:02Z</time></trkpt><trkpt lat="59.0840864182" lon="30.0182747841"><time>2026-04-25T10:25:04Z</time></trkpt><trkpt lat="59.0841078758" lon="30.0183176994"><time>2026-04-25T10:25:07Z</time></trkpt><trkpt lat="59.0841507912" lon="30.0183606148"><time>2026-04-25T10:25:09Z</time></trkpt><trkpt lat="59.0842580795" lon="30.0184249878"><time>2026-04-25T10:25:27Z</time></trkpt><trkpt lat="59.0842580795" lon="30.0184679031"><time>2026-04-25T10:25:29Z</time></trkpt><trkpt lat="59.0842580795" lon="30.0184464455"><time>2026-04-25T10:25:57Z</time></trkpt><trkpt lat="59.0842580795" lon="30.0184464455"><time>2026-04-25T10:26:09Z</time></trkpt><trkpt lat="59.0842580795" lon="30.0184464455"><time>2026-04-25T10:26:27Z</time></trkpt><trkpt lat="59.0842580795" lon="30.0184035301"><time>2026-04-25T10:26:34Z</time></trkpt><trkpt lat="59.0842580795" lon="30.0184035301"><time>2026-04-25T10:27:04Z</time></trkpt><trkpt lat="59.0842366219" lon="30.0184035301"><time>2026-04-25T10:27:12Z</time></trkpt><trkpt lat="59.0842151642" lon="30.0184679031"><time>2026-04-25T10:27:42Z</time></trkpt><trkpt lat="59.0842151642" lon="30.0184679031"><time>2026-04-25T10:28:12Z</time></trkpt><trkpt lat="59.0842151642" lon="30.0184679031"><time>2026-04-25T10:28:42Z</time></trkpt><trkpt lat="59.0842151642" lon="30.0184679031"><time>2026-04-25T10:29:12Z</time></trkpt><trkpt lat="59.0841937065" lon="30.0184679031"><time>2026-04-25T10:29:42Z</time></trkpt><trkpt lat="59.0841937065" lon="30.0184679031"><time>2026-04-25T10:30:12Z</time></trkpt><trkpt lat="59.0841937065" lon="30.0184679031"><time>2026-04-25T10:30:42Z</time></trkpt><trkpt lat="59.0842366219" lon="30.0184035301"><time>2026-04-25T10:31:12Z</time></trkpt><trkpt lat="59.0842366219" lon="30.0183606148"><time>2026-04-25T10:31:14Z</time></trkpt><trkpt lat="59.0842580795" lon="30.0184249878"><time>2026-04-25T10:31:22Z</time></trkpt><trkpt lat="59.0842366219" lon="30.0183391571"><time>2026-04-25T10:31:47Z</time></trkpt><trkpt lat="59.0842366219" lon="30.0182747841"><time>2026-04-25T10:31:49Z</time></trkpt><trkpt lat="59.0842151642" lon="30.0182533264"><time>2026-04-25T10:31:52Z</time></trkpt><trkpt lat="59.0842151642" lon="30.0182104111"><time>2026-04-25T10:31:54Z</time></trkpt><trkpt lat="59.0842366219" lon="30.0181674957"><time>2026-04-25T10:31:57Z</time></trkpt><trkpt lat="59.0842366219" lon="30.0181460381"><time>2026-04-25T10:31:59Z</time></trkpt><trkpt lat="59.0842151642" lon="30.0180387497"><time>2026-04-25T10:32:09Z</time></trkpt><trkpt lat="59.0842151642" lon="30.0179529190"><time>2026-04-25T10:32:12Z</time></trkpt><trkpt lat="59.0841937065" lon="30.0178670883"><time>2026-04-25T10:32:14Z</time></trkpt><trkpt lat="59.0841937065" lon="30.0178456306"><time>2026-04-25T10:32:22Z</time></trkpt><trkpt lat="59.0842151642" lon="30.0179958344"><time>2026-04-25T10:32:24Z</time></trkpt><trkpt lat="59.0841507912" lon="30.0180387497"><time>2026-04-25T10:32:27Z</time></trkpt><trkpt lat="59.0841293335" lon="30.0179958344"><time>2026-04-25T10:32:29Z</time></trkpt><trkpt lat="59.0841722488" lon="30.0179958344"><time>2026-04-25T10:32:34Z</time></trkpt><trkpt lat="59.0841937065" lon="30.0179743767"><time>2026-04-25T10:32:37Z</time></trkpt><trkpt lat="59.0841722488" lon="30.0179100037"><time>2026-04-25T10:32:44Z</time></trkpt><trkpt lat="59.0841078758" lon="30.0178241730"><time>2026-04-25T10:32:47Z</time></trkpt><trkpt lat="59.0840864182" lon="30.0177383423"><time>2026-04-25T10:32:49Z</time></trkpt><trkpt lat="59.0841293335" lon="30.0177598000"><time>2026-04-25T10:32:52Z</time></trkpt><trkpt lat="59.0841937065" lon="30.0177383423"><time>2026-04-25T10:32:54Z</time></trkpt><trkpt lat="59.0842366219" lon="30.0178456306"><time>2026-04-25T10:33:07Z</time></trkpt><trkpt lat="59.0842366219" lon="30.0179100037"><time>2026-04-25T10:33:09Z</time></trkpt><trkpt lat="59.0842151642" lon="30.0178027153"><time>2026-04-25T10:33:39Z</time></trkpt><trkpt lat="59.0841937065" lon="30.0176954269"><time>2026-04-25T10:33:52Z</time></trkpt><trkpt lat="59.0841722488" lon="30.0176095963"><time>2026-04-25T10:33:54Z</time></trkpt><trkpt lat="59.0841722488" lon="30.0175237656"><time>2026-04-25T10:33:57Z</time></trkpt><trkpt lat="59.0841507912" lon="30.0174593925"><time>2026-04-25T10:33:59Z</time></trkpt><trkpt lat="59.0841507912" lon="30.0174379349"><time>2026-04-25T10:34:29Z</time></trkpt><trkpt lat="59.0841293335" lon="30.0173735619"><time>2026-04-25T10:34:52Z</time></trkpt><trkpt lat="59.0841078758" lon="30.0172877312"><time>2026-04-25T10:34:54Z</time></trkpt><trkpt lat="59.0840864182" lon="30.0171589851"><time>2026-04-25T10:34:59Z</time></trkpt><trkpt lat="59.0840864182" lon="30.0171160698"><time>2026-04-25T10:35:02Z</time></trkpt><trkpt lat="59.0840649605" lon="30.0169873238"><time>2026-04-25T10:35:07Z</time></trkpt><trkpt lat="59.0840435028" lon="30.0169014931"><time>2026-04-25T10:35:14Z</time></trkpt><trkpt lat="59.0840220451" lon="30.0167727470"><time>2026-04-25T10:35:19Z</time></trkpt><trkpt lat="59.0840220451" lon="30.0167083740"><time>2026-04-25T10:35:29Z</time></trkpt><trkpt lat="59.0840435028" lon="30.0165152550"><time>2026-04-25T10:35:37Z</time></trkpt><trkpt lat="59.0840435028" lon="30.0164294243"><time>2026-04-25T10:35:39Z</time></trkpt><trkpt lat="59.0840435028" lon="30.0164079666"><time>2026-04-25T10:35:47Z</time></trkpt><trkpt lat="59.0840220451" lon="30.0162792206"><time>2026-04-25T10:35:54Z</time></trkpt><trkpt lat="59.0840220451" lon="30.0162363052"><time>2026-04-25T10:35:57Z</time></trkpt><trkpt lat="59.0839576721" lon="30.0158715248"><time>2026-04-25T10:36:14Z</time></trkpt><trkpt lat="59.0838932991" lon="30.0158071518"><time>2026-04-25T10:36:19Z</time></trkpt><trkpt lat="59.0838718414" lon="30.0158929825"><time>2026-04-25T10:36:22Z</time></trkpt><trkpt lat="59.0838718414" lon="30.0160002708"><time>2026-04-25T10:36:24Z</time></trkpt><trkpt lat="59.0839147568" lon="30.0161075592"><time>2026-04-25T10:36:27Z</time></trkpt><trkpt lat="59.0839791298" lon="30.0161075592"><time>2026-04-25T10:36:29Z</time></trkpt><trkpt lat="59.0840005875" lon="30.0160431862"><time>2026-04-25T10:36:32Z</time></trkpt><trkpt lat="59.0839791298" lon="30.0159788132"><time>2026-04-25T10:36:34Z</time></trkpt><trkpt lat="59.0839576721" lon="30.0158500671"><time>2026-04-25T10:36:37Z</time></trkpt><trkpt lat="59.0839147568" lon="30.0154423714"><time>2026-04-25T10:36:49Z</time></trkpt><trkpt lat="59.0839147568" lon="30.0153994560"><time>2026-04-25T10:36:54Z</time></trkpt><trkpt lat="59.0838932991" lon="30.0153136253"><time>2026-04-25T10:36:57Z</time></trkpt><trkpt lat="59.0838932991" lon="30.0152277946"><time>2026-04-25T10:36:59Z</time></trkpt><trkpt lat="59.0838503838" lon="30.0151419640"><time>2026-04-25T10:37:02Z</time></trkpt><trkpt lat="59.0838503838" lon="30.0150775909"><time>2026-04-25T10:37:14Z</time></trkpt><trkpt lat="59.0838503838" lon="30.0149703026"><time>2026-04-25T10:37:17Z</time></trkpt><trkpt lat="59.0838289261" lon="30.0149273872"><time>2026-04-25T10:37:19Z</time></trkpt><trkpt lat="59.0838718414" lon="30.0151205063"><time>2026-04-25T10:37:27Z</time></trkpt><trkpt lat="59.0838932991" lon="30.0152277946"><time>2026-04-25T10:37:29Z</time></trkpt><trkpt lat="59.0839147568" lon="30.0153779984"><time>2026-04-25T10:37:32Z</time></trkpt><trkpt lat="59.0839147568" lon="30.0154852867"><time>2026-04-25T10:37:37Z</time></trkpt><trkpt lat="59.0838718414" lon="30.0155282021"><time>2026-04-25T10:37:39Z</time></trkpt><trkpt lat="59.0839147568" lon="30.0156998634"><time>2026-04-25T10:37:42Z</time></trkpt><trkpt lat="59.0839362144" lon="30.0158071518"><time>2026-04-25T10:37:44Z</time></trkpt><trkpt lat="59.0839147568" lon="30.0158500671"><time>2026-04-25T10:37:52Z</time></trkpt><trkpt lat="59.0839147568" lon="30.0157427788"><time>2026-04-25T10:37:54Z</time></trkpt><trkpt lat="59.0839147568" lon="30.0156569481"><time>2026-04-25T10:37:57Z</time></trkpt><trkpt lat="59.0839147568" lon="30.0156140327"><time>2026-04-25T10:37:59Z</time></trkpt><trkpt lat="59.0839147568" lon="30.0157213211"><time>2026-04-25T10:38:24Z</time></trkpt><trkpt lat="59.0838503838" lon="30.0157427788"><time>2026-04-25T10:38:27Z</time></trkpt><trkpt lat="59.0838074684" lon="30.0157856941"><time>2026-04-25T10:38:29Z</time></trkpt><trkpt lat="59.0837860107" lon="30.0158715248"><time>2026-04-25T10:38:34Z</time></trkpt><trkpt lat="59.0837645531" lon="30.0158929825"><time>2026-04-25T10:38:37Z</time></trkpt><trkpt lat="59.0837430954" lon="30.0159358978"><time>2026-04-25T10:38:39Z</time></trkpt><trkpt lat="59.0837001801" lon="30.0160217285"><time>2026-04-25T10:38:42Z</time></trkpt><trkpt lat="59.0836787224" lon="30.0161075592"><time>2026-04-25T10:38:44Z</time></trkpt><trkpt lat="59.0836787224" lon="30.0161290169"><time>2026-04-25T10:38:47Z</time></trkpt><trkpt lat="59.0836358070" lon="30.0161719322"><time>2026-04-25T10:38:49Z</time></trkpt><trkpt lat="59.0835928917" lon="30.0161290169"><time>2026-04-25T10:38:52Z</time></trkpt><trkpt lat="59.0835499763" lon="30.0160861015"><time>2026-04-25T10:38:54Z</time></trkpt><trkpt lat="59.0835070610" lon="30.0161075592"><time>2026-04-25T10:38:57Z</time></trkpt><trkpt lat="59.0835070610" lon="30.0160002708"><time>2026-04-25T10:39:04Z</time></trkpt><trkpt lat="59.0835499763" lon="30.0159788132"><time>2026-04-25T10:39:07Z</time></trkpt><trkpt lat="59.0834641457" lon="30.0160217285"><time>2026-04-25T10:39:12Z</time></trkpt><trkpt lat="59.0833997726" lon="30.0160431862"><time>2026-04-25T10:39:14Z</time></trkpt><trkpt lat="59.0833997726" lon="30.0161290169"><time>2026-04-25T10:39:17Z</time></trkpt><trkpt lat="59.0833997726" lon="30.0160646439"><time>2026-04-25T10:39:24Z</time></trkpt><trkpt lat="59.0834426880" lon="30.0160002708"><time>2026-04-25T10:39:27Z</time></trkpt><trkpt lat="59.0834856033" lon="30.0159788132"><time>2026-04-25T10:39:29Z</time></trkpt><trkpt lat="59.0835070610" lon="30.0160217285"><time>2026-04-25T10:39:49Z</time></trkpt><trkpt lat="59.0835070610" lon="30.0161290169"><time>2026-04-25T10:39:57Z</time></trkpt><trkpt lat="59.0834641457" lon="30.0162363052"><time>2026-04-25T10:40:24Z</time></trkpt><trkpt lat="59.0834426880" lon="30.0162577629"><time>2026-04-25T10:40:27Z</time></trkpt><trkpt lat="59.0833783150" lon="30.0161504745"><time>2026-04-25T10:40:37Z</time></trkpt><trkpt lat="59.0833783150" lon="30.0160861015"><time>2026-04-25T10:40:39Z</time></trkpt><trkpt lat="59.0833997726" lon="30.0160431862"><time>2026-04-25T10:40:42Z</time></trkpt><trkpt lat="59.0834641457" lon="30.0160002708"><time>2026-04-25T10:40:44Z</time></trkpt><trkpt lat="59.0835070610" lon="30.0160002708"><time>2026-04-25T10:40:47Z</time></trkpt><trkpt lat="59.0835285187" lon="30.0160431862"><time>2026-04-25T10:40:49Z</time></trkpt><trkpt lat="59.0835499763" lon="30.0160646439"><time>2026-04-25T10:40:52Z</time></trkpt><trkpt lat="59.0835714340" lon="30.0161290169"><time>2026-04-25T10:40:54Z</time></trkpt><trkpt lat="59.0835499763" lon="30.0161933899"><time>2026-04-25T10:40:57Z</time></trkpt><trkpt lat="59.0835285187" lon="30.0162363052"><time>2026-04-25T10:40:59Z</time></trkpt><trkpt lat="59.0835070610" lon="30.0162577629"><time>2026-04-25T10:41:02Z</time></trkpt><trkpt lat="59.0835070610" lon="30.0163221359"><time>2026-04-25T10:41:04Z</time></trkpt><trkpt lat="59.0834856033" lon="30.0164294243"><time>2026-04-25T10:41:07Z</time></trkpt><trkpt lat="59.0834641457" lon="30.0165367126"><time>2026-04-25T10:41:09Z</time></trkpt><trkpt lat="59.0834212303" lon="30.0166010857"><time>2026-04-25T10:41:12Z</time></trkpt><trkpt lat="59.0834212303" lon="30.0165796280"><time>2026-04-25T10:41:14Z</time></trkpt><trkpt lat="59.0834426880" lon="30.0164937973"><time>2026-04-25T10:41:17Z</time></trkpt><trkpt lat="59.0834641457" lon="30.0163865089"><time>2026-04-25T10:41:19Z</time></trkpt><trkpt lat="59.0834641457" lon="30.0163650513"><time>2026-04-25T10:41:37Z</time></trkpt><trkpt lat="59.0834641457" lon="30.0163650513"><time>2026-04-25T10:42:07Z</time></trkpt><trkpt lat="59.0834641457" lon="30.0163865089"><time>2026-04-25T10:42:24Z</time></trkpt><trkpt lat="59.0835070610" lon="30.0164294243"><time>2026-04-25T10:42:27Z</time></trkpt><trkpt lat="59.0835285187" lon="30.0164723396"><time>2026-04-25T10:42:29Z</time></trkpt><trkpt lat="59.0835285187" lon="30.0165581703"><time>2026-04-25T10:42:32Z</time></trkpt><trkpt lat="59.0835070610" lon="30.0166869164"><time>2026-04-25T10:42:42Z</time></trkpt><trkpt lat="59.0835285187" lon="30.0167512894"><time>2026-04-25T10:42:49Z</time></trkpt><trkpt lat="59.0835714340" lon="30.0168156624"><time>2026-04-25T10:42:52Z</time></trkpt><trkpt lat="59.0835928917" lon="30.0168800354"><time>2026-04-25T10:42:54Z</time></trkpt><trkpt lat="59.0835714340" lon="30.0169658661"><time>2026-04-25T10:42:57Z</time></trkpt><trkpt lat="59.0835928917" lon="30.0170302391"><time>2026-04-25T10:42:59Z</time></trkpt><trkpt lat="59.0835928917" lon="30.0170731544"><time>2026-04-25T10:43:02Z</time></trkpt><trkpt lat="59.0835499763" lon="30.0170946121"><time>2026-04-25T10:43:04Z</time></trkpt><trkpt lat="59.0835499763" lon="30.0169873238"><time>2026-04-25T10:43:07Z</time></trkpt><trkpt lat="59.0835285187" lon="30.0169229507"><time>2026-04-25T10:43:09Z</time></trkpt><trkpt lat="59.0835928917" lon="30.0169444084"><time>2026-04-25T10:43:12Z</time></trkpt><trkpt lat="59.0836143494" lon="30.0169658661"><time>2026-04-25T10:43:14Z</time></trkpt><trkpt lat="59.0836143494" lon="30.0170302391"><time>2026-04-25T10:43:27Z</time></trkpt><trkpt lat="59.0835714340" lon="30.0171160698"><time>2026-04-25T10:43:29Z</time></trkpt><trkpt lat="59.0835714340" lon="30.0172233582"><time>2026-04-25T10:43:32Z</time></trkpt><trkpt lat="59.0835714340" lon="30.0173306465"><time>2026-04-25T10:43:34Z</time></trkpt><trkpt lat="59.0835499763" lon="30.0174379349"><time>2026-04-25T10:43:37Z</time></trkpt><trkpt lat="59.0835285187" lon="30.0175237656"><time>2026-04-25T10:43:39Z</time></trkpt><trkpt lat="59.0834856033" lon="30.0175452232"><time>2026-04-25T10:43:42Z</time></trkpt><trkpt lat="59.0835070610" lon="30.0176310539"><time>2026-04-25T10:43:49Z</time></trkpt><trkpt lat="59.0835499763" lon="30.0176739693"><time>2026-04-25T10:43:52Z</time></trkpt><trkpt lat="59.0835714340" lon="30.0177598000"><time>2026-04-25T10:43:54Z</time></trkpt><trkpt lat="59.0835714340" lon="30.0178456306"><time>2026-04-25T10:43:57Z</time></trkpt><trkpt lat="59.0835499763" lon="30.0179100037"><time>2026-04-25T10:43:59Z</time></trkpt><trkpt lat="59.0835285187" lon="30.0179958344"><time>2026-04-25T10:44:04Z</time></trkpt><trkpt lat="59.0835499763" lon="30.0180172920"><time>2026-04-25T10:44:07Z</time></trkpt><trkpt lat="59.0835714340" lon="30.0179743767"><time>2026-04-25T10:44:09Z</time></trkpt><trkpt lat="59.0836143494" lon="30.0179314613"><time>2026-04-25T10:44:12Z</time></trkpt><trkpt lat="59.0836358070" lon="30.0179100037"><time>2026-04-25T10:44:14Z</time></trkpt><trkpt lat="59.0836787224" lon="30.0178241730"><time>2026-04-25T10:44:17Z</time></trkpt><trkpt lat="59.0837001801" lon="30.0177812576"><time>2026-04-25T10:44:19Z</time></trkpt><trkpt lat="59.0837430954" lon="30.0178241730"><time>2026-04-25T10:44:22Z</time></trkpt><trkpt lat="59.0837860107" lon="30.0178456306"><time>2026-04-25T10:44:24Z</time></trkpt><trkpt lat="59.0837860107" lon="30.0178885460"><time>2026-04-25T10:44:27Z</time></trkpt><trkpt lat="59.0838074684" lon="30.0179529190"><time>2026-04-25T10:44:29Z</time></trkpt><trkpt lat="59.0838074684" lon="30.0180387497"><time>2026-04-25T10:44:32Z</time></trkpt><trkpt lat="59.0838074684" lon="30.0181031227"><time>2026-04-25T10:44:34Z</time></trkpt><trkpt lat="59.0837645531" lon="30.0180816650"><time>2026-04-25T10:44:42Z</time></trkpt><trkpt lat="59.0838074684" lon="30.0180387497"><time>2026-04-25T10:44:47Z</time></trkpt><trkpt lat="59.0838503838" lon="30.0180387497"><time>2026-04-25T10:44:49Z</time></trkpt><trkpt lat="59.0838289261" lon="30.0179743767"><time>2026-04-25T10:44:52Z</time></trkpt><trkpt lat="59.0838289261" lon="30.0178885460"><time>2026-04-25T10:44:54Z</time></trkpt><trkpt lat="59.0838289261" lon="30.0177812576"><time>2026-04-25T10:44:57Z</time></trkpt><trkpt lat="59.0838074684" lon="30.0177383423"><time>2026-04-25T10:44:59Z</time></trkpt><trkpt lat="59.0837645531" lon="30.0178027153"><time>2026-04-25T10:45:02Z</time></trkpt><trkpt lat="59.0837430954" lon="30.0178670883"><time>2026-04-25T10:45:04Z</time></trkpt><trkpt lat="59.0837645531" lon="30.0178241730"><time>2026-04-25T10:45:09Z</time></trkpt><trkpt lat="59.0837001801" lon="30.0178885460"><time>2026-04-25T10:45:17Z</time></trkpt><trkpt lat="59.0836572647" lon="30.0179529190"><time>2026-04-25T10:45:19Z</time></trkpt><trkpt lat="59.0836358070" lon="30.0180387497"><time>2026-04-25T10:45:22Z</time></trkpt><trkpt lat="59.0835499763" lon="30.0183820724"><time>2026-04-25T10:45:32Z</time></trkpt><trkpt lat="59.0834641457" lon="30.0184464455"><time>2026-04-25T10:45:42Z</time></trkpt><trkpt lat="59.0834212303" lon="30.0185108185"><time>2026-04-25T10:45:44Z</time></trkpt><trkpt lat="59.0833997726" lon="30.0185537338"><time>2026-04-25T10:45:47Z</time></trkpt><trkpt lat="59.0833783150" lon="30.0186395645"><time>2026-04-25T10:45:49Z</time></trkpt><trkpt lat="59.0833353996" lon="30.0186395645"><time>2026-04-25T10:45:54Z</time></trkpt><trkpt lat="59.0833139420" lon="30.0186610222"><time>2026-04-25T10:46:04Z</time></trkpt><trkpt lat="59.0832924843" lon="30.0187253952"><time>2026-04-25T10:46:07Z</time></trkpt><trkpt lat="59.0832710266" lon="30.0186610222"><time>2026-04-25T10:46:12Z</time></trkpt><trkpt lat="59.0832924843" lon="30.0185322762"><time>2026-04-25T10:46:14Z</time></trkpt><trkpt lat="59.0833353996" lon="30.0184249878"><time>2026-04-25T10:46:17Z</time></trkpt><trkpt lat="59.0833353996" lon="30.0183176994"><time>2026-04-25T10:46:19Z</time></trkpt><trkpt lat="59.0833568573" lon="30.0181889534"><time>2026-04-25T10:46:32Z</time></trkpt><trkpt lat="59.0834212303" lon="30.0181460381"><time>2026-04-25T10:46:34Z</time></trkpt><trkpt lat="59.0834426880" lon="30.0181245804"><time>2026-04-25T10:46:37Z</time></trkpt><trkpt lat="59.0834212303" lon="30.0181889534"><time>2026-04-25T10:46:39Z</time></trkpt><trkpt lat="59.0833997726" lon="30.0182747841"><time>2026-04-25T10:46:42Z</time></trkpt><trkpt lat="59.0833568573" lon="30.0183176994"><time>2026-04-25T10:46:44Z</time></trkpt><trkpt lat="59.0833139420" lon="30.0183176994"><time>2026-04-25T10:46:47Z</time></trkpt><trkpt lat="59.0832924843" lon="30.0183820724"><time>2026-04-25T10:46:49Z</time></trkpt><trkpt lat="59.0832710266" lon="30.0184464455"><time>2026-04-25T10:46:52Z</time></trkpt><trkpt lat="59.0832281113" lon="30.0185108185"><time>2026-04-25T10:46:54Z</time></trkpt><trkpt lat="59.0832066536" lon="30.0185966492"><time>2026-04-25T10:46:57Z</time></trkpt><trkpt lat="59.0831851959" lon="30.0186824799"><time>2026-04-25T10:46:59Z</time></trkpt><trkpt lat="59.0831422806" lon="30.0186824799"><time>2026-04-25T10:47:02Z</time></trkpt><trkpt lat="59.0831208229" lon="30.0186610222"><time>2026-04-25T10:47:04Z</time></trkpt><trkpt lat="59.0830993652" lon="30.0186395645"><time>2026-04-25T10:47:07Z</time></trkpt><trkpt lat="59.0830993652" lon="30.0185966492"><time>2026-04-25T10:47:09Z</time></trkpt><trkpt lat="59.0831208229" lon="30.0185537338"><time>2026-04-25T10:47:12Z</time></trkpt><trkpt lat="59.0831422806" lon="30.0185537338"><time>2026-04-25T10:47:14Z</time></trkpt><trkpt lat="59.0832066536" lon="30.0185108185"><time>2026-04-25T10:47:17Z</time></trkpt><trkpt lat="59.0832495689" lon="30.0184679031"><time>2026-04-25T10:47:19Z</time></trkpt><trkpt lat="59.0832924843" lon="30.0183391571"><time>2026-04-25T10:47:22Z</time></trkpt><trkpt lat="59.0832924843" lon="30.0182104111"><time>2026-04-25T10:47:24Z</time></trkpt><trkpt lat="59.0832710266" lon="30.0181460381"><time>2026-04-25T10:47:27Z</time></trkpt><trkpt lat="59.0832710266" lon="30.0180602074"><time>2026-04-25T10:47:29Z</time></trkpt><trkpt lat="59.0832710266" lon="30.0179314613"><time>2026-04-25T10:47:32Z</time></trkpt><trkpt lat="59.0832281113" lon="30.0178456306"><time>2026-04-25T10:47:34Z</time></trkpt><trkpt lat="59.0832066536" lon="30.0177598000"><time>2026-04-25T10:47:37Z</time></trkpt><trkpt lat="59.0832066536" lon="30.0176525116"><time>2026-04-25T10:47:39Z</time></trkpt><trkpt lat="59.0832281113" lon="30.0175666809"><time>2026-04-25T10:47:42Z</time></trkpt><trkpt lat="59.0832710266" lon="30.0175237656"><time>2026-04-25T10:47:44Z</time></trkpt><trkpt lat="59.0832924843" lon="30.0174379349"><time>2026-04-25T10:47:47Z</time></trkpt><trkpt lat="59.0832495689" lon="30.0173735619"><time>2026-04-25T10:47:49Z</time></trkpt><trkpt lat="59.0832066536" lon="30.0173521042"><time>2026-04-25T10:47:52Z</time></trkpt><trkpt lat="59.0831851959" lon="30.0174379349"><time>2026-04-25T10:47:54Z</time></trkpt><trkpt lat="59.0832066536" lon="30.0175666809"><time>2026-04-25T10:47:57Z</time></trkpt><trkpt lat="59.0832281113" lon="30.0176310539"><time>2026-04-25T10:47:59Z</time></trkpt><trkpt lat="59.0832710266" lon="30.0176525116"><time>2026-04-25T10:48:04Z</time></trkpt><trkpt lat="59.0833139420" lon="30.0175666809"><time>2026-04-25T10:48:07Z</time></trkpt><trkpt lat="59.0833568573" lon="30.0175666809"><time>2026-04-25T10:48:09Z</time></trkpt><trkpt lat="59.0833353996" lon="30.0175666809"><time>2026-04-25T10:48:12Z</time></trkpt><trkpt lat="59.0833353996" lon="30.0174808502"><time>2026-04-25T10:48:14Z</time></trkpt><trkpt lat="59.0832924843" lon="30.0174379349"><time>2026-04-25T10:48:17Z</time></trkpt><trkpt lat="59.0832495689" lon="30.0173735619"><time>2026-04-25T10:48:19Z</time></trkpt><trkpt lat="59.0832066536" lon="30.0174164772"><time>2026-04-25T10:48:22Z</time></trkpt><trkpt lat="59.0831851959" lon="30.0172877312"><time>2026-04-25T10:48:32Z</time></trkpt><trkpt lat="59.0831637383" lon="30.0172233582"><time>2026-04-25T10:48:34Z</time></trkpt><trkpt lat="59.0831637383" lon="30.0171804428"><time>2026-04-25T10:48:37Z</time></trkpt><trkpt lat="59.0831851959" lon="30.0171375275"><time>2026-04-25T10:48:39Z</time></trkpt><trkpt lat="59.0831422806" lon="30.0171589851"><time>2026-04-25T10:48:47Z</time></trkpt><trkpt lat="59.0830993652" lon="30.0171589851"><time>2026-04-25T10:48:49Z</time></trkpt><trkpt lat="59.0831208229" lon="30.0170516968"><time>2026-04-25T10:48:59Z</time></trkpt><trkpt lat="59.0831422806" lon="30.0169658661"><time>2026-04-25T10:49:02Z</time></trkpt><trkpt lat="59.0831637383" lon="30.0169229507"><time>2026-04-25T10:49:04Z</time></trkpt><trkpt lat="59.0831637383" lon="30.0168585777"><time>2026-04-25T10:49:07Z</time></trkpt><trkpt lat="59.0831637383" lon="30.0167942047"><time>2026-04-25T10:49:12Z</time></trkpt><trkpt lat="59.0831851959" lon="30.0167298317"><time>2026-04-25T10:49:14Z</time></trkpt><trkpt lat="59.0832066536" lon="30.0167298317"><time>2026-04-25T10:49:17Z</time></trkpt><trkpt lat="59.0832495689" lon="30.0166869164"><time>2026-04-25T10:49:19Z</time></trkpt><trkpt lat="59.0832495689" lon="30.0165581703"><time>2026-04-25T10:49:32Z</time></trkpt><trkpt lat="59.0832495689" lon="30.0164723396"><time>2026-04-25T10:49:34Z</time></trkpt><trkpt lat="59.0832281113" lon="30.0164079666"><time>2026-04-25T10:49:37Z</time></trkpt><trkpt lat="59.0832281113" lon="30.0163435936"><time>2026-04-25T10:49:39Z</time></trkpt><trkpt lat="59.0832495689" lon="30.0164079666"><time>2026-04-25T10:49:42Z</time></trkpt><trkpt lat="59.0832710266" lon="30.0163865089"><time>2026-04-25T10:49:44Z</time></trkpt><trkpt lat="59.0833139420" lon="30.0163650513"><time>2026-04-25T10:49:59Z</time></trkpt><trkpt lat="59.0832710266" lon="30.0164079666"><time>2026-04-25T10:50:02Z</time></trkpt><trkpt lat="59.0832281113" lon="30.0164508820"><time>2026-04-25T10:50:04Z</time></trkpt><trkpt lat="59.0831637383" lon="30.0166440010"><time>2026-04-25T10:50:12Z</time></trkpt><trkpt lat="59.0831851959" lon="30.0167298317"><time>2026-04-25T10:50:14Z</time></trkpt><trkpt lat="59.0830779076" lon="30.0166869164"><time>2026-04-25T10:50:19Z</time></trkpt><trkpt lat="59.0830135345" lon="30.0166440010"><time>2026-04-25T10:50:22Z</time></trkpt><trkpt lat="59.0829706192" lon="30.0165796280"><time>2026-04-25T10:50:24Z</time></trkpt><trkpt lat="59.0829062462" lon="30.0165796280"><time>2026-04-25T10:50:27Z</time></trkpt><trkpt lat="59.0828633308" lon="30.0164937973"><time>2026-04-25T10:50:29Z</time></trkpt><trkpt lat="59.0828633308" lon="30.0163865089"><time>2026-04-25T10:50:32Z</time></trkpt><trkpt lat="59.0828418732" lon="30.0163435936"><time>2026-04-25T10:50:34Z</time></trkpt><trkpt lat="59.0827989578" lon="30.0163221359"><time>2026-04-25T10:50:37Z</time></trkpt><trkpt lat="59.0827989578" lon="30.0164294243"><time>2026-04-25T10:50:39Z</time></trkpt><trkpt lat="59.0827775002" lon="30.0165152550"><time>2026-04-25T10:50:42Z</time></trkpt><trkpt lat="59.0827989578" lon="30.0166225433"><time>2026-04-25T10:50:44Z</time></trkpt><trkpt lat="59.0828204155" lon="30.0165367126"><time>2026-04-25T10:50:47Z</time></trkpt><trkpt lat="59.0828418732" lon="30.0165152550"><time>2026-04-25T10:50:49Z</time></trkpt><trkpt lat="59.0828204155" lon="30.0164508820"><time>2026-04-25T10:50:54Z</time></trkpt><trkpt lat="59.0828204155" lon="30.0163221359"><time>2026-04-25T10:51:02Z</time></trkpt><trkpt lat="59.0828418732" lon="30.0162363052"><time>2026-04-25T10:51:04Z</time></trkpt><trkpt lat="59.0828633308" lon="30.0162577629"><time>2026-04-25T10:51:07Z</time></trkpt><trkpt lat="59.0829062462" lon="30.0163006783"><time>2026-04-25T10:51:09Z</time></trkpt><trkpt lat="59.0829062462" lon="30.0163650513"><time>2026-04-25T10:51:12Z</time></trkpt><trkpt lat="59.0828847885" lon="30.0163865089"><time>2026-04-25T10:51:42Z</time></trkpt><trkpt lat="59.0828847885" lon="30.0163865089"><time>2026-04-25T10:51:52Z</time></trkpt><trkpt lat="59.0828633308" lon="30.0164294243"><time>2026-04-25T10:51:54Z</time></trkpt><trkpt lat="59.0828847885" lon="30.0165152550"><time>2026-04-25T10:51:59Z</time></trkpt><trkpt lat="59.0828418732" lon="30.0166010857"><time>2026-04-25T10:52:02Z</time></trkpt><trkpt lat="59.0827989578" lon="30.0166225433"><time>2026-04-25T10:52:04Z</time></trkpt><trkpt lat="59.0827775002" lon="30.0166869164"><time>2026-04-25T10:52:07Z</time></trkpt><trkpt lat="59.0827131271" lon="30.0167298317"><time>2026-04-25T10:52:09Z</time></trkpt><trkpt lat="59.0826702118" lon="30.0167083740"><time>2026-04-25T10:52:12Z</time></trkpt><trkpt lat="59.0826487541" lon="30.0166225433"><time>2026-04-25T10:52:14Z</time></trkpt><trkpt lat="59.0826058388" lon="30.0165581703"><time>2026-04-25T10:52:17Z</time></trkpt><trkpt lat="59.0826272964" lon="30.0164937973"><time>2026-04-25T10:52:19Z</time></trkpt><trkpt lat="59.0825414658" lon="30.0164937973"><time>2026-04-25T10:52:27Z</time></trkpt><trkpt lat="59.0824985504" lon="30.0164723396"><time>2026-04-25T10:52:29Z</time></trkpt><trkpt lat="59.0824770927" lon="30.0164508820"><time>2026-04-25T10:52:32Z</time></trkpt><trkpt lat="59.0824985504" lon="30.0163650513"><time>2026-04-25T10:52:34Z</time></trkpt><trkpt lat="59.0825200081" lon="30.0163650513"><time>2026-04-25T10:52:37Z</time></trkpt><trkpt lat="59.0825629234" lon="30.0163865089"><time>2026-04-25T10:52:39Z</time></trkpt><trkpt lat="59.0825629234" lon="30.0164723396"><time>2026-04-25T10:52:42Z</time></trkpt><trkpt lat="59.0825200081" lon="30.0165367126"><time>2026-04-25T10:52:44Z</time></trkpt><trkpt lat="59.0824985504" lon="30.0165581703"><time>2026-04-25T10:52:47Z</time></trkpt><trkpt lat="59.0824127197" lon="30.0165796280"><time>2026-04-25T10:52:52Z</time></trkpt><trkpt lat="59.0823698044" lon="30.0166010857"><time>2026-04-25T10:52:54Z</time></trkpt><trkpt lat="59.0823483467" lon="30.0165796280"><time>2026-04-25T10:52:57Z</time></trkpt><trkpt lat="59.0823054314" lon="30.0165796280"><time>2026-04-25T10:52:59Z</time></trkpt><trkpt lat="59.0822839737" lon="30.0166010857"><time>2026-04-25T10:53:09Z</time></trkpt><trkpt lat="59.0823054314" lon="30.0165796280"><time>2026-04-25T10:53:17Z</time></trkpt><trkpt lat="59.0823698044" lon="30.0165581703"><time>2026-04-25T10:53:19Z</time></trkpt><trkpt lat="59.0823912621" lon="30.0165367126"><time>2026-04-25T10:53:22Z</time></trkpt><trkpt lat="59.0824341774" lon="30.0165367126"><time>2026-04-25T10:53:24Z</time></trkpt><trkpt lat="59.0824556351" lon="30.0165367126"><time>2026-04-25T10:53:27Z</time></trkpt><trkpt lat="59.0824556351" lon="30.0166440010"><time>2026-04-25T10:53:32Z</time></trkpt><trkpt lat="59.0824341774" lon="30.0166869164"><time>2026-04-25T10:53:34Z</time></trkpt><trkpt lat="59.0824127197" lon="30.0167083740"><time>2026-04-25T10:53:37Z</time></trkpt><trkpt lat="59.0823912621" lon="30.0167512894"><time>2026-04-25T10:53:39Z</time></trkpt><trkpt lat="59.0823698044" lon="30.0167942047"><time>2026-04-25T10:53:42Z</time></trkpt><trkpt lat="59.0823268890" lon="30.0168156624"><time>2026-04-25T10:53:47Z</time></trkpt><trkpt lat="59.0823054314" lon="30.0167512894"><time>2026-04-25T10:53:49Z</time></trkpt><trkpt lat="59.0822625160" lon="30.0166869164"><time>2026-04-25T10:53:52Z</time></trkpt><trkpt lat="59.0822410583" lon="30.0166225433"><time>2026-04-25T10:53:54Z</time></trkpt><trkpt lat="59.0822196007" lon="30.0166010857"><time>2026-04-25T10:53:57Z</time></trkpt><trkpt lat="59.0821981430" lon="30.0166225433"><time>2026-04-25T10:53:59Z</time></trkpt><trkpt lat="59.0822410583" lon="30.0166010857"><time>2026-04-25T10:54:02Z</time></trkpt><trkpt lat="59.0822839737" lon="30.0165796280"><time>2026-04-25T10:54:04Z</time></trkpt><trkpt lat="59.0823483467" lon="30.0165581703"><time>2026-04-25T10:54:07Z</time></trkpt><trkpt lat="59.0823698044" lon="30.0165796280"><time>2026-04-25T10:54:09Z</time></trkpt><trkpt lat="59.0824127197" lon="30.0165796280"><time>2026-04-25T10:54:12Z</time></trkpt><trkpt lat="59.0824556351" lon="30.0166225433"><time>2026-04-25T10:54:14Z</time></trkpt><trkpt lat="59.0824985504" lon="30.0166869164"><time>2026-04-25T10:54:17Z</time></trkpt><trkpt lat="59.0825629234" lon="30.0168156624"><time>2026-04-25T10:54:37Z</time></trkpt><trkpt lat="59.0826058388" lon="30.0168371201"><time>2026-04-25T10:54:39Z</time></trkpt><trkpt lat="59.0826058388" lon="30.0169229507"><time>2026-04-25T10:54:42Z</time></trkpt><trkpt lat="59.0826058388" lon="30.0170087814"><time>2026-04-25T10:54:44Z</time></trkpt><trkpt lat="59.0826487541" lon="30.0170302391"><time>2026-04-25T10:54:47Z</time></trkpt><trkpt lat="59.0826487541" lon="30.0169658661"><time>2026-04-25T10:54:49Z</time></trkpt><trkpt lat="59.0826058388" lon="30.0169444084"><time>2026-04-25T10:54:52Z</time></trkpt><trkpt lat="59.0825629234" lon="30.0169444084"><time>2026-04-25T10:54:54Z</time></trkpt><trkpt lat="59.0825629234" lon="30.0170302391"><time>2026-04-25T10:55:02Z</time></trkpt><trkpt lat="59.0825414658" lon="30.0171375275"><time>2026-04-25T10:55:07Z</time></trkpt><trkpt lat="59.0824985504" lon="30.0171589851"><time>2026-04-25T10:55:09Z</time></trkpt><trkpt lat="59.0824556351" lon="30.0171589851"><time>2026-04-25T10:55:12Z</time></trkpt><trkpt lat="59.0824556351" lon="30.0171804428"><time>2026-04-25T10:55:14Z</time></trkpt><trkpt lat="59.0824556351" lon="30.0172662735"><time>2026-04-25T10:55:17Z</time></trkpt><trkpt lat="59.0824770927" lon="30.0173521042"><time>2026-04-25T10:55:19Z</time></trkpt><trkpt lat="59.0824985504" lon="30.0174164772"><time>2026-04-25T10:55:22Z</time></trkpt><trkpt lat="59.0825200081" lon="30.0173735619"><time>2026-04-25T10:55:24Z</time></trkpt><trkpt lat="59.0825629234" lon="30.0175023079"><time>2026-04-25T10:55:32Z</time></trkpt><trkpt lat="59.0825843811" lon="30.0175452232"><time>2026-04-25T10:55:34Z</time></trkpt><trkpt lat="59.0826058388" lon="30.0175452232"><time>2026-04-25T10:55:37Z</time></trkpt><trkpt lat="59.0826272964" lon="30.0175237656"><time>2026-04-25T10:55:39Z</time></trkpt><trkpt lat="59.0826058388" lon="30.0174379349"><time>2026-04-25T10:55:49Z</time></trkpt><trkpt lat="59.0826272964" lon="30.0174593925"><time>2026-04-25T10:55:52Z</time></trkpt><trkpt lat="59.0826272964" lon="30.0175452232"><time>2026-04-25T10:55:54Z</time></trkpt><trkpt lat="59.0826487541" lon="30.0176310539"><time>2026-04-25T10:55:57Z</time></trkpt><trkpt lat="59.0826702118" lon="30.0178027153"><time>2026-04-25T10:56:02Z</time></trkpt><trkpt lat="59.0826702118" lon="30.0178885460"><time>2026-04-25T10:56:04Z</time></trkpt><trkpt lat="59.0826272964" lon="30.0179743767"><time>2026-04-25T10:56:07Z</time></trkpt><trkpt lat="59.0826058388" lon="30.0180172920"><time>2026-04-25T10:56:09Z</time></trkpt><trkpt lat="59.0825629234" lon="30.0180172920"><time>2026-04-25T10:56:12Z</time></trkpt><trkpt lat="59.0825200081" lon="30.0180172920"><time>2026-04-25T10:56:14Z</time></trkpt><trkpt lat="59.0825414658" lon="30.0180172920"><time>2026-04-25T10:56:27Z</time></trkpt><trkpt lat="59.0826058388" lon="30.0179958344"><time>2026-04-25T10:56:29Z</time></trkpt><trkpt lat="59.0826272964" lon="30.0179314613"><time>2026-04-25T10:56:32Z</time></trkpt><trkpt lat="59.0826702118" lon="30.0178670883"><time>2026-04-25T10:56:34Z</time></trkpt><trkpt lat="59.0826272964" lon="30.0179529190"><time>2026-04-25T10:56:39Z</time></trkpt><trkpt lat="59.0826487541" lon="30.0179958344"><time>2026-04-25T10:56:54Z</time></trkpt><trkpt lat="59.0826272964" lon="30.0182318687"><time>2026-04-25T10:57:07Z</time></trkpt><trkpt lat="59.0826272964" lon="30.0182747841"><time>2026-04-25T10:57:09Z</time></trkpt><trkpt lat="59.0826272964" lon="30.0183391571"><time>2026-04-25T10:57:12Z</time></trkpt><trkpt lat="59.0826487541" lon="30.0183820724"><time>2026-04-25T10:57:14Z</time></trkpt><trkpt lat="59.0826916695" lon="30.0184249878"><time>2026-04-25T10:57:24Z</time></trkpt><trkpt lat="59.0826487541" lon="30.0185966492"><time>2026-04-25T10:57:54Z</time></trkpt><trkpt lat="59.0826487541" lon="30.0185537338"><time>2026-04-25T10:58:12Z</time></trkpt><trkpt lat="59.0826272964" lon="30.0185108185"><time>2026-04-25T10:58:14Z</time></trkpt><trkpt lat="59.0826272964" lon="30.0185108185"><time>2026-04-25T10:58:44Z</time></trkpt><trkpt lat="59.0826272964" lon="30.0185108185"><time>2026-04-25T10:58:57Z</time></trkpt><trkpt lat="59.0826058388" lon="30.0184679031"><time>2026-04-25T10:58:59Z</time></trkpt><trkpt lat="59.0825629234" lon="30.0184679031"><time>2026-04-25T10:59:02Z</time></trkpt><trkpt lat="59.0825414658" lon="30.0184679031"><time>2026-04-25T10:59:04Z</time></trkpt><trkpt lat="59.0824985504" lon="30.0184893608"><time>2026-04-25T10:59:07Z</time></trkpt><trkpt lat="59.0824770927" lon="30.0184893608"><time>2026-04-25T10:59:09Z</time></trkpt><trkpt lat="59.0824341774" lon="30.0185322762"><time>2026-04-25T10:59:17Z</time></trkpt><trkpt lat="59.0823912621" lon="30.0185537338"><time>2026-04-25T10:59:19Z</time></trkpt><trkpt lat="59.0824127197" lon="30.0185537338"><time>2026-04-25T10:59:49Z</time></trkpt><trkpt lat="59.0824127197" lon="30.0185537338"><time>2026-04-25T10:59:52Z</time></trkpt><trkpt lat="59.0823483467" lon="30.0185751915"><time>2026-04-25T10:59:57Z</time></trkpt><trkpt lat="59.0823483467" lon="30.0185537338"><time>2026-04-25T11:00:09Z</time></trkpt><trkpt lat="59.0824341774" lon="30.0185322762"><time>2026-04-25T11:00:17Z</time></trkpt><trkpt lat="59.0824985504" lon="30.0184893608"><time>2026-04-25T11:00:19Z</time></trkpt><trkpt lat="59.0824127197" lon="30.0185322762"><time>2026-04-25T11:00:27Z</time></trkpt><trkpt lat="59.0823698044" lon="30.0185537338"><time>2026-04-25T11:00:29Z</time></trkpt><trkpt lat="59.0823698044" lon="30.0185322762"><time>2026-04-25T11:00:34Z</time></trkpt><trkpt lat="59.0823698044" lon="30.0185751915"><time>2026-04-25T11:01:04Z</time></trkpt><trkpt lat="59.0824127197" lon="30.0186181068"><time>2026-04-25T11:01:07Z</time></trkpt><trkpt lat="59.0824127197" lon="30.0186395645"><time>2026-04-25T11:01:24Z</time></trkpt><trkpt lat="59.0823912621" lon="30.0186824799"><time>2026-04-25T11:01:52Z</time></trkpt><trkpt lat="59.0823698044" lon="30.0186610222"><time>2026-04-25T11:02:22Z</time></trkpt><trkpt lat="59.0823698044" lon="30.0186610222"><time>2026-04-25T11:02:52Z</time></trkpt><trkpt lat="59.0823698044" lon="30.0186610222"><time>2026-04-25T11:03:22Z</time></trkpt><trkpt lat="59.0823698044" lon="30.0186610222"><time>2026-04-25T11:03:52Z</time></trkpt><trkpt lat="59.0823698044" lon="30.0186610222"><time>2026-04-25T11:04:22Z</time></trkpt><trkpt lat="59.0823698044" lon="30.0186824799"><time>2026-04-25T11:04:52Z</time></trkpt><trkpt lat="59.0823268890" lon="30.0185966492"><time>2026-04-25T11:04:59Z</time></trkpt><trkpt lat="59.0823698044" lon="30.0185537338"><time>2026-04-25T11:05:02Z</time></trkpt><trkpt lat="59.0823054314" lon="30.0185966492"><time>2026-04-25T11:05:12Z</time></trkpt><trkpt lat="59.0822625160" lon="30.0186610222"><time>2026-04-25T11:05:14Z</time></trkpt><trkpt lat="59.0822410583" lon="30.0187253952"><time>2026-04-25T11:05:17Z</time></trkpt><trkpt lat="59.0821981430" lon="30.0187683105"><time>2026-04-25T11:05:19Z</time></trkpt><trkpt lat="59.0820908546" lon="30.0186824799"><time>2026-04-25T11:05:37Z</time></trkpt><trkpt lat="59.0821123123" lon="30.0186181068"><time>2026-04-25T11:05:39Z</time></trkpt><trkpt lat="59.0821337700" lon="30.0185966492"><time>2026-04-25T11:05:42Z</time></trkpt><trkpt lat="59.0821552277" lon="30.0185966492"><time>2026-04-25T11:05:44Z</time></trkpt><trkpt lat="59.0821337700" lon="30.0185966492"><time>2026-04-25T11:05:47Z</time></trkpt><trkpt lat="59.0820908546" lon="30.0185966492"><time>2026-04-25T11:05:49Z</time></trkpt><trkpt lat="59.0820479393" lon="30.0186395645"><time>2026-04-25T11:05:52Z</time></trkpt><trkpt lat="59.0819835663" lon="30.0187683105"><time>2026-04-25T11:05:57Z</time></trkpt><trkpt lat="59.0820050240" lon="30.0188326836"><time>2026-04-25T11:05:59Z</time></trkpt><trkpt lat="59.0820479393" lon="30.0188755989"><time>2026-04-25T11:06:02Z</time></trkpt><trkpt lat="59.0820693970" lon="30.0189399719"><time>2026-04-25T11:06:04Z</time></trkpt><trkpt lat="59.0821123123" lon="30.0189399719"><time>2026-04-25T11:06:07Z</time></trkpt><trkpt lat="59.0821766853" lon="30.0188970566"><time>2026-04-25T11:06:22Z</time></trkpt><trkpt lat="59.0822196007" lon="30.0188755989"><time>2026-04-25T11:06:24Z</time></trkpt><trkpt lat="59.0822196007" lon="30.0188112259"><time>2026-04-25T11:06:27Z</time></trkpt><trkpt lat="59.0822625160" lon="30.0188112259"><time>2026-04-25T11:06:42Z</time></trkpt><trkpt lat="59.0822839737" lon="30.0188541412"><time>2026-04-25T11:06:44Z</time></trkpt><trkpt lat="59.0822625160" lon="30.0188541412"><time>2026-04-25T11:06:47Z</time></trkpt><trkpt lat="59.0822410583" lon="30.0188755989"><time>2026-04-25T11:06:49Z</time></trkpt><trkpt lat="59.0821981430" lon="30.0188112259"><time>2026-04-25T11:06:59Z</time></trkpt><trkpt lat="59.0821981430" lon="30.0187683105"><time>2026-04-25T11:07:02Z</time></trkpt><trkpt lat="59.0821981430" lon="30.0186610222"><time>2026-04-25T11:07:04Z</time></trkpt><trkpt lat="59.0822196007" lon="30.0185751915"><time>2026-04-25T11:07:07Z</time></trkpt><trkpt lat="59.0821981430" lon="30.0185108185"><time>2026-04-25T11:07:09Z</time></trkpt><trkpt lat="59.0821981430" lon="30.0184464455"><time>2026-04-25T11:07:12Z</time></trkpt><trkpt lat="59.0821981430" lon="30.0183820724"><time>2026-04-25T11:07:14Z</time></trkpt><trkpt lat="59.0821766853" lon="30.0183176994"><time>2026-04-25T11:07:17Z</time></trkpt><trkpt lat="59.0821337700" lon="30.0183391571"><time>2026-04-25T11:07:19Z</time></trkpt><trkpt lat="59.0820908546" lon="30.0183606148"><time>2026-04-25T11:07:22Z</time></trkpt><trkpt lat="59.0820479393" lon="30.0184035301"><time>2026-04-25T11:07:24Z</time></trkpt><trkpt lat="59.0819621086" lon="30.0184464455"><time>2026-04-25T11:07:29Z</time></trkpt><trkpt lat="59.0819191933" lon="30.0184464455"><time>2026-04-25T11:07:32Z</time></trkpt><trkpt lat="59.0818977356" lon="30.0184249878"><time>2026-04-25T11:07:34Z</time></trkpt><trkpt lat="59.0819191933" lon="30.0183820724"><time>2026-04-25T11:07:37Z</time></trkpt><trkpt lat="59.0818977356" lon="30.0182962418"><time>2026-04-25T11:07:39Z</time></trkpt><trkpt lat="59.0819406509" lon="30.0182104111"><time>2026-04-25T11:07:42Z</time></trkpt><trkpt lat="59.0819835663" lon="30.0181460381"><time>2026-04-25T11:07:44Z</time></trkpt><trkpt lat="59.0820050240" lon="30.0180816650"><time>2026-04-25T11:07:47Z</time></trkpt><trkpt lat="59.0821123123" lon="30.0180387497"><time>2026-04-25T11:07:52Z</time></trkpt><trkpt lat="59.0821766853" lon="30.0180387497"><time>2026-04-25T11:07:54Z</time></trkpt><trkpt lat="59.0821766853" lon="30.0179529190"><time>2026-04-25T11:07:57Z</time></trkpt><trkpt lat="59.0821766853" lon="30.0179100037"><time>2026-04-25T11:07:59Z</time></trkpt><trkpt lat="59.0821337700" lon="30.0178456306"><time>2026-04-25T11:08:04Z</time></trkpt><trkpt lat="59.0821123123" lon="30.0178456306"><time>2026-04-25T11:08:07Z</time></trkpt><trkpt lat="59.0820908546" lon="30.0178456306"><time>2026-04-25T11:08:09Z</time></trkpt><trkpt lat="59.0820693970" lon="30.0178027153"><time>2026-04-25T11:08:12Z</time></trkpt><trkpt lat="59.0820264816" lon="30.0177598000"><time>2026-04-25T11:08:14Z</time></trkpt><trkpt lat="59.0820050240" lon="30.0176954269"><time>2026-04-25T11:08:17Z</time></trkpt><trkpt lat="59.0820479393" lon="30.0175881386"><time>2026-04-25T11:08:27Z</time></trkpt><trkpt lat="59.0820693970" lon="30.0175666809"><time>2026-04-25T11:08:29Z</time></trkpt><trkpt lat="59.0820908546" lon="30.0174593925"><time>2026-04-25T11:08:32Z</time></trkpt><trkpt lat="59.0820908546" lon="30.0173735619"><time>2026-04-25T11:08:34Z</time></trkpt><trkpt lat="59.0820908546" lon="30.0173091888"><time>2026-04-25T11:08:37Z</time></trkpt><trkpt lat="59.0820908546" lon="30.0172448158"><time>2026-04-25T11:08:39Z</time></trkpt><trkpt lat="59.0820693970" lon="30.0172019005"><time>2026-04-25T11:08:42Z</time></trkpt><trkpt lat="59.0820479393" lon="30.0172019005"><time>2026-04-25T11:08:47Z</time></trkpt><trkpt lat="59.0820050240" lon="30.0171804428"><time>2026-04-25T11:08:54Z</time></trkpt><trkpt lat="59.0819835663" lon="30.0170946121"><time>2026-04-25T11:08:57Z</time></trkpt><trkpt lat="59.0820050240" lon="30.0170087814"><time>2026-04-25T11:08:59Z</time></trkpt><trkpt lat="59.0819621086" lon="30.0169444084"><time>2026-04-25T11:09:02Z</time></trkpt><trkpt lat="59.0819621086" lon="30.0168800354"><time>2026-04-25T11:09:04Z</time></trkpt><trkpt lat="59.0819406509" lon="30.0167942047"><time>2026-04-25T11:09:07Z</time></trkpt><trkpt lat="59.0819621086" lon="30.0167083740"><time>2026-04-25T11:09:09Z</time></trkpt><trkpt lat="59.0820264816" lon="30.0166654587"><time>2026-04-25T11:09:12Z</time></trkpt><trkpt lat="59.0820693970" lon="30.0166869164"><time>2026-04-25T11:09:14Z</time></trkpt><trkpt lat="59.0820693970" lon="30.0167942047"><time>2026-04-25T11:09:17Z</time></trkpt><trkpt lat="59.0820693970" lon="30.0168800354"><time>2026-04-25T11:09:19Z</time></trkpt><trkpt lat="59.0820479393" lon="30.0169014931"><time>2026-04-25T11:09:22Z</time></trkpt><trkpt lat="59.0820908546" lon="30.0169658661"><time>2026-04-25T11:09:24Z</time></trkpt><trkpt lat="59.0821552277" lon="30.0169229507"><time>2026-04-25T11:09:32Z</time></trkpt><trkpt lat="59.0821981430" lon="30.0169014931"><time>2026-04-25T11:09:34Z</time></trkpt><trkpt lat="59.0822196007" lon="30.0169444084"><time>2026-04-25T11:09:37Z</time></trkpt><trkpt lat="59.0821981430" lon="30.0168371201"><time>2026-04-25T11:09:42Z</time></trkpt><trkpt lat="59.0821766853" lon="30.0167727470"><time>2026-04-25T11:09:44Z</time></trkpt><trkpt lat="59.0821552277" lon="30.0167083740"><time>2026-04-25T11:09:47Z</time></trkpt><trkpt lat="59.0821123123" lon="30.0167298317"><time>2026-04-25T11:09:49Z</time></trkpt><trkpt lat="59.0821123123" lon="30.0167512894"><time>2026-04-25T11:09:52Z</time></trkpt><trkpt lat="59.0820908546" lon="30.0167512894"><time>2026-04-25T11:09:54Z</time></trkpt><trkpt lat="59.0820264816" lon="30.0167942047"><time>2026-04-25T11:10:24Z</time></trkpt><trkpt lat="59.0820264816" lon="30.0168371201"><time>2026-04-25T11:10:32Z</time></trkpt><trkpt lat="59.0819621086" lon="30.0167083740"><time>2026-04-25T11:10:42Z</time></trkpt><trkpt lat="59.0819406509" lon="30.0167512894"><time>2026-04-25T11:10:44Z</time></trkpt><trkpt lat="59.0819191933" lon="30.0167727470"><time>2026-04-25T11:10:47Z</time></trkpt><trkpt lat="59.0819406509" lon="30.0166654587"><time>2026-04-25T11:10:57Z</time></trkpt><trkpt lat="59.0819621086" lon="30.0166654587"><time>2026-04-25T11:10:59Z</time></trkpt><trkpt lat="59.0820050240" lon="30.0166869164"><time>2026-04-25T11:11:02Z</time></trkpt><trkpt lat="59.0820264816" lon="30.0167512894"><time>2026-04-25T11:11:04Z</time></trkpt><trkpt lat="59.0820264816" lon="30.0167942047"><time>2026-04-25T11:11:07Z</time></trkpt><trkpt lat="59.0819835663" lon="30.0167512894"><time>2026-04-25T11:11:14Z</time></trkpt><trkpt lat="59.0819406509" lon="30.0167512894"><time>2026-04-25T11:11:17Z</time></trkpt><trkpt lat="59.0819191933" lon="30.0168156624"><time>2026-04-25T11:11:22Z</time></trkpt><trkpt lat="59.0818762779" lon="30.0168371201"><time>2026-04-25T11:11:24Z</time></trkpt><trkpt lat="59.0818548203" lon="30.0167727470"><time>2026-04-25T11:11:27Z</time></trkpt><trkpt lat="59.0818119049" lon="30.0167727470"><time>2026-04-25T11:11:29Z</time></trkpt><trkpt lat="59.0818119049" lon="30.0168371201"><time>2026-04-25T11:11:47Z</time></trkpt><trkpt lat="59.0818119049" lon="30.0168800354"><time>2026-04-25T11:11:49Z</time></trkpt><trkpt lat="59.0818119049" lon="30.0169229507"><time>2026-04-25T11:11:52Z</time></trkpt><trkpt lat="59.0818119049" lon="30.0168800354"><time>2026-04-25T11:11:54Z</time></trkpt><trkpt lat="59.0817904472" lon="30.0168585777"><time>2026-04-25T11:11:57Z</time></trkpt><trkpt lat="59.0817689896" lon="30.0168156624"><time>2026-04-25T11:11:59Z</time></trkpt><trkpt lat="59.0817475319" lon="30.0168585777"><time>2026-04-25T11:12:02Z</time></trkpt><trkpt lat="59.0817260742" lon="30.0168800354"><time>2026-04-25T11:12:04Z</time></trkpt><trkpt lat="59.0817046165" lon="30.0169229507"><time>2026-04-25T11:12:07Z</time></trkpt><trkpt lat="59.0816617012" lon="30.0169444084"><time>2026-04-25T11:12:09Z</time></trkpt><trkpt lat="59.0816402435" lon="30.0169229507"><time>2026-04-25T11:12:12Z</time></trkpt><trkpt lat="59.0815973282" lon="30.0169014931"><time>2026-04-25T11:12:14Z</time></trkpt><trkpt lat="59.0815758705" lon="30.0169444084"><time>2026-04-25T11:12:17Z</time></trkpt><trkpt lat="59.0815758705" lon="30.0169873238"><time>2026-04-25T11:12:19Z</time></trkpt><trkpt lat="59.0815329552" lon="30.0169229507"><time>2026-04-25T11:12:27Z</time></trkpt><trkpt lat="59.0815973282" lon="30.0168585777"><time>2026-04-25T11:12:39Z</time></trkpt><trkpt lat="59.0816187859" lon="30.0169014931"><time>2026-04-25T11:12:42Z</time></trkpt><trkpt lat="59.0816402435" lon="30.0169229507"><time>2026-04-25T11:12:44Z</time></trkpt><trkpt lat="59.0816617012" lon="30.0168800354"><time>2026-04-25T11:12:47Z</time></trkpt><trkpt lat="59.0816617012" lon="30.0168156624"><time>2026-04-25T11:13:17Z</time></trkpt><trkpt lat="59.0816187859" lon="30.0168156624"><time>2026-04-25T11:13:22Z</time></trkpt><trkpt lat="59.0815758705" lon="30.0168371201"><time>2026-04-25T11:13:24Z</time></trkpt><trkpt lat="59.0815544128" lon="30.0168800354"><time>2026-04-25T11:13:27Z</time></trkpt><trkpt lat="59.0815329552" lon="30.0169229507"><time>2026-04-25T11:13:29Z</time></trkpt><trkpt lat="59.0815114975" lon="30.0169873238"><time>2026-04-25T11:13:32Z</time></trkpt><trkpt lat="59.0815329552" lon="30.0170516968"><time>2026-04-25T11:13:34Z</time></trkpt><trkpt lat="59.0815544128" lon="30.0171375275"><time>2026-04-25T11:13:37Z</time></trkpt><trkpt lat="59.0815973282" lon="30.0171589851"><time>2026-04-25T11:13:39Z</time></trkpt><trkpt lat="59.0816187859" lon="30.0171375275"><time>2026-04-25T11:13:42Z</time></trkpt><trkpt lat="59.0816402435" lon="30.0171375275"><time>2026-04-25T11:13:44Z</time></trkpt><trkpt lat="59.0816617012" lon="30.0172019005"><time>2026-04-25T11:13:47Z</time></trkpt><trkpt lat="59.0816831589" lon="30.0172877312"><time>2026-04-25T11:13:49Z</time></trkpt><trkpt lat="59.0817046165" lon="30.0173950195"><time>2026-04-25T11:13:59Z</time></trkpt><trkpt lat="59.0816617012" lon="30.0174164772"><time>2026-04-25T11:14:02Z</time></trkpt><trkpt lat="59.0816402435" lon="30.0174379349"><time>2026-04-25T11:14:04Z</time></trkpt><trkpt lat="59.0816617012" lon="30.0173735619"><time>2026-04-25T11:14:19Z</time></trkpt><trkpt lat="59.0817046165" lon="30.0174164772"><time>2026-04-25T11:14:22Z</time></trkpt><trkpt lat="59.0817689896" lon="30.0174379349"><time>2026-04-25T11:14:24Z</time></trkpt><trkpt lat="59.0818119049" lon="30.0174593925"><time>2026-04-25T11:14:27Z</time></trkpt><trkpt lat="59.0818119049" lon="30.0175452232"><time>2026-04-25T11:14:29Z</time></trkpt><trkpt lat="59.0817904472" lon="30.0176310539"><time>2026-04-25T11:14:32Z</time></trkpt><trkpt lat="59.0817689896" lon="30.0176739693"><time>2026-04-25T11:14:34Z</time></trkpt><trkpt lat="59.0817475319" lon="30.0176954269"><time>2026-04-25T11:14:37Z</time></trkpt><trkpt lat="59.0817260742" lon="30.0177168846"><time>2026-04-25T11:14:39Z</time></trkpt><trkpt lat="59.0816831589" lon="30.0177812576"><time>2026-04-25T11:14:52Z</time></trkpt><trkpt lat="59.0817046165" lon="30.0178241730"><time>2026-04-25T11:14:54Z</time></trkpt><trkpt lat="59.0817260742" lon="30.0178885460"><time>2026-04-25T11:14:57Z</time></trkpt><trkpt lat="59.0818119049" lon="30.0180816650"><time>2026-04-25T11:15:07Z</time></trkpt><trkpt lat="59.0817904472" lon="30.0180387497"><time>2026-04-25T11:15:09Z</time></trkpt><trkpt lat="59.0817689896" lon="30.0179958344"><time>2026-04-25T11:15:12Z</time></trkpt><trkpt lat="59.0817475319" lon="30.0179529190"><time>2026-04-25T11:15:14Z</time></trkpt><trkpt lat="59.0817475319" lon="30.0179958344"><time>2026-04-25T11:15:22Z</time></trkpt><trkpt lat="59.0817475319" lon="30.0180387497"><time>2026-04-25T11:15:24Z</time></trkpt><trkpt lat="59.0817475319" lon="30.0180602074"><time>2026-04-25T11:15:27Z</time></trkpt><trkpt lat="59.0817260742" lon="30.0181031227"><time>2026-04-25T11:15:29Z</time></trkpt><trkpt lat="59.0817046165" lon="30.0181674957"><time>2026-04-25T11:15:32Z</time></trkpt><trkpt lat="59.0816831589" lon="30.0182104111"><time>2026-04-25T11:15:34Z</time></trkpt><trkpt lat="59.0816617012" lon="30.0182104111"><time>2026-04-25T11:15:37Z</time></trkpt><trkpt lat="59.0816402435" lon="30.0182747841"><time>2026-04-25T11:15:39Z</time></trkpt><trkpt lat="59.0816617012" lon="30.0183176994"><time>2026-04-25T11:15:42Z</time></trkpt><trkpt lat="59.0816831589" lon="30.0183606148"><time>2026-04-25T11:15:44Z</time></trkpt><trkpt lat="59.0817046165" lon="30.0183820724"><time>2026-04-25T11:15:47Z</time></trkpt><trkpt lat="59.0817046165" lon="30.0184249878"><time>2026-04-25T11:15:49Z</time></trkpt><trkpt lat="59.0817046165" lon="30.0185322762"><time>2026-04-25T11:15:52Z</time></trkpt><trkpt lat="59.0817260742" lon="30.0185966492"><time>2026-04-25T11:15:54Z</time></trkpt><trkpt lat="59.0817475319" lon="30.0186824799"><time>2026-04-25T11:15:59Z</time></trkpt><trkpt lat="59.0817904472" lon="30.0187468529"><time>2026-04-25T11:16:02Z</time></trkpt><trkpt lat="59.0818119049" lon="30.0187468529"><time>2026-04-25T11:16:04Z</time></trkpt><trkpt lat="59.0818119049" lon="30.0186610222"><time>2026-04-25T11:16:07Z</time></trkpt><trkpt lat="59.0817904472" lon="30.0186395645"><time>2026-04-25T11:16:09Z</time></trkpt><trkpt lat="59.0817904472" lon="30.0186181068"><time>2026-04-25T11:16:12Z</time></trkpt><trkpt lat="59.0818119049" lon="30.0186181068"><time>2026-04-25T11:16:14Z</time></trkpt><trkpt lat="59.0818548203" lon="30.0187039375"><time>2026-04-25T11:16:17Z</time></trkpt><trkpt lat="59.0818762779" lon="30.0187468529"><time>2026-04-25T11:16:19Z</time></trkpt><trkpt lat="59.0819191933" lon="30.0188326836"><time>2026-04-25T11:16:22Z</time></trkpt><trkpt lat="59.0819406509" lon="30.0188970566"><time>2026-04-25T11:16:24Z</time></trkpt><trkpt lat="59.0819835663" lon="30.0189399719"><time>2026-04-25T11:16:27Z</time></trkpt><trkpt lat="59.0820050240" lon="30.0190043449"><time>2026-04-25T11:16:29Z</time></trkpt><trkpt lat="59.0819621086" lon="30.0190258026"><time>2026-04-25T11:16:32Z</time></trkpt><trkpt lat="59.0819191933" lon="30.0191116333"><time>2026-04-25T11:16:34Z</time></trkpt><trkpt lat="59.0818762779" lon="30.0191116333"><time>2026-04-25T11:16:37Z</time></trkpt><trkpt lat="59.0818333626" lon="30.0190687180"><time>2026-04-25T11:16:39Z</time></trkpt><trkpt lat="59.0817904472" lon="30.0190472603"><time>2026-04-25T11:16:42Z</time></trkpt><trkpt lat="59.0817689896" lon="30.0190043449"><time>2026-04-25T11:16:44Z</time></trkpt><trkpt lat="59.0817689896" lon="30.0189185143"><time>2026-04-25T11:16:57Z</time></trkpt><trkpt lat="59.0817689896" lon="30.0189614296"><time>2026-04-25T11:17:04Z</time></trkpt><trkpt lat="59.0817475319" lon="30.0189828873"><time>2026-04-25T11:17:07Z</time></trkpt><trkpt lat="59.0817260742" lon="30.0190472603"><time>2026-04-25T11:17:09Z</time></trkpt><trkpt lat="59.0817260742" lon="30.0191330910"><time>2026-04-25T11:17:12Z</time></trkpt><trkpt lat="59.0817260742" lon="30.0192189217"><time>2026-04-25T11:17:14Z</time></trkpt><trkpt lat="59.0816831589" lon="30.0193047523"><time>2026-04-25T11:17:19Z</time></trkpt><trkpt lat="59.0816402435" lon="30.0193262100"><time>2026-04-25T11:17:22Z</time></trkpt><trkpt lat="59.0815973282" lon="30.0193476677"><time>2026-04-25T11:17:24Z</time></trkpt><trkpt lat="59.0815544128" lon="30.0194334984"><time>2026-04-25T11:17:32Z</time></trkpt><trkpt lat="59.0815329552" lon="30.0194978714"><time>2026-04-25T11:17:34Z</time></trkpt><trkpt lat="59.0814685822" lon="30.0194978714"><time>2026-04-25T11:17:42Z</time></trkpt><trkpt lat="59.0814256668" lon="30.0194978714"><time>2026-04-25T11:17:44Z</time></trkpt><trkpt lat="59.0813612938" lon="30.0195193291"><time>2026-04-25T11:17:47Z</time></trkpt><trkpt lat="59.0812969208" lon="30.0195193291"><time>2026-04-25T11:17:49Z</time></trkpt><trkpt lat="59.0812540054" lon="30.0195193291"><time>2026-04-25T11:17:52Z</time></trkpt><trkpt lat="59.0811896324" lon="30.0194978714"><time>2026-04-25T11:17:54Z</time></trkpt><trkpt lat="59.0811681747" lon="30.0194120407"><time>2026-04-25T11:17:57Z</time></trkpt><trkpt lat="59.0811467171" lon="30.0194764137"><time>2026-04-25T11:18:02Z</time></trkpt><trkpt lat="59.0811896324" lon="30.0194549561"><time>2026-04-25T11:18:12Z</time></trkpt><trkpt lat="59.0812325478" lon="30.0194334984"><time>2026-04-25T11:18:14Z</time></trkpt><trkpt lat="59.0812540054" lon="30.0194120407"><time>2026-04-25T11:18:17Z</time></trkpt><trkpt lat="59.0812540054" lon="30.0194549561"><time>2026-04-25T11:18:19Z</time></trkpt><trkpt lat="59.0812325478" lon="30.0194549561"><time>2026-04-25T11:18:22Z</time></trkpt><trkpt lat="59.0811681747" lon="30.0194978714"><time>2026-04-25T11:18:24Z</time></trkpt><trkpt lat="59.0811252594" lon="30.0195193291"><time>2026-04-25T11:18:49Z</time></trkpt><trkpt lat="59.0811467171" lon="30.0194764137"><time>2026-04-25T11:18:52Z</time></trkpt><trkpt lat="59.0811896324" lon="30.0194549561"><time>2026-04-25T11:18:54Z</time></trkpt><trkpt lat="59.0812325478" lon="30.0194334984"><time>2026-04-25T11:18:57Z</time></trkpt><trkpt lat="59.0812325478" lon="30.0194120407"><time>2026-04-25T11:19:04Z</time></trkpt><trkpt lat="59.0811896324" lon="30.0193691254"><time>2026-04-25T11:19:07Z</time></trkpt><trkpt lat="59.0811467171" lon="30.0193262100"><time>2026-04-25T11:19:09Z</time></trkpt><trkpt lat="59.0811038017" lon="30.0193047523"><time>2026-04-25T11:19:17Z</time></trkpt><trkpt lat="59.0810823441" lon="30.0193476677"><time>2026-04-25T11:19:19Z</time></trkpt><trkpt lat="59.0810179710" lon="30.0192189217"><time>2026-04-25T11:19:32Z</time></trkpt><trkpt lat="59.0810394287" lon="30.0191116333"><time>2026-04-25T11:19:37Z</time></trkpt><trkpt lat="59.0810394287" lon="30.0190258026"><time>2026-04-25T11:19:39Z</time></trkpt><trkpt lat="59.0810608864" lon="30.0189828873"><time>2026-04-25T11:19:42Z</time></trkpt><trkpt lat="59.0810823441" lon="30.0190043449"><time>2026-04-25T11:19:44Z</time></trkpt><trkpt lat="59.0810394287" lon="30.0190043449"><time>2026-04-25T11:19:47Z</time></trkpt><trkpt lat="59.0809965134" lon="30.0188970566"><time>2026-04-25T11:19:49Z</time></trkpt><trkpt lat="59.0809535980" lon="30.0188970566"><time>2026-04-25T11:19:52Z</time></trkpt><trkpt lat="59.0809750557" lon="30.0188755989"><time>2026-04-25T11:19:54Z</time></trkpt><trkpt lat="59.0810179710" lon="30.0188112259"><time>2026-04-25T11:19:57Z</time></trkpt><trkpt lat="59.0810394287" lon="30.0187468529"><time>2026-04-25T11:19:59Z</time></trkpt><trkpt lat="59.0810179710" lon="30.0186824799"><time>2026-04-25T11:20:02Z</time></trkpt><trkpt lat="59.0809321404" lon="30.0185537338"><time>2026-04-25T11:20:09Z</time></trkpt><trkpt lat="59.0809106827" lon="30.0184249878"><time>2026-04-25T11:20:12Z</time></trkpt><trkpt lat="59.0808677673" lon="30.0183820724"><time>2026-04-25T11:20:14Z</time></trkpt><trkpt lat="59.0808463097" lon="30.0183606148"><time>2026-04-25T11:20:17Z</time></trkpt><trkpt lat="59.0808248520" lon="30.0182747841"><time>2026-04-25T11:20:19Z</time></trkpt><trkpt lat="59.0808033943" lon="30.0182533264"><time>2026-04-25T11:20:22Z</time></trkpt><trkpt lat="59.0808463097" lon="30.0181245804"><time>2026-04-25T11:20:27Z</time></trkpt><trkpt lat="59.0808677673" lon="30.0180816650"><time>2026-04-25T11:20:29Z</time></trkpt><trkpt lat="59.0809106827" lon="30.0180602074"><time>2026-04-25T11:20:32Z</time></trkpt><trkpt lat="59.0809535980" lon="30.0180387497"><time>2026-04-25T11:20:34Z</time></trkpt><trkpt lat="59.0809750557" lon="30.0179100037"><time>2026-04-25T11:20:37Z</time></trkpt><trkpt lat="59.0809535980" lon="30.0178241730"><time>2026-04-25T11:20:39Z</time></trkpt><trkpt lat="59.0809106827" lon="30.0178885460"><time>2026-04-25T11:20:42Z</time></trkpt><trkpt lat="59.0809106827" lon="30.0179743767"><time>2026-04-25T11:20:44Z</time></trkpt><trkpt lat="59.0809321404" lon="30.0180387497"><time>2026-04-25T11:20:47Z</time></trkpt><trkpt lat="59.0809965134" lon="30.0180602074"><time>2026-04-25T11:20:57Z</time></trkpt><trkpt lat="59.0810394287" lon="30.0180172920"><time>2026-04-25T11:20:59Z</time></trkpt><trkpt lat="59.0810608864" lon="30.0179100037"><time>2026-04-25T11:21:02Z</time></trkpt><trkpt lat="59.0810608864" lon="30.0178456306"><time>2026-04-25T11:21:04Z</time></trkpt><trkpt lat="59.0809750557" lon="30.0178241730"><time>2026-04-25T11:21:17Z</time></trkpt><trkpt lat="59.0809535980" lon="30.0178670883"><time>2026-04-25T11:21:19Z</time></trkpt><trkpt lat="59.0809321404" lon="30.0178885460"><time>2026-04-25T11:21:22Z</time></trkpt><trkpt lat="59.0808248520" lon="30.0179100037"><time>2026-04-25T11:21:27Z</time></trkpt><trkpt lat="59.0807604790" lon="30.0179314613"><time>2026-04-25T11:21:29Z</time></trkpt><trkpt lat="59.0806961060" lon="30.0179314613"><time>2026-04-25T11:21:32Z</time></trkpt><trkpt lat="59.0806746483" lon="30.0179100037"><time>2026-04-25T11:21:34Z</time></trkpt><trkpt lat="59.0806531906" lon="30.0178670883"><time>2026-04-25T11:21:37Z</time></trkpt><trkpt lat="59.0806531906" lon="30.0178456306"><time>2026-04-25T11:21:39Z</time></trkpt><trkpt lat="59.0806531906" lon="30.0176954269"><time>2026-04-25T11:21:52Z</time></trkpt><trkpt lat="59.0806746483" lon="30.0176525116"><time>2026-04-25T11:21:54Z</time></trkpt><trkpt lat="59.0807175636" lon="30.0175881386"><time>2026-04-25T11:21:57Z</time></trkpt><trkpt lat="59.0807604790" lon="30.0175237656"><time>2026-04-25T11:21:59Z</time></trkpt><trkpt lat="59.0808033943" lon="30.0174593925"><time>2026-04-25T11:22:02Z</time></trkpt><trkpt lat="59.0808677673" lon="30.0173950195"><time>2026-04-25T11:22:04Z</time></trkpt><trkpt lat="59.0809106827" lon="30.0173950195"><time>2026-04-25T11:22:07Z</time></trkpt><trkpt lat="59.0809321404" lon="30.0175023079"><time>2026-04-25T11:22:09Z</time></trkpt><trkpt lat="59.0809750557" lon="30.0175666809"><time>2026-04-25T11:22:12Z</time></trkpt><trkpt lat="59.0809965134" lon="30.0176310539"><time>2026-04-25T11:22:14Z</time></trkpt><trkpt lat="59.0809965134" lon="30.0176954269"><time>2026-04-25T11:22:17Z</time></trkpt><trkpt lat="59.0809750557" lon="30.0177598000"><time>2026-04-25T11:22:19Z</time></trkpt><trkpt lat="59.0809321404" lon="30.0178241730"><time>2026-04-25T11:22:22Z</time></trkpt><trkpt lat="59.0808892250" lon="30.0178241730"><time>2026-04-25T11:22:24Z</time></trkpt><trkpt lat="59.0808463097" lon="30.0178027153"><time>2026-04-25T11:22:27Z</time></trkpt><trkpt lat="59.0808248520" lon="30.0177383423"><time>2026-04-25T11:22:29Z</time></trkpt><trkpt lat="59.0808033943" lon="30.0176954269"><time>2026-04-25T11:22:32Z</time></trkpt><trkpt lat="59.0807390213" lon="30.0176739693"><time>2026-04-25T11:22:34Z</time></trkpt><trkpt lat="59.0807175636" lon="30.0177168846"><time>2026-04-25T11:22:37Z</time></trkpt><trkpt lat="59.0806961060" lon="30.0178027153"><time>2026-04-25T11:22:39Z</time></trkpt><trkpt lat="59.0807604790" lon="30.0177812576"><time>2026-04-25T11:22:44Z</time></trkpt><trkpt lat="59.0807175636" lon="30.0178241730"><time>2026-04-25T11:22:49Z</time></trkpt><trkpt lat="59.0806531906" lon="30.0178241730"><time>2026-04-25T11:22:52Z</time></trkpt><trkpt lat="59.0806317329" lon="30.0178027153"><time>2026-04-25T11:22:54Z</time></trkpt><trkpt lat="59.0805888176" lon="30.0177168846"><time>2026-04-25T11:22:57Z</time></trkpt><trkpt lat="59.0805459023" lon="30.0176310539"><time>2026-04-25T11:22:59Z</time></trkpt><trkpt lat="59.0805244446" lon="30.0175452232"><time>2026-04-25T11:23:02Z</time></trkpt><trkpt lat="59.0805459023" lon="30.0174593925"><time>2026-04-25T11:23:04Z</time></trkpt><trkpt lat="59.0805459023" lon="30.0173735619"><time>2026-04-25T11:23:07Z</time></trkpt><trkpt lat="59.0805459023" lon="30.0172877312"><time>2026-04-25T11:23:09Z</time></trkpt><trkpt lat="59.0805673599" lon="30.0171804428"><time>2026-04-25T11:23:12Z</time></trkpt><trkpt lat="59.0806102753" lon="30.0170946121"><time>2026-04-25T11:23:14Z</time></trkpt><trkpt lat="59.0806746483" lon="30.0170302391"><time>2026-04-25T11:23:17Z</time></trkpt><trkpt lat="59.0806961060" lon="30.0169444084"><time>2026-04-25T11:23:19Z</time></trkpt><trkpt lat="59.0806961060" lon="30.0168585777"><time>2026-04-25T11:23:22Z</time></trkpt><trkpt lat="59.0806746483" lon="30.0168156624"><time>2026-04-25T11:23:24Z</time></trkpt><trkpt lat="59.0806102753" lon="30.0167942047"><time>2026-04-25T11:23:32Z</time></trkpt><trkpt lat="59.0805888176" lon="30.0167942047"><time>2026-04-25T11:23:34Z</time></trkpt><trkpt lat="59.0805244446" lon="30.0168371201"><time>2026-04-25T11:23:37Z</time></trkpt><trkpt lat="59.0805029869" lon="30.0168156624"><time>2026-04-25T11:23:39Z</time></trkpt><trkpt lat="59.0804815292" lon="30.0167727470"><time>2026-04-25T11:23:42Z</time></trkpt><trkpt lat="59.0804386139" lon="30.0166225433"><time>2026-04-25T11:23:47Z</time></trkpt><trkpt lat="59.0804171562" lon="30.0165367126"><time>2026-04-25T11:23:49Z</time></trkpt><trkpt lat="59.0804171562" lon="30.0166440010"><time>2026-04-25T11:23:52Z</time></trkpt><trkpt lat="59.0804171562" lon="30.0167298317"><time>2026-04-25T11:23:54Z</time></trkpt><trkpt lat="59.0804386139" lon="30.0167942047"><time>2026-04-25T11:23:57Z</time></trkpt><trkpt lat="59.0804600716" lon="30.0168156624"><time>2026-04-25T11:23:59Z</time></trkpt><trkpt lat="59.0805029869" lon="30.0168371201"><time>2026-04-25T11:24:02Z</time></trkpt><trkpt lat="59.0805459023" lon="30.0168371201"><time>2026-04-25T11:24:04Z</time></trkpt><trkpt lat="59.0805888176" lon="30.0168371201"><time>2026-04-25T11:24:07Z</time></trkpt><trkpt lat="59.0806531906" lon="30.0168800354"><time>2026-04-25T11:24:09Z</time></trkpt><trkpt lat="59.0806961060" lon="30.0169873238"><time>2026-04-25T11:24:12Z</time></trkpt><trkpt lat="59.0807390213" lon="30.0170946121"><time>2026-04-25T11:24:14Z</time></trkpt><trkpt lat="59.0807819366" lon="30.0171375275"><time>2026-04-25T11:24:17Z</time></trkpt><trkpt lat="59.0807819366" lon="30.0172019005"><time>2026-04-25T11:24:19Z</time></trkpt><trkpt lat="59.0807175636" lon="30.0172877312"><time>2026-04-25T11:24:27Z</time></trkpt><trkpt lat="59.0807390213" lon="30.0172662735"><time>2026-04-25T11:24:32Z</time></trkpt><trkpt lat="59.0807819366" lon="30.0172662735"><time>2026-04-25T11:24:34Z</time></trkpt><trkpt lat="59.0808033943" lon="30.0172233582"><time>2026-04-25T11:24:44Z</time></trkpt><trkpt lat="59.0808677673" lon="30.0171804428"><time>2026-04-25T11:24:47Z</time></trkpt><trkpt lat="59.0808463097" lon="30.0171804428"><time>2026-04-25T11:24:49Z</time></trkpt><trkpt lat="59.0808033943" lon="30.0172019005"><time>2026-04-25T11:24:52Z</time></trkpt><trkpt lat="59.0807819366" lon="30.0172233582"><time>2026-04-25T11:24:54Z</time></trkpt><trkpt lat="59.0807390213" lon="30.0173306465"><time>2026-04-25T11:25:12Z</time></trkpt><trkpt lat="59.0807175636" lon="30.0173521042"><time>2026-04-25T11:25:17Z</time></trkpt><trkpt lat="59.0806531906" lon="30.0173950195"><time>2026-04-25T11:25:29Z</time></trkpt><trkpt lat="59.0806317329" lon="30.0174164772"><time>2026-04-25T11:25:34Z</time></trkpt><trkpt lat="59.0805673599" lon="30.0175452232"><time>2026-04-25T11:25:42Z</time></trkpt><trkpt lat="59.0804600716" lon="30.0175237656"><time>2026-04-25T11:26:12Z</time></trkpt><trkpt lat="59.0804815292" lon="30.0175452232"><time>2026-04-25T11:26:34Z</time></trkpt><trkpt lat="59.0804600716" lon="30.0176739693"><time>2026-04-25T11:26:42Z</time></trkpt><trkpt lat="59.0804386139" lon="30.0176954269"><time>2026-04-25T11:26:59Z</time></trkpt><trkpt lat="59.0804815292" lon="30.0178027153"><time>2026-04-25T11:27:07Z</time></trkpt><trkpt lat="59.0804815292" lon="30.0179100037"><time>2026-04-25T11:27:09Z</time></trkpt><trkpt lat="59.0804815292" lon="30.0180602074"><time>2026-04-25T11:27:14Z</time></trkpt><trkpt lat="59.0805029869" lon="30.0179958344"><time>2026-04-25T11:27:24Z</time></trkpt><trkpt lat="59.0805244446" lon="30.0179529190"><time>2026-04-25T11:27:27Z</time></trkpt><trkpt lat="59.0805673599" lon="30.0180816650"><time>2026-04-25T11:27:42Z</time></trkpt><trkpt lat="59.0805888176" lon="30.0181460381"><time>2026-04-25T11:27:44Z</time></trkpt><trkpt lat="59.0806102753" lon="30.0182318687"><time>2026-04-25T11:27:47Z</time></trkpt><trkpt lat="59.0805459023" lon="30.0183391571"><time>2026-04-25T11:27:52Z</time></trkpt><trkpt lat="59.0804815292" lon="30.0183391571"><time>2026-04-25T11:27:54Z</time></trkpt><trkpt lat="59.0804171562" lon="30.0184035301"><time>2026-04-25T11:28:02Z</time></trkpt><trkpt lat="59.0803956985" lon="30.0182747841"><time>2026-04-25T11:28:07Z</time></trkpt><trkpt lat="59.0803527832" lon="30.0182533264"><time>2026-04-25T11:28:09Z</time></trkpt><trkpt lat="59.0803098679" lon="30.0181674957"><time>2026-04-25T11:28:12Z</time></trkpt><trkpt lat="59.0802669525" lon="30.0181674957"><time>2026-04-25T11:28:14Z</time></trkpt><trkpt lat="59.0802240372" lon="30.0181460381"><time>2026-04-25T11:28:17Z</time></trkpt><trkpt lat="59.0802025795" lon="30.0180602074"><time>2026-04-25T11:28:19Z</time></trkpt><trkpt lat="59.0801382065" lon="30.0180816650"><time>2026-04-25T11:28:27Z</time></trkpt><trkpt lat="59.0800952911" lon="30.0181460381"><time>2026-04-25T11:28:29Z</time></trkpt><trkpt lat="59.0800523758" lon="30.0182104111"><time>2026-04-25T11:28:32Z</time></trkpt><trkpt lat="59.0799880028" lon="30.0183606148"><time>2026-04-25T11:28:39Z</time></trkpt><trkpt lat="59.0800309181" lon="30.0183176994"><time>2026-04-25T11:28:47Z</time></trkpt><trkpt lat="59.0800309181" lon="30.0182533264"><time>2026-04-25T11:28:49Z</time></trkpt><trkpt lat="59.0800523758" lon="30.0181460381"><time>2026-04-25T11:28:59Z</time></trkpt><trkpt lat="59.0800523758" lon="30.0180816650"><time>2026-04-25T11:29:02Z</time></trkpt><trkpt lat="59.0800952911" lon="30.0180816650"><time>2026-04-25T11:29:07Z</time></trkpt><trkpt lat="59.0801382065" lon="30.0181031227"><time>2026-04-25T11:29:09Z</time></trkpt><trkpt lat="59.0801811218" lon="30.0181031227"><time>2026-04-25T11:29:12Z</time></trkpt><trkpt lat="59.0802240372" lon="30.0181460381"><time>2026-04-25T11:29:14Z</time></trkpt><trkpt lat="59.0803098679" lon="30.0181889534"><time>2026-04-25T11:29:17Z</time></trkpt><trkpt lat="59.0803742409" lon="30.0181889534"><time>2026-04-25T11:29:19Z</time></trkpt><trkpt lat="59.0804171562" lon="30.0182533264"><time>2026-04-25T11:29:22Z</time></trkpt><trkpt lat="59.0804815292" lon="30.0182533264"><time>2026-04-25T11:29:24Z</time></trkpt><trkpt lat="59.0805459023" lon="30.0182747841"><time>2026-04-25T11:29:27Z</time></trkpt><trkpt lat="59.0805888176" lon="30.0183176994"><time>2026-04-25T11:29:29Z</time></trkpt><trkpt lat="59.0805888176" lon="30.0182962418"><time>2026-04-25T11:29:59Z</time></trkpt><trkpt lat="59.0805888176" lon="30.0182962418"><time>2026-04-25T11:30:04Z</time></trkpt><trkpt lat="59.0805888176" lon="30.0183176994"><time>2026-04-25T11:30:24Z</time></trkpt><trkpt lat="59.0806102753" lon="30.0183391571"><time>2026-04-25T11:30:39Z</time></trkpt><trkpt lat="59.0807390213" lon="30.0186181068"><time>2026-04-25T11:30:59Z</time></trkpt><trkpt lat="59.0807390213" lon="30.0187683105"><time>2026-04-25T11:31:17Z</time></trkpt><trkpt lat="59.0807175636" lon="30.0188326836"><time>2026-04-25T11:31:19Z</time></trkpt><trkpt lat="59.0808033943" lon="30.0188541412"><time>2026-04-25T11:31:37Z</time></trkpt><trkpt lat="59.0808677673" lon="30.0188326836"><time>2026-04-25T11:31:39Z</time></trkpt><trkpt lat="59.0808892250" lon="30.0188326836"><time>2026-04-25T11:31:42Z</time></trkpt><trkpt lat="59.0808892250" lon="30.0189185143"><time>2026-04-25T11:31:44Z</time></trkpt><trkpt lat="59.0808892250" lon="30.0190472603"><time>2026-04-25T11:31:47Z</time></trkpt><trkpt lat="59.0808677673" lon="30.0191545486"><time>2026-04-25T11:31:49Z</time></trkpt><trkpt lat="59.0808463097" lon="30.0192618370"><time>2026-04-25T11:31:52Z</time></trkpt><trkpt lat="59.0808033943" lon="30.0192832947"><time>2026-04-25T11:31:54Z</time></trkpt><trkpt lat="59.0807604790" lon="30.0193047523"><time>2026-04-25T11:31:57Z</time></trkpt><trkpt lat="59.0806961060" lon="30.0196051598"><time>2026-04-25T11:32:27Z</time></trkpt><trkpt lat="59.0807390213" lon="30.0195193291"><time>2026-04-25T11:32:57Z</time></trkpt><trkpt lat="59.0807390213" lon="30.0195193291"><time>2026-04-25T11:33:04Z</time></trkpt><trkpt lat="59.0807390213" lon="30.0194978714"><time>2026-04-25T11:33:12Z</time></trkpt><trkpt lat="59.0807175636" lon="30.0193691254"><time>2026-04-25T11:33:17Z</time></trkpt><trkpt lat="59.0807390213" lon="30.0193476677"><time>2026-04-25T11:33:19Z</time></trkpt><trkpt lat="59.0806317329" lon="30.0193691254"><time>2026-04-25T11:33:49Z</time></trkpt><trkpt lat="59.0805888176" lon="30.0193476677"><time>2026-04-25T11:33:52Z</time></trkpt><trkpt lat="59.0805673599" lon="30.0193476677"><time>2026-04-25T11:33:54Z</time></trkpt><trkpt lat="59.0805673599" lon="30.0194120407"><time>2026-04-25T11:33:57Z</time></trkpt><trkpt lat="59.0805459023" lon="30.0194334984"><time>2026-04-25T11:33:59Z</time></trkpt><trkpt lat="59.0804171562" lon="30.0195622444"><time>2026-04-25T11:34:29Z</time></trkpt><trkpt lat="59.0803313255" lon="30.0197124481"><time>2026-04-25T11:34:49Z</time></trkpt><trkpt lat="59.0803098679" lon="30.0197768211"><time>2026-04-25T11:34:52Z</time></trkpt><trkpt lat="59.0802669525" lon="30.0198197365"><time>2026-04-25T11:34:54Z</time></trkpt><trkpt lat="59.0802454948" lon="30.0198197365"><time>2026-04-25T11:34:57Z</time></trkpt><trkpt lat="59.0802669525" lon="30.0197982788"><time>2026-04-25T11:34:59Z</time></trkpt><trkpt lat="59.0803098679" lon="30.0197768211"><time>2026-04-25T11:35:02Z</time></trkpt><trkpt lat="59.0803742409" lon="30.0198197365"><time>2026-04-25T11:35:12Z</time></trkpt><trkpt lat="59.0803742409" lon="30.0198626518"><time>2026-04-25T11:35:14Z</time></trkpt><trkpt lat="59.0803098679" lon="30.0198626518"><time>2026-04-25T11:35:32Z</time></trkpt><trkpt lat="59.0803313255" lon="30.0197982788"><time>2026-04-25T11:35:34Z</time></trkpt><trkpt lat="59.0802669525" lon="30.0197768211"><time>2026-04-25T11:35:49Z</time></trkpt><trkpt lat="59.0803098679" lon="30.0196480751"><time>2026-04-25T11:36:19Z</time></trkpt><trkpt lat="59.0802669525" lon="30.0196051598"><time>2026-04-25T11:36:22Z</time></trkpt><trkpt lat="59.0802240372" lon="30.0195622444"><time>2026-04-25T11:36:27Z</time></trkpt><trkpt lat="59.0801382065" lon="30.0194334984"><time>2026-04-25T11:36:34Z</time></trkpt><trkpt lat="59.0801596642" lon="30.0193691254"><time>2026-04-25T11:36:47Z</time></trkpt><trkpt lat="59.0801811218" lon="30.0192832947"><time>2026-04-25T11:36:49Z</time></trkpt><trkpt lat="59.0802240372" lon="30.0192189217"><time>2026-04-25T11:36:57Z</time></trkpt><trkpt lat="59.0802240372" lon="30.0190472603"><time>2026-04-25T11:37:07Z</time></trkpt><trkpt lat="59.0802454948" lon="30.0190043449"><time>2026-04-25T11:37:09Z</time></trkpt><trkpt lat="59.0802454948" lon="30.0190258026"><time>2026-04-25T11:37:12Z</time></trkpt><trkpt lat="59.0802240372" lon="30.0190901756"><time>2026-04-25T11:37:14Z</time></trkpt><trkpt lat="59.0802025795" lon="30.0191330910"><time>2026-04-25T11:37:17Z</time></trkpt><trkpt lat="59.0802025795" lon="30.0190901756"><time>2026-04-25T11:37:19Z</time></trkpt><trkpt lat="59.0802240372" lon="30.0190043449"><time>2026-04-25T11:37:22Z</time></trkpt><trkpt lat="59.0802669525" lon="30.0189614296"><time>2026-04-25T11:37:24Z</time></trkpt><trkpt lat="59.0802884102" lon="30.0188755989"><time>2026-04-25T11:37:27Z</time></trkpt><trkpt lat="59.0803098679" lon="30.0188112259"><time>2026-04-25T11:37:29Z</time></trkpt><trkpt lat="59.0802884102" lon="30.0187897682"><time>2026-04-25T11:37:32Z</time></trkpt><trkpt lat="59.0802669525" lon="30.0187683105"><time>2026-04-25T11:37:34Z</time></trkpt><trkpt lat="59.0802240372" lon="30.0187683105"><time>2026-04-25T11:37:39Z</time></trkpt><trkpt lat="59.0801382065" lon="30.0186824799"><time>2026-04-25T11:37:59Z</time></trkpt><trkpt lat="59.0801167488" lon="30.0186395645"><time>2026-04-25T11:38:02Z</time></trkpt><trkpt lat="59.0801382065" lon="30.0185537338"><time>2026-04-25T11:38:04Z</time></trkpt><trkpt lat="59.0801382065" lon="30.0185322762"><time>2026-04-25T11:38:07Z</time></trkpt><trkpt lat="59.0800952911" lon="30.0184464455"><time>2026-04-25T11:38:29Z</time></trkpt><trkpt lat="59.0800523758" lon="30.0183606148"><time>2026-04-25T11:38:32Z</time></trkpt><trkpt lat="59.0800094604" lon="30.0183176994"><time>2026-04-25T11:38:34Z</time></trkpt><trkpt lat="59.0799665451" lon="30.0182962418"><time>2026-04-25T11:38:37Z</time></trkpt><trkpt lat="59.0799450874" lon="30.0182318687"><time>2026-04-25T11:38:39Z</time></trkpt><trkpt lat="59.0799450874" lon="30.0182962418"><time>2026-04-25T11:38:47Z</time></trkpt><trkpt lat="59.0799665451" lon="30.0183820724"><time>2026-04-25T11:38:49Z</time></trkpt><trkpt lat="59.0799665451" lon="30.0183820724"><time>2026-04-25T11:39:02Z</time></trkpt><trkpt lat="59.0799450874" lon="30.0182962418"><time>2026-04-25T11:39:09Z</time></trkpt><trkpt lat="59.0798592567" lon="30.0181245804"><time>2026-04-25T11:39:17Z</time></trkpt><trkpt lat="59.0798807144" lon="30.0181460381"><time>2026-04-25T11:39:29Z</time></trkpt><trkpt lat="59.0799021721" lon="30.0181889534"><time>2026-04-25T11:39:32Z</time></trkpt><trkpt lat="59.0799236298" lon="30.0182318687"><time>2026-04-25T11:40:02Z</time></trkpt><trkpt lat="59.0799236298" lon="30.0182533264"><time>2026-04-25T11:40:09Z</time></trkpt><trkpt lat="59.0799021721" lon="30.0182318687"><time>2026-04-25T11:40:14Z</time></trkpt><trkpt lat="59.0798807144" lon="30.0181889534"><time>2026-04-25T11:40:17Z</time></trkpt><trkpt lat="59.0798163414" lon="30.0182533264"><time>2026-04-25T11:40:47Z</time></trkpt><trkpt lat="59.0798163414" lon="30.0182533264"><time>2026-04-25T11:41:17Z</time></trkpt><trkpt lat="59.0798377991" lon="30.0181889534"><time>2026-04-25T11:41:47Z</time></trkpt><trkpt lat="59.0799450874" lon="30.0181674957"><time>2026-04-25T11:42:17Z</time></trkpt><trkpt lat="59.0799880028" lon="30.0181031227"><time>2026-04-25T11:42:24Z</time></trkpt><trkpt lat="59.0800309181" lon="30.0180387497"><time>2026-04-25T11:42:29Z</time></trkpt><trkpt lat="59.0800523758" lon="30.0179743767"><time>2026-04-25T11:42:32Z</time></trkpt><trkpt lat="59.0800523758" lon="30.0179314613"><time>2026-04-25T11:43:02Z</time></trkpt><trkpt lat="59.0799880028" lon="30.0178670883"><time>2026-04-25T11:43:07Z</time></trkpt><trkpt lat="59.0799665451" lon="30.0178670883"><time>2026-04-25T11:43:24Z</time></trkpt><trkpt lat="59.0799665451" lon="30.0177812576"><time>2026-04-25T11:43:39Z</time></trkpt><trkpt lat="59.0799880028" lon="30.0177168846"><time>2026-04-25T11:43:42Z</time></trkpt><trkpt lat="59.0799880028" lon="30.0176310539"><time>2026-04-25T11:43:47Z</time></trkpt><trkpt lat="59.0799450874" lon="30.0174379349"><time>2026-04-25T11:43:54Z</time></trkpt><trkpt lat="59.0799236298" lon="30.0174379349"><time>2026-04-25T11:43:57Z</time></trkpt><trkpt lat="59.0799236298" lon="30.0173521042"><time>2026-04-25T11:44:07Z</time></trkpt><trkpt lat="59.0798592567" lon="30.0173950195"><time>2026-04-25T11:44:17Z</time></trkpt><trkpt lat="59.0798163414" lon="30.0174164772"><time>2026-04-25T11:44:19Z</time></trkpt><trkpt lat="59.0797948837" lon="30.0173950195"><time>2026-04-25T11:44:22Z</time></trkpt><trkpt lat="59.0797948837" lon="30.0173306465"><time>2026-04-25T11:44:24Z</time></trkpt><trkpt lat="59.0797948837" lon="30.0172448158"><time>2026-04-25T11:44:27Z</time></trkpt><trkpt lat="59.0797948837" lon="30.0171804428"><time>2026-04-25T11:44:29Z</time></trkpt><trkpt lat="59.0797948837" lon="30.0170946121"><time>2026-04-25T11:44:32Z</time></trkpt><trkpt lat="59.0797734261" lon="30.0170087814"><time>2026-04-25T11:44:34Z</time></trkpt><trkpt lat="59.0797519684" lon="30.0169444084"><time>2026-04-25T11:44:37Z</time></trkpt><trkpt lat="59.0797305107" lon="30.0168800354"><time>2026-04-25T11:44:39Z</time></trkpt><trkpt lat="59.0797090530" lon="30.0168156624"><time>2026-04-25T11:44:42Z</time></trkpt><trkpt lat="59.0796875954" lon="30.0168800354"><time>2026-04-25T11:44:52Z</time></trkpt><trkpt lat="59.0797519684" lon="30.0169014931"><time>2026-04-25T11:44:59Z</time></trkpt><trkpt lat="59.0797948837" lon="30.0169658661"><time>2026-04-25T11:45:02Z</time></trkpt><trkpt lat="59.0798163414" lon="30.0170731544"><time>2026-04-25T11:45:04Z</time></trkpt><trkpt lat="59.0798377991" lon="30.0171804428"><time>2026-04-25T11:45:07Z</time></trkpt><trkpt lat="59.0798377991" lon="30.0172019005"><time>2026-04-25T11:45:37Z</time></trkpt><trkpt lat="59.0798163414" lon="30.0172019005"><time>2026-04-25T11:46:02Z</time></trkpt><trkpt lat="59.0798163414" lon="30.0172019005"><time>2026-04-25T11:46:32Z</time></trkpt><trkpt lat="59.0798163414" lon="30.0172019005"><time>2026-04-25T11:47:02Z</time></trkpt><trkpt lat="59.0798163414" lon="30.0172019005"><time>2026-04-25T11:47:32Z</time></trkpt><trkpt lat="59.0798163414" lon="30.0172233582"><time>2026-04-25T11:48:02Z</time></trkpt><trkpt lat="59.0798163414" lon="30.0172233582"><time>2026-04-25T11:48:32Z</time></trkpt><trkpt lat="59.0798163414" lon="30.0172233582"><time>2026-04-25T11:49:02Z</time></trkpt><trkpt lat="59.0798163414" lon="30.0172233582"><time>2026-04-25T11:49:32Z</time></trkpt><trkpt lat="59.0798163414" lon="30.0172233582"><time>2026-04-25T11:50:02Z</time></trkpt><trkpt lat="59.0798163414" lon="30.0172233582"><time>2026-04-25T11:50:32Z</time></trkpt><trkpt lat="59.0798163414" lon="30.0172448158"><time>2026-04-25T11:51:02Z</time></trkpt><trkpt lat="59.0798163414" lon="30.0172448158"><time>2026-04-25T11:51:32Z</time></trkpt><trkpt lat="59.0798163414" lon="30.0172448158"><time>2026-04-25T11:52:02Z</time></trkpt><trkpt lat="59.0798163414" lon="30.0172448158"><time>2026-04-25T11:52:32Z</time></trkpt><trkpt lat="59.0798163414" lon="30.0172448158"><time>2026-04-25T11:53:02Z</time></trkpt><trkpt lat="59.0798163414" lon="30.0172662735"><time>2026-04-25T11:53:32Z</time></trkpt><trkpt lat="59.0798163414" lon="30.0172662735"><time>2026-04-25T11:54:02Z</time></trkpt><trkpt lat="59.0798163414" lon="30.0172662735"><time>2026-04-25T11:54:32Z</time></trkpt><trkpt lat="59.0798163414" lon="30.0172877312"><time>2026-04-25T11:55:02Z</time></trkpt><trkpt lat="59.0798163414" lon="30.0172877312"><time>2026-04-25T11:55:32Z</time></trkpt><trkpt lat="59.0798163414" lon="30.0172877312"><time>2026-04-25T11:56:02Z</time></trkpt><trkpt lat="59.0798163414" lon="30.0172877312"><time>2026-04-25T11:56:32Z</time></trkpt><trkpt lat="59.0798163414" lon="30.0172877312"><time>2026-04-25T11:57:02Z</time></trkpt><trkpt lat="59.0798163414" lon="30.0173091888"><time>2026-04-25T11:57:32Z</time></trkpt><trkpt lat="59.0798163414" lon="30.0173091888"><time>2026-04-25T11:58:02Z</time></trkpt><trkpt lat="59.0798163414" lon="30.0173091888"><time>2026-04-25T11:58:32Z</time></trkpt><trkpt lat="59.0798807144" lon="30.0174164772"><time>2026-04-25T11:59:02Z</time></trkpt><trkpt lat="59.0798807144" lon="30.0174379349"><time>2026-04-25T11:59:32Z</time></trkpt><trkpt lat="59.0798807144" lon="30.0173950195"><time>2026-04-25T12:00:02Z</time></trkpt><trkpt lat="59.0798807144" lon="30.0173950195"><time>2026-04-25T12:00:32Z</time></trkpt><trkpt lat="59.0798807144" lon="30.0173950195"><time>2026-04-25T12:01:02Z</time></trkpt><trkpt lat="59.0799021721" lon="30.0173735619"><time>2026-04-25T12:01:32Z</time></trkpt><trkpt lat="59.0798807144" lon="30.0173735619"><time>2026-04-25T12:02:02Z</time></trkpt><trkpt lat="59.0798807144" lon="30.0173735619"><time>2026-04-25T12:02:32Z</time></trkpt><trkpt lat="59.0798807144" lon="30.0173735619"><time>2026-04-25T12:03:02Z</time></trkpt><trkpt lat="59.0799021721" lon="30.0173306465"><time>2026-04-25T12:03:07Z</time></trkpt><trkpt lat="59.0798592567" lon="30.0173950195"><time>2026-04-25T12:03:17Z</time></trkpt><trkpt lat="59.0798592567" lon="30.0173735619"><time>2026-04-25T12:03:47Z</time></trkpt><trkpt lat="59.0798807144" lon="30.0173950195"><time>2026-04-25T12:04:17Z</time></trkpt><trkpt lat="59.0798592567" lon="30.0173950195"><time>2026-04-25T12:04:47Z</time></trkpt><trkpt lat="59.0798377991" lon="30.0173735619"><time>2026-04-25T12:05:17Z</time></trkpt><trkpt lat="59.0798592567" lon="30.0173950195"><time>2026-04-25T12:05:47Z</time></trkpt><trkpt lat="59.0798592567" lon="30.0173950195"><time>2026-04-25T12:06:17Z</time></trkpt><trkpt lat="59.0798377991" lon="30.0174164772"><time>2026-04-25T12:06:47Z</time></trkpt><trkpt lat="59.0798377991" lon="30.0174164772"><time>2026-04-25T12:07:17Z</time></trkpt><trkpt lat="59.0798377991" lon="30.0174164772"><time>2026-04-25T12:07:47Z</time></trkpt><trkpt lat="59.0798377991" lon="30.0174164772"><time>2026-04-25T12:08:17Z</time></trkpt><trkpt lat="59.0798377991" lon="30.0173950195"><time>2026-04-25T12:08:47Z</time></trkpt><trkpt lat="59.0798377991" lon="30.0173950195"><time>2026-04-25T12:09:17Z</time></trkpt><trkpt lat="59.0798377991" lon="30.0173950195"><time>2026-04-25T12:09:47Z</time></trkpt><trkpt lat="59.0798377991" lon="30.0173950195"><time>2026-04-25T12:10:17Z</time></trkpt><trkpt lat="59.0798377991" lon="30.0173950195"><time>2026-04-25T12:10:47Z</time></trkpt><trkpt lat="59.0798377991" lon="30.0173950195"><time>2026-04-25T12:11:17Z</time></trkpt><trkpt lat="59.0798377991" lon="30.0173950195"><time>2026-04-25T12:11:47Z</time></trkpt><trkpt lat="59.0798377991" lon="30.0174379349"><time>2026-04-25T12:12:17Z</time></trkpt><trkpt lat="59.0798377991" lon="30.0174379349"><time>2026-04-25T12:12:47Z</time></trkpt><trkpt lat="59.0798592567" lon="30.0174593925"><time>2026-04-25T12:13:17Z</time></trkpt><trkpt lat="59.0798377991" lon="30.0175452232"><time>2026-04-25T12:13:22Z</time></trkpt><trkpt lat="59.0797948837" lon="30.0175666809"><time>2026-04-25T12:13:24Z</time></trkpt><trkpt lat="59.0797948837" lon="30.0175237656"><time>2026-04-25T12:13:27Z</time></trkpt><trkpt lat="59.0797734261" lon="30.0175023079"><time>2026-04-25T12:13:29Z</time></trkpt><trkpt lat="59.0797948837" lon="30.0174593925"><time>2026-04-25T12:13:32Z</time></trkpt><trkpt lat="59.0798377991" lon="30.0174164772"><time>2026-04-25T12:13:37Z</time></trkpt><trkpt lat="59.0798807144" lon="30.0174164772"><time>2026-04-25T12:13:39Z</time></trkpt><trkpt lat="59.0798592567" lon="30.0174379349"><time>2026-04-25T12:14:09Z</time></trkpt><trkpt lat="59.0798592567" lon="30.0174379349"><time>2026-04-25T12:14:39Z</time></trkpt><trkpt lat="59.0798592567" lon="30.0174379349"><time>2026-04-25T12:14:59Z</time></trkpt><trkpt lat="59.0798592567" lon="30.0173950195"><time>2026-04-25T12:15:12Z</time></trkpt><trkpt lat="59.0798377991" lon="30.0174808502"><time>2026-04-25T12:15:14Z</time></trkpt><trkpt lat="59.0798163414" lon="30.0175666809"><time>2026-04-25T12:15:17Z</time></trkpt><trkpt lat="59.0797734261" lon="30.0175666809"><time>2026-04-25T12:15:19Z</time></trkpt><trkpt lat="59.0797519684" lon="30.0176095963"><time>2026-04-25T12:15:22Z</time></trkpt><trkpt lat="59.0797305107" lon="30.0176310539"><time>2026-04-25T12:15:24Z</time></trkpt><trkpt lat="59.0796661377" lon="30.0177812576"><time>2026-04-25T12:15:54Z</time></trkpt><trkpt lat="59.0796446800" lon="30.0178456306"><time>2026-04-25T12:15:57Z</time></trkpt><trkpt lat="59.0795588493" lon="30.0180172920"><time>2026-04-25T12:16:09Z</time></trkpt><trkpt lat="59.0795159340" lon="30.0180816650"><time>2026-04-25T12:16:22Z</time></trkpt><trkpt lat="59.0795159340" lon="30.0181674957"><time>2026-04-25T12:16:27Z</time></trkpt><trkpt lat="59.0794730186" lon="30.0181460381"><time>2026-04-25T12:16:32Z</time></trkpt><trkpt lat="59.0794515610" lon="30.0181031227"><time>2026-04-25T12:16:34Z</time></trkpt><trkpt lat="59.0794515610" lon="30.0180602074"><time>2026-04-25T12:16:37Z</time></trkpt><trkpt lat="59.0793657303" lon="30.0180387497"><time>2026-04-25T12:17:07Z</time></trkpt><trkpt lat="59.0793657303" lon="30.0180172920"><time>2026-04-25T12:17:32Z</time></trkpt><trkpt lat="59.0793871880" lon="30.0180602074"><time>2026-04-25T12:18:02Z</time></trkpt><trkpt lat="59.0794944763" lon="30.0182962418"><time>2026-04-25T12:18:32Z</time></trkpt><trkpt lat="59.0794730186" lon="30.0183391571"><time>2026-04-25T12:18:34Z</time></trkpt><trkpt lat="59.0794730186" lon="30.0184249878"><time>2026-04-25T12:18:44Z</time></trkpt><trkpt lat="59.0794944763" lon="30.0184464455"><time>2026-04-25T12:18:47Z</time></trkpt><trkpt lat="59.0795373917" lon="30.0184679031"><time>2026-04-25T12:18:49Z</time></trkpt><trkpt lat="59.0795159340" lon="30.0185108185"><time>2026-04-25T12:18:52Z</time></trkpt><trkpt lat="59.0795588493" lon="30.0186181068"><time>2026-04-25T12:19:12Z</time></trkpt><trkpt lat="59.0795588493" lon="30.0187039375"><time>2026-04-25T12:19:14Z</time></trkpt><trkpt lat="59.0795803070" lon="30.0188112259"><time>2026-04-25T12:19:44Z</time></trkpt><trkpt lat="59.0795803070" lon="30.0188112259"><time>2026-04-25T12:19:47Z</time></trkpt><trkpt lat="59.0795588493" lon="30.0188755989"><time>2026-04-25T12:20:02Z</time></trkpt><trkpt lat="59.0795373917" lon="30.0189614296"><time>2026-04-25T12:20:04Z</time></trkpt><trkpt lat="59.0794730186" lon="30.0190687180"><time>2026-04-25T12:20:07Z</time></trkpt><trkpt lat="59.0794515610" lon="30.0190687180"><time>2026-04-25T12:20:09Z</time></trkpt><trkpt lat="59.0794086456" lon="30.0191116333"><time>2026-04-25T12:20:22Z</time></trkpt><trkpt lat="59.0794515610" lon="30.0191974640"><time>2026-04-25T12:20:24Z</time></trkpt><trkpt lat="59.0794515610" lon="30.0192618370"><time>2026-04-25T12:20:27Z</time></trkpt><trkpt lat="59.0794515610" lon="30.0192189217"><time>2026-04-25T12:20:29Z</time></trkpt><trkpt lat="59.0794730186" lon="30.0192618370"><time>2026-04-25T12:20:47Z</time></trkpt><trkpt lat="59.0794944763" lon="30.0193262100"><time>2026-04-25T12:20:49Z</time></trkpt><trkpt lat="59.0795588493" lon="30.0195622444"><time>2026-04-25T12:21:12Z</time></trkpt><trkpt lat="59.0796017647" lon="30.0196051598"><time>2026-04-25T12:21:14Z</time></trkpt><trkpt lat="59.0795803070" lon="30.0196909904"><time>2026-04-25T12:21:17Z</time></trkpt><trkpt lat="59.0795803070" lon="30.0197768211"><time>2026-04-25T12:21:19Z</time></trkpt><trkpt lat="59.0795803070" lon="30.0198411942"><time>2026-04-25T12:21:22Z</time></trkpt><trkpt lat="59.0796017647" lon="30.0199055672"><time>2026-04-25T12:21:24Z</time></trkpt><trkpt lat="59.0796232224" lon="30.0199270248"><time>2026-04-25T12:21:27Z</time></trkpt><trkpt lat="59.0796017647" lon="30.0199913979"><time>2026-04-25T12:21:29Z</time></trkpt><trkpt lat="59.0796017647" lon="30.0200986862"><time>2026-04-25T12:21:32Z</time></trkpt><trkpt lat="59.0796017647" lon="30.0201630592"><time>2026-04-25T12:21:34Z</time></trkpt><trkpt lat="59.0796017647" lon="30.0200986862"><time>2026-04-25T12:21:42Z</time></trkpt><trkpt lat="59.0796232224" lon="30.0199913979"><time>2026-04-25T12:21:44Z</time></trkpt><trkpt lat="59.0796232224" lon="30.0199055672"><time>2026-04-25T12:21:47Z</time></trkpt><trkpt lat="59.0796232224" lon="30.0197982788"><time>2026-04-25T12:21:49Z</time></trkpt><trkpt lat="59.0796661377" lon="30.0196695328"><time>2026-04-25T12:21:52Z</time></trkpt><trkpt lat="59.0796875954" lon="30.0196266174"><time>2026-04-25T12:21:54Z</time></trkpt><trkpt lat="59.0796875954" lon="30.0196909904"><time>2026-04-25T12:22:02Z</time></trkpt><trkpt lat="59.0796661377" lon="30.0197553635"><time>2026-04-25T12:22:04Z</time></trkpt><trkpt lat="59.0796446800" lon="30.0198197365"><time>2026-04-25T12:22:07Z</time></trkpt><trkpt lat="59.0797090530" lon="30.0196266174"><time>2026-04-25T12:22:19Z</time></trkpt><trkpt lat="59.0797305107" lon="30.0195407867"><time>2026-04-25T12:22:22Z</time></trkpt><trkpt lat="59.0797948837" lon="30.0196266174"><time>2026-04-25T12:22:27Z</time></trkpt><trkpt lat="59.0798807144" lon="30.0197124481"><time>2026-04-25T12:22:34Z</time></trkpt><trkpt lat="59.0798807144" lon="30.0197768211"><time>2026-04-25T12:22:37Z</time></trkpt><trkpt lat="59.0798807144" lon="30.0198626518"><time>2026-04-25T12:22:39Z</time></trkpt><trkpt lat="59.0798807144" lon="30.0199270248"><time>2026-04-25T12:22:42Z</time></trkpt><trkpt lat="59.0799021721" lon="30.0200343132"><time>2026-04-25T12:22:44Z</time></trkpt><trkpt lat="59.0799236298" lon="30.0201416016"><time>2026-04-25T12:22:47Z</time></trkpt><trkpt lat="59.0799450874" lon="30.0201845169"><time>2026-04-25T12:22:49Z</time></trkpt><trkpt lat="59.0799236298" lon="30.0203132629"><time>2026-04-25T12:22:59Z</time></trkpt><trkpt lat="59.0798807144" lon="30.0203347206"><time>2026-04-25T12:23:02Z</time></trkpt><trkpt lat="59.0798377991" lon="30.0203347206"><time>2026-04-25T12:23:04Z</time></trkpt><trkpt lat="59.0797948837" lon="30.0202703476"><time>2026-04-25T12:23:07Z</time></trkpt><trkpt lat="59.0797519684" lon="30.0202274323"><time>2026-04-25T12:23:09Z</time></trkpt><trkpt lat="59.0797305107" lon="30.0201630592"><time>2026-04-25T12:23:12Z</time></trkpt><trkpt lat="59.0796875954" lon="30.0201630592"><time>2026-04-25T12:23:14Z</time></trkpt><trkpt lat="59.0796661377" lon="30.0200772285"><time>2026-04-25T12:23:17Z</time></trkpt><trkpt lat="59.0796875954" lon="30.0199699402"><time>2026-04-25T12:23:19Z</time></trkpt><trkpt lat="59.0797948837" lon="30.0200128555"><time>2026-04-25T12:23:49Z</time></trkpt><trkpt lat="59.0797948837" lon="30.0199484825"><time>2026-04-25T12:23:52Z</time></trkpt><trkpt lat="59.0798377991" lon="30.0199270248"><time>2026-04-25T12:23:54Z</time></trkpt><trkpt lat="59.0798592567" lon="30.0199699402"><time>2026-04-25T12:23:57Z</time></trkpt><trkpt lat="59.0798592567" lon="30.0199913979"><time>2026-04-25T12:23:59Z</time></trkpt><trkpt lat="59.0797948837" lon="30.0199699402"><time>2026-04-25T12:24:02Z</time></trkpt><trkpt lat="59.0797948837" lon="30.0199484825"><time>2026-04-25T12:24:04Z</time></trkpt><trkpt lat="59.0797090530" lon="30.0201416016"><time>2026-04-25T12:24:34Z</time></trkpt><trkpt lat="59.0796875954" lon="30.0202059746"><time>2026-04-25T12:24:37Z</time></trkpt><trkpt lat="59.0796232224" lon="30.0202703476"><time>2026-04-25T12:25:07Z</time></trkpt><trkpt lat="59.0795803070" lon="30.0201845169"><time>2026-04-25T12:25:09Z</time></trkpt><trkpt lat="59.0793657303" lon="30.0202274323"><time>2026-04-25T12:25:37Z</time></trkpt><trkpt lat="59.0793013573" lon="30.0202274323"><time>2026-04-25T12:25:39Z</time></trkpt><trkpt lat="59.0792584419" lon="30.0202274323"><time>2026-04-25T12:25:42Z</time></trkpt><trkpt lat="59.0792369843" lon="30.0202488899"><time>2026-04-25T12:25:47Z</time></trkpt><trkpt lat="59.0792369843" lon="30.0203347206"><time>2026-04-25T12:26:17Z</time></trkpt><trkpt lat="59.0792584419" lon="30.0203776360"><time>2026-04-25T12:26:39Z</time></trkpt><trkpt lat="59.0792584419" lon="30.0203132629"><time>2026-04-25T12:26:49Z</time></trkpt><trkpt lat="59.0792798996" lon="30.0201416016"><time>2026-04-25T12:26:54Z</time></trkpt><trkpt lat="59.0792584419" lon="30.0200557709"><time>2026-04-25T12:26:57Z</time></trkpt><trkpt lat="59.0792584419" lon="30.0199913979"><time>2026-04-25T12:26:59Z</time></trkpt><trkpt lat="59.0792369843" lon="30.0199055672"><time>2026-04-25T12:27:02Z</time></trkpt><trkpt lat="59.0792584419" lon="30.0198411942"><time>2026-04-25T12:27:04Z</time></trkpt><trkpt lat="59.0791940689" lon="30.0195407867"><time>2026-04-25T12:27:22Z</time></trkpt><trkpt lat="59.0791726112" lon="30.0194764137"><time>2026-04-25T12:27:32Z</time></trkpt><trkpt lat="59.0791511536" lon="30.0194334984"><time>2026-04-25T12:27:34Z</time></trkpt><trkpt lat="59.0791296959" lon="30.0194549561"><time>2026-04-25T12:27:47Z</time></trkpt><trkpt lat="59.0791511536" lon="30.0195193291"><time>2026-04-25T12:27:49Z</time></trkpt><trkpt lat="59.0791511536" lon="30.0195837021"><time>2026-04-25T12:27:52Z</time></trkpt><trkpt lat="59.0791511536" lon="30.0196480751"><time>2026-04-25T12:27:54Z</time></trkpt><trkpt lat="59.0791511536" lon="30.0195407867"><time>2026-04-25T12:28:02Z</time></trkpt><trkpt lat="59.0791726112" lon="30.0194764137"><time>2026-04-25T12:28:04Z</time></trkpt><trkpt lat="59.0791726112" lon="30.0194120407"><time>2026-04-25T12:28:07Z</time></trkpt><trkpt lat="59.0791726112" lon="30.0193047523"><time>2026-04-25T12:28:09Z</time></trkpt><trkpt lat="59.0792155266" lon="30.0192189217"><time>2026-04-25T12:28:17Z</time></trkpt><trkpt lat="59.0792155266" lon="30.0191545486"><time>2026-04-25T12:28:32Z</time></trkpt><trkpt lat="59.0792369843" lon="30.0191116333"><time>2026-04-25T12:28:49Z</time></trkpt><trkpt lat="59.0791726112" lon="30.0190472603"><time>2026-04-25T12:28:54Z</time></trkpt><trkpt lat="59.0791511536" lon="30.0188755989"><time>2026-04-25T12:29:02Z</time></trkpt><trkpt lat="59.0791726112" lon="30.0187897682"><time>2026-04-25T12:29:04Z</time></trkpt><trkpt lat="59.0791296959" lon="30.0187039375"><time>2026-04-25T12:29:22Z</time></trkpt><trkpt lat="59.0791082382" lon="30.0186181068"><time>2026-04-25T12:29:24Z</time></trkpt><trkpt lat="59.0790653229" lon="30.0185751915"><time>2026-04-25T12:29:27Z</time></trkpt><trkpt lat="59.0790653229" lon="30.0185108185"><time>2026-04-25T12:29:29Z</time></trkpt><trkpt lat="59.0790653229" lon="30.0185751915"><time>2026-04-25T12:29:34Z</time></trkpt><trkpt lat="59.0790653229" lon="30.0186610222"><time>2026-04-25T12:29:37Z</time></trkpt><trkpt lat="59.0790224075" lon="30.0187253952"><time>2026-04-25T12:29:42Z</time></trkpt><trkpt lat="59.0790009499" lon="30.0187468529"><time>2026-04-25T12:29:44Z</time></trkpt><trkpt lat="59.0789794922" lon="30.0187683105"><time>2026-04-25T12:29:47Z</time></trkpt><trkpt lat="59.0789580345" lon="30.0188112259"><time>2026-04-25T12:29:49Z</time></trkpt><trkpt lat="59.0789151192" lon="30.0188326836"><time>2026-04-25T12:29:52Z</time></trkpt><trkpt lat="59.0789151192" lon="30.0188112259"><time>2026-04-25T12:30:07Z</time></trkpt><trkpt lat="59.0788936615" lon="30.0187253952"><time>2026-04-25T12:30:09Z</time></trkpt><trkpt lat="59.0788722038" lon="30.0186395645"><time>2026-04-25T12:30:12Z</time></trkpt><trkpt lat="59.0788507462" lon="30.0185751915"><time>2026-04-25T12:30:14Z</time></trkpt><trkpt lat="59.0788292885" lon="30.0185322762"><time>2026-04-25T12:30:17Z</time></trkpt><trkpt lat="59.0788078308" lon="30.0184679031"><time>2026-04-25T12:30:29Z</time></trkpt><trkpt lat="59.0788078308" lon="30.0183606148"><time>2026-04-25T12:30:32Z</time></trkpt><trkpt lat="59.0788507462" lon="30.0182962418"><time>2026-04-25T12:30:37Z</time></trkpt><trkpt lat="59.0788722038" lon="30.0182533264"><time>2026-04-25T12:30:39Z</time></trkpt><trkpt lat="59.0788936615" lon="30.0182104111"><time>2026-04-25T12:30:42Z</time></trkpt><trkpt lat="59.0789151192" lon="30.0181460381"><time>2026-04-25T12:30:44Z</time></trkpt><trkpt lat="59.0789151192" lon="30.0180816650"><time>2026-04-25T12:30:47Z</time></trkpt><trkpt lat="59.0789580345" lon="30.0180172920"><time>2026-04-25T12:30:49Z</time></trkpt><trkpt lat="59.0789365768" lon="30.0179529190"><time>2026-04-25T12:30:52Z</time></trkpt><trkpt lat="59.0789151192" lon="30.0179529190"><time>2026-04-25T12:30:54Z</time></trkpt><trkpt lat="59.0789151192" lon="30.0179529190"><time>2026-04-25T12:31:24Z</time></trkpt><trkpt lat="59.0788722038" lon="30.0178670883"><time>2026-04-25T12:31:32Z</time></trkpt><trkpt lat="59.0788936615" lon="30.0179314613"><time>2026-04-25T12:31:34Z</time></trkpt><trkpt lat="59.0788936615" lon="30.0179100037"><time>2026-04-25T12:31:37Z</time></trkpt><trkpt lat="59.0788722038" lon="30.0178885460"><time>2026-04-25T12:31:39Z</time></trkpt><trkpt lat="59.0788507462" lon="30.0178456306"><time>2026-04-25T12:31:42Z</time></trkpt><trkpt lat="59.0788292885" lon="30.0178027153"><time>2026-04-25T12:31:44Z</time></trkpt><trkpt lat="59.0788078308" lon="30.0177168846"><time>2026-04-25T12:31:47Z</time></trkpt><trkpt lat="59.0787649155" lon="30.0176954269"><time>2026-04-25T12:31:49Z</time></trkpt><trkpt lat="59.0787434578" lon="30.0176525116"><time>2026-04-25T12:31:52Z</time></trkpt><trkpt lat="59.0787434578" lon="30.0175881386"><time>2026-04-25T12:31:54Z</time></trkpt><trkpt lat="59.0787434578" lon="30.0174808502"><time>2026-04-25T12:31:59Z</time></trkpt><trkpt lat="59.0787220001" lon="30.0174379349"><time>2026-04-25T12:32:02Z</time></trkpt><trkpt lat="59.0787005424" lon="30.0173735619"><time>2026-04-25T12:32:04Z</time></trkpt><trkpt lat="59.0786576271" lon="30.0173950195"><time>2026-04-25T12:32:07Z</time></trkpt><trkpt lat="59.0786147118" lon="30.0174164772"><time>2026-04-25T12:32:09Z</time></trkpt><trkpt lat="59.0785932541" lon="30.0174164772"><time>2026-04-25T12:32:12Z</time></trkpt><trkpt lat="59.0785288811" lon="30.0173306465"><time>2026-04-25T12:32:14Z</time></trkpt><trkpt lat="59.0784859657" lon="30.0173950195"><time>2026-04-25T12:32:17Z</time></trkpt><trkpt lat="59.0784645081" lon="30.0174593925"><time>2026-04-25T12:32:19Z</time></trkpt><trkpt lat="59.0784430504" lon="30.0175452232"><time>2026-04-25T12:32:22Z</time></trkpt><trkpt lat="59.0784645081" lon="30.0176739693"><time>2026-04-25T12:32:32Z</time></trkpt><trkpt lat="59.0785074234" lon="30.0178027153"><time>2026-04-25T12:32:34Z</time></trkpt><trkpt lat="59.0786361694" lon="30.0181674957"><time>2026-04-25T12:32:44Z</time></trkpt><trkpt lat="59.0785503387" lon="30.0182533264"><time>2026-04-25T12:32:54Z</time></trkpt><trkpt lat="59.0785074234" lon="30.0184035301"><time>2026-04-25T12:33:07Z</time></trkpt><trkpt lat="59.0784215927" lon="30.0184249878"><time>2026-04-25T12:33:24Z</time></trkpt><trkpt lat="59.0784215927" lon="30.0184893608"><time>2026-04-25T12:33:39Z</time></trkpt><trkpt lat="59.0784001350" lon="30.0185751915"><time>2026-04-25T12:33:52Z</time></trkpt><trkpt lat="59.0784215927" lon="30.0185966492"><time>2026-04-25T12:33:54Z</time></trkpt><trkpt lat="59.0784430504" lon="30.0185751915"><time>2026-04-25T12:33:57Z</time></trkpt><trkpt lat="59.0784645081" lon="30.0185966492"><time>2026-04-25T12:33:59Z</time></trkpt><trkpt lat="59.0784859657" lon="30.0185322762"><time>2026-04-25T12:34:02Z</time></trkpt><trkpt lat="59.0785074234" lon="30.0184679031"><time>2026-04-25T12:34:04Z</time></trkpt><trkpt lat="59.0784645081" lon="30.0184679031"><time>2026-04-25T12:34:07Z</time></trkpt><trkpt lat="59.0784001350" lon="30.0184679031"><time>2026-04-25T12:34:09Z</time></trkpt><trkpt lat="59.0784215927" lon="30.0184893608"><time>2026-04-25T12:34:24Z</time></trkpt><trkpt lat="59.0784430504" lon="30.0185751915"><time>2026-04-25T12:34:27Z</time></trkpt><trkpt lat="59.0784645081" lon="30.0186395645"><time>2026-04-25T12:34:29Z</time></trkpt><trkpt lat="59.0784859657" lon="30.0187039375"><time>2026-04-25T12:34:32Z</time></trkpt><trkpt lat="59.0784645081" lon="30.0187253952"><time>2026-04-25T12:34:34Z</time></trkpt><trkpt lat="59.0784645081" lon="30.0187897682"><time>2026-04-25T12:34:37Z</time></trkpt><trkpt lat="59.0784859657" lon="30.0188541412"><time>2026-04-25T12:34:39Z</time></trkpt><trkpt lat="59.0784859657" lon="30.0189614296"><time>2026-04-25T12:34:42Z</time></trkpt><trkpt lat="59.0785074234" lon="30.0190043449"><time>2026-04-25T12:34:49Z</time></trkpt><trkpt lat="59.0785503387" lon="30.0189614296"><time>2026-04-25T12:34:52Z</time></trkpt><trkpt lat="59.0785503387" lon="30.0189185143"><time>2026-04-25T12:34:54Z</time></trkpt><trkpt lat="59.0785503387" lon="30.0189399719"><time>2026-04-25T12:34:57Z</time></trkpt><trkpt lat="59.0785288811" lon="30.0189614296"><time>2026-04-25T12:34:59Z</time></trkpt><trkpt lat="59.0785717964" lon="30.0190687180"><time>2026-04-25T12:35:04Z</time></trkpt><trkpt lat="59.0785932541" lon="30.0191760063"><time>2026-04-25T12:35:07Z</time></trkpt><trkpt lat="59.0786361694" lon="30.0192403793"><time>2026-04-25T12:35:09Z</time></trkpt><trkpt lat="59.0786361694" lon="30.0192832947"><time>2026-04-25T12:35:12Z</time></trkpt><trkpt lat="59.0786361694" lon="30.0192832947"><time>2026-04-25T12:35:29Z</time></trkpt><trkpt lat="59.0786576271" lon="30.0193476677"><time>2026-04-25T12:35:32Z</time></trkpt><trkpt lat="59.0786576271" lon="30.0194120407"><time>2026-04-25T12:35:34Z</time></trkpt><trkpt lat="59.0786576271" lon="30.0195193291"><time>2026-04-25T12:35:37Z</time></trkpt><trkpt lat="59.0786361694" lon="30.0195622444"><time>2026-04-25T12:35:39Z</time></trkpt><trkpt lat="59.0786147118" lon="30.0196266174"><time>2026-04-25T12:35:42Z</time></trkpt><trkpt lat="59.0786361694" lon="30.0195837021"><time>2026-04-25T12:35:49Z</time></trkpt><trkpt lat="59.0786576271" lon="30.0195622444"><time>2026-04-25T12:35:52Z</time></trkpt><trkpt lat="59.0787005424" lon="30.0196051598"><time>2026-04-25T12:36:07Z</time></trkpt><trkpt lat="59.0788722038" lon="30.0199055672"><time>2026-04-25T12:36:37Z</time></trkpt><trkpt lat="59.0788936615" lon="30.0199484825"><time>2026-04-25T12:36:39Z</time></trkpt><trkpt lat="59.0789151192" lon="30.0200557709"><time>2026-04-25T12:36:42Z</time></trkpt><trkpt lat="59.0788936615" lon="30.0201201439"><time>2026-04-25T12:36:44Z</time></trkpt><trkpt lat="59.0788936615" lon="30.0201845169"><time>2026-04-25T12:36:47Z</time></trkpt><trkpt lat="59.0788722038" lon="30.0202274323"><time>2026-04-25T12:36:49Z</time></trkpt><trkpt lat="59.0788507462" lon="30.0202488899"><time>2026-04-25T12:37:19Z</time></trkpt><trkpt lat="59.0788507462" lon="30.0202274323"><time>2026-04-25T12:37:24Z</time></trkpt><trkpt lat="59.0788507462" lon="30.0202274323"><time>2026-04-25T12:37:37Z</time></trkpt><trkpt lat="59.0788078308" lon="30.0202059746"><time>2026-04-25T12:37:42Z</time></trkpt><trkpt lat="59.0787863731" lon="30.0202274323"><time>2026-04-25T12:37:44Z</time></trkpt><trkpt lat="59.0787434578" lon="30.0202703476"><time>2026-04-25T12:37:54Z</time></trkpt><trkpt lat="59.0787434578" lon="30.0203776360"><time>2026-04-25T12:38:24Z</time></trkpt><trkpt lat="59.0787220001" lon="30.0204634666"><time>2026-04-25T12:38:29Z</time></trkpt><trkpt lat="59.0787220001" lon="30.0206995010"><time>2026-04-25T12:38:37Z</time></trkpt><trkpt lat="59.0786790848" lon="30.0207424164"><time>2026-04-25T12:38:39Z</time></trkpt><trkpt lat="59.0785503387" lon="30.0208497047"><time>2026-04-25T12:38:57Z</time></trkpt><trkpt lat="59.0785503387" lon="30.0209140778"><time>2026-04-25T12:38:59Z</time></trkpt><trkpt lat="59.0785717964" lon="30.0209569931"><time>2026-04-25T12:39:02Z</time></trkpt><trkpt lat="59.0785717964" lon="30.0209999084"><time>2026-04-25T12:39:04Z</time></trkpt><trkpt lat="59.0784859657" lon="30.0209784508"><time>2026-04-25T12:39:09Z</time></trkpt><trkpt lat="59.0784430504" lon="30.0210213661"><time>2026-04-25T12:39:17Z</time></trkpt><trkpt lat="59.0784645081" lon="30.0209784508"><time>2026-04-25T12:39:22Z</time></trkpt><trkpt lat="59.0784859657" lon="30.0209784508"><time>2026-04-25T12:39:24Z</time></trkpt><trkpt lat="59.0785288811" lon="30.0210213661"><time>2026-04-25T12:39:27Z</time></trkpt><trkpt lat="59.0785503387" lon="30.0210857391"><time>2026-04-25T12:39:29Z</time></trkpt><trkpt lat="59.0785503387" lon="30.0211286545"><time>2026-04-25T12:39:32Z</time></trkpt><trkpt lat="59.0784645081" lon="30.0212574005"><time>2026-04-25T12:40:02Z</time></trkpt><trkpt lat="59.0784215927" lon="30.0212574005"><time>2026-04-25T12:40:04Z</time></trkpt><trkpt lat="59.0783357620" lon="30.0212574005"><time>2026-04-25T12:40:27Z</time></trkpt><trkpt lat="59.0782713890" lon="30.0211715698"><time>2026-04-25T12:40:37Z</time></trkpt><trkpt lat="59.0782928467" lon="30.0210213661"><time>2026-04-25T12:40:57Z</time></trkpt><trkpt lat="59.0782713890" lon="30.0210642815"><time>2026-04-25T12:41:27Z</time></trkpt><trkpt lat="59.0782713890" lon="30.0210642815"><time>2026-04-25T12:41:29Z</time></trkpt><trkpt lat="59.0782713890" lon="30.0210857391"><time>2026-04-25T12:41:47Z</time></trkpt><trkpt lat="59.0782284737" lon="30.0211071968"><time>2026-04-25T12:41:49Z</time></trkpt><trkpt lat="59.0781855583" lon="30.0211071968"><time>2026-04-25T12:41:52Z</time></trkpt><trkpt lat="59.0781426430" lon="30.0211071968"><time>2026-04-25T12:41:54Z</time></trkpt><trkpt lat="59.0780353546" lon="30.0211286545"><time>2026-04-25T12:42:24Z</time></trkpt><trkpt lat="59.0780568123" lon="30.0210642815"><time>2026-04-25T12:42:29Z</time></trkpt><trkpt lat="59.0780138969" lon="30.0210428238"><time>2026-04-25T12:42:32Z</time></trkpt><trkpt lat="59.0780138969" lon="30.0209784508"><time>2026-04-25T12:42:34Z</time></trkpt><trkpt lat="59.0779924393" lon="30.0209140778"><time>2026-04-25T12:42:37Z</time></trkpt><trkpt lat="59.0779924393" lon="30.0208282471"><time>2026-04-25T12:42:39Z</time></trkpt><trkpt lat="59.0779924393" lon="30.0206995010"><time>2026-04-25T12:42:49Z</time></trkpt><trkpt lat="59.0779495239" lon="30.0206565857"><time>2026-04-25T12:42:52Z</time></trkpt><trkpt lat="59.0780353546" lon="30.0205707550"><time>2026-04-25T12:43:07Z</time></trkpt><trkpt lat="59.0780997276" lon="30.0204849243"><time>2026-04-25T12:43:12Z</time></trkpt><trkpt lat="59.0782070160" lon="30.0203132629"><time>2026-04-25T12:43:32Z</time></trkpt><trkpt lat="59.0782713890" lon="30.0201630592"><time>2026-04-25T12:44:02Z</time></trkpt><trkpt lat="59.0782713890" lon="30.0201201439"><time>2026-04-25T12:44:04Z</time></trkpt><trkpt lat="59.0782284737" lon="30.0200986862"><time>2026-04-25T12:44:07Z</time></trkpt><trkpt lat="59.0782070160" lon="30.0200772285"><time>2026-04-25T12:44:09Z</time></trkpt><trkpt lat="59.0781855583" lon="30.0200772285"><time>2026-04-25T12:44:12Z</time></trkpt><trkpt lat="59.0781641006" lon="30.0200986862"><time>2026-04-25T12:44:14Z</time></trkpt><trkpt lat="59.0781641006" lon="30.0200557709"><time>2026-04-25T12:44:17Z</time></trkpt><trkpt lat="59.0782070160" lon="30.0199913979"><time>2026-04-25T12:44:39Z</time></trkpt><trkpt lat="59.0781855583" lon="30.0199699402"><time>2026-04-25T12:44:44Z</time></trkpt><trkpt lat="59.0780782700" lon="30.0197339058"><time>2026-04-25T12:45:07Z</time></trkpt><trkpt lat="59.0780568123" lon="30.0196909904"><time>2026-04-25T12:45:09Z</time></trkpt><trkpt lat="59.0779924393" lon="30.0196909904"><time>2026-04-25T12:45:29Z</time></trkpt><trkpt lat="59.0780353546" lon="30.0195407867"><time>2026-04-25T12:45:47Z</time></trkpt><trkpt lat="59.0780568123" lon="30.0194549561"><time>2026-04-25T12:45:49Z</time></trkpt><trkpt lat="59.0780353546" lon="30.0193691254"><time>2026-04-25T12:45:52Z</time></trkpt><trkpt lat="59.0780138969" lon="30.0193262100"><time>2026-04-25T12:45:54Z</time></trkpt><trkpt lat="59.0779709816" lon="30.0193047523"><time>2026-04-25T12:46:02Z</time></trkpt><trkpt lat="59.0779495239" lon="30.0192618370"><time>2026-04-25T12:46:04Z</time></trkpt><trkpt lat="59.0779280663" lon="30.0191330910"><time>2026-04-25T12:46:09Z</time></trkpt><trkpt lat="59.0778422356" lon="30.0190258026"><time>2026-04-25T12:46:22Z</time></trkpt><trkpt lat="59.0777993202" lon="30.0189828873"><time>2026-04-25T12:46:27Z</time></trkpt><trkpt lat="59.0777564049" lon="30.0189828873"><time>2026-04-25T12:46:29Z</time></trkpt><trkpt lat="59.0777564049" lon="30.0188970566"><time>2026-04-25T12:46:32Z</time></trkpt><trkpt lat="59.0777778625" lon="30.0188326836"><time>2026-04-25T12:46:34Z</time></trkpt><trkpt lat="59.0777993202" lon="30.0188112259"><time>2026-04-25T12:46:37Z</time></trkpt><trkpt lat="59.0778422356" lon="30.0187897682"><time>2026-04-25T12:46:39Z</time></trkpt><trkpt lat="59.0778422356" lon="30.0186395645"><time>2026-04-25T12:46:47Z</time></trkpt><trkpt lat="59.0777778625" lon="30.0182747841"><time>2026-04-25T12:47:02Z</time></trkpt><trkpt lat="59.0777778625" lon="30.0182104111"><time>2026-04-25T12:47:04Z</time></trkpt><trkpt lat="59.0777993202" lon="30.0181031227"><time>2026-04-25T12:47:09Z</time></trkpt><trkpt lat="59.0777778625" lon="30.0180172920"><time>2026-04-25T12:47:12Z</time></trkpt><trkpt lat="59.0777564049" lon="30.0179314613"><time>2026-04-25T12:47:14Z</time></trkpt><trkpt lat="59.0776705742" lon="30.0177812576"><time>2026-04-25T12:47:19Z</time></trkpt><trkpt lat="59.0777134895" lon="30.0178670883"><time>2026-04-25T12:47:22Z</time></trkpt><trkpt lat="59.0777134895" lon="30.0179743767"><time>2026-04-25T12:47:24Z</time></trkpt><trkpt lat="59.0777134895" lon="30.0180172920"><time>2026-04-25T12:47:27Z</time></trkpt><trkpt lat="59.0776920319" lon="30.0180602074"><time>2026-04-25T12:47:29Z</time></trkpt><trkpt lat="59.0776705742" lon="30.0180816650"><time>2026-04-25T12:47:32Z</time></trkpt><trkpt lat="59.0776491165" lon="30.0181460381"><time>2026-04-25T12:47:37Z</time></trkpt><trkpt lat="59.0776920319" lon="30.0182318687"><time>2026-04-25T12:47:42Z</time></trkpt><trkpt lat="59.0777134895" lon="30.0182962418"><time>2026-04-25T12:47:44Z</time></trkpt><trkpt lat="59.0777134895" lon="30.0183391571"><time>2026-04-25T12:47:47Z</time></trkpt><trkpt lat="59.0777134895" lon="30.0184249878"><time>2026-04-25T12:47:49Z</time></trkpt><trkpt lat="59.0777134895" lon="30.0184679031"><time>2026-04-25T12:47:52Z</time></trkpt><trkpt lat="59.0777349472" lon="30.0184893608"><time>2026-04-25T12:47:54Z</time></trkpt><trkpt lat="59.0777564049" lon="30.0185322762"><time>2026-04-25T12:47:57Z</time></trkpt><trkpt lat="59.0777778625" lon="30.0185966492"><time>2026-04-25T12:47:59Z</time></trkpt><trkpt lat="59.0777349472" lon="30.0185322762"><time>2026-04-25T12:48:04Z</time></trkpt><trkpt lat="59.0776920319" lon="30.0185322762"><time>2026-04-25T12:48:07Z</time></trkpt><trkpt lat="59.0776491165" lon="30.0185751915"><time>2026-04-25T12:48:09Z</time></trkpt><trkpt lat="59.0775847435" lon="30.0187468529"><time>2026-04-25T12:48:34Z</time></trkpt><trkpt lat="59.0775418282" lon="30.0188112259"><time>2026-04-25T12:48:37Z</time></trkpt><trkpt lat="59.0775203705" lon="30.0188755989"><time>2026-04-25T12:48:39Z</time></trkpt><trkpt lat="59.0774989128" lon="30.0189399719"><time>2026-04-25T12:48:42Z</time></trkpt><trkpt lat="59.0774989128" lon="30.0190258026"><time>2026-04-25T12:48:44Z</time></trkpt><trkpt lat="59.0774774551" lon="30.0191116333"><time>2026-04-25T12:48:47Z</time></trkpt><trkpt lat="59.0775203705" lon="30.0191974640"><time>2026-04-25T12:48:49Z</time></trkpt><trkpt lat="59.0775418282" lon="30.0193905830"><time>2026-04-25T12:48:54Z</time></trkpt><trkpt lat="59.0774989128" lon="30.0194978714"><time>2026-04-25T12:49:02Z</time></trkpt><trkpt lat="59.0773272514" lon="30.0196051598"><time>2026-04-25T12:49:24Z</time></trkpt><trkpt lat="59.0773701668" lon="30.0195407867"><time>2026-04-25T12:49:32Z</time></trkpt><trkpt lat="59.0773916245" lon="30.0195193291"><time>2026-04-25T12:49:34Z</time></trkpt><trkpt lat="59.0773487091" lon="30.0193905830"><time>2026-04-25T12:49:42Z</time></trkpt><trkpt lat="59.0773272514" lon="30.0192618370"><time>2026-04-25T12:49:44Z</time></trkpt><trkpt lat="59.0773487091" lon="30.0191545486"><time>2026-04-25T12:49:47Z</time></trkpt><trkpt lat="59.0773057938" lon="30.0191330910"><time>2026-04-25T12:49:54Z</time></trkpt><trkpt lat="59.0772628784" lon="30.0191760063"><time>2026-04-25T12:49:57Z</time></trkpt><trkpt lat="59.0772199631" lon="30.0192189217"><time>2026-04-25T12:49:59Z</time></trkpt><trkpt lat="59.0771770477" lon="30.0192832947"><time>2026-04-25T12:50:09Z</time></trkpt><trkpt lat="59.0771555901" lon="30.0193691254"><time>2026-04-25T12:50:12Z</time></trkpt><trkpt lat="59.0771555901" lon="30.0194334984"><time>2026-04-25T12:50:14Z</time></trkpt><trkpt lat="59.0771770477" lon="30.0194978714"><time>2026-04-25T12:50:17Z</time></trkpt><trkpt lat="59.0772199631" lon="30.0195407867"><time>2026-04-25T12:50:19Z</time></trkpt><trkpt lat="59.0772628784" lon="30.0195622444"><time>2026-04-25T12:50:22Z</time></trkpt><trkpt lat="59.0773057938" lon="30.0196051598"><time>2026-04-25T12:50:24Z</time></trkpt><trkpt lat="59.0773272514" lon="30.0195837021"><time>2026-04-25T12:50:27Z</time></trkpt><trkpt lat="59.0773701668" lon="30.0195622444"><time>2026-04-25T12:50:29Z</time></trkpt><trkpt lat="59.0774130821" lon="30.0195407867"><time>2026-04-25T12:50:32Z</time></trkpt><trkpt lat="59.0774559975" lon="30.0195193291"><time>2026-04-25T12:50:34Z</time></trkpt><trkpt lat="59.0773487091" lon="30.0194549561"><time>2026-04-25T12:50:52Z</time></trkpt><trkpt lat="59.0773272514" lon="30.0193691254"><time>2026-04-25T12:50:54Z</time></trkpt><trkpt lat="59.0772843361" lon="30.0192189217"><time>2026-04-25T12:50:57Z</time></trkpt><trkpt lat="59.0773057938" lon="30.0192618370"><time>2026-04-25T12:51:12Z</time></trkpt><trkpt lat="59.0773057938" lon="30.0193476677"><time>2026-04-25T12:51:14Z</time></trkpt><trkpt lat="59.0773701668" lon="30.0192832947"><time>2026-04-25T12:51:42Z</time></trkpt><trkpt lat="59.0773916245" lon="30.0192618370"><time>2026-04-25T12:51:44Z</time></trkpt><trkpt lat="59.0774345398" lon="30.0192189217"><time>2026-04-25T12:51:47Z</time></trkpt><trkpt lat="59.0774774551" lon="30.0191974640"><time>2026-04-25T12:51:49Z</time></trkpt><trkpt lat="59.0774774551" lon="30.0192403793"><time>2026-04-25T12:51:52Z</time></trkpt><trkpt lat="59.0775203705" lon="30.0193047523"><time>2026-04-25T12:51:54Z</time></trkpt><trkpt lat="59.0775632858" lon="30.0193905830"><time>2026-04-25T12:51:57Z</time></trkpt><trkpt lat="59.0776062012" lon="30.0194978714"><time>2026-04-25T12:51:59Z</time></trkpt><trkpt lat="59.0776062012" lon="30.0195622444"><time>2026-04-25T12:52:02Z</time></trkpt><trkpt lat="59.0776062012" lon="30.0196695328"><time>2026-04-25T12:52:04Z</time></trkpt><trkpt lat="59.0776062012" lon="30.0198197365"><time>2026-04-25T12:52:09Z</time></trkpt><trkpt lat="59.0775418282" lon="30.0199484825"><time>2026-04-25T12:52:29Z</time></trkpt><trkpt lat="59.0774989128" lon="30.0199055672"><time>2026-04-25T12:52:34Z</time></trkpt><trkpt lat="59.0774989128" lon="30.0198411942"><time>2026-04-25T12:52:37Z</time></trkpt><trkpt lat="59.0774989128" lon="30.0197768211"><time>2026-04-25T12:52:39Z</time></trkpt><trkpt lat="59.0774559975" lon="30.0197768211"><time>2026-04-25T12:52:42Z</time></trkpt><trkpt lat="59.0774130821" lon="30.0197339058"><time>2026-04-25T12:52:44Z</time></trkpt><trkpt lat="59.0773916245" lon="30.0196480751"><time>2026-04-25T12:52:47Z</time></trkpt><trkpt lat="59.0773701668" lon="30.0195622444"><time>2026-04-25T12:52:49Z</time></trkpt><trkpt lat="59.0773057938" lon="30.0194549561"><time>2026-04-25T12:52:54Z</time></trkpt><trkpt lat="59.0772843361" lon="30.0194549561"><time>2026-04-25T12:53:22Z</time></trkpt><trkpt lat="59.0772628784" lon="30.0194764137"><time>2026-04-25T12:53:24Z</time></trkpt><trkpt lat="59.0772414207" lon="30.0194334984"><time>2026-04-25T12:53:37Z</time></trkpt><trkpt lat="59.0772843361" lon="30.0194120407"><time>2026-04-25T12:53:39Z</time></trkpt><trkpt lat="59.0773057938" lon="30.0193476677"><time>2026-04-25T12:53:44Z</time></trkpt><trkpt lat="59.0773272514" lon="30.0193691254"><time>2026-04-25T12:53:52Z</time></trkpt><trkpt lat="59.0773272514" lon="30.0193476677"><time>2026-04-25T12:54:22Z</time></trkpt><trkpt lat="59.0773272514" lon="30.0193476677"><time>2026-04-25T12:54:52Z</time></trkpt><trkpt lat="59.0773272514" lon="30.0193476677"><time>2026-04-25T12:55:22Z</time></trkpt><trkpt lat="59.0773272514" lon="30.0193691254"><time>2026-04-25T12:55:52Z</time></trkpt><trkpt lat="59.0773272514" lon="30.0193691254"><time>2026-04-25T12:56:22Z</time></trkpt><trkpt lat="59.0773272514" lon="30.0193691254"><time>2026-04-25T12:56:52Z</time></trkpt><trkpt lat="59.0773272514" lon="30.0193691254"><time>2026-04-25T12:57:22Z</time></trkpt><trkpt lat="59.0773272514" lon="30.0193691254"><time>2026-04-25T12:57:52Z</time></trkpt><trkpt lat="59.0773272514" lon="30.0193691254"><time>2026-04-25T12:58:22Z</time></trkpt><trkpt lat="59.0773272514" lon="30.0193691254"><time>2026-04-25T12:58:52Z</time></trkpt><trkpt lat="59.0773272514" lon="30.0193691254"><time>2026-04-25T12:59:22Z</time></trkpt><trkpt lat="59.0773272514" lon="30.0193691254"><time>2026-04-25T12:59:52Z</time></trkpt><trkpt lat="59.0773272514" lon="30.0194549561"><time>2026-04-25T13:00:22Z</time></trkpt><trkpt lat="59.0773272514" lon="30.0196266174"><time>2026-04-25T13:00:42Z</time></trkpt><trkpt lat="59.0773272514" lon="30.0197124481"><time>2026-04-25T13:00:44Z</time></trkpt><trkpt lat="59.0773701668" lon="30.0197982788"><time>2026-04-25T13:00:47Z</time></trkpt><trkpt lat="59.0774559975" lon="30.0201845169"><time>2026-04-25T13:01:07Z</time></trkpt><trkpt lat="59.0774559975" lon="30.0202703476"><time>2026-04-25T13:01:09Z</time></trkpt><trkpt lat="59.0775203705" lon="30.0204205513"><time>2026-04-25T13:01:17Z</time></trkpt><trkpt lat="59.0775203705" lon="30.0204634666"><time>2026-04-25T13:01:19Z</time></trkpt><trkpt lat="59.0775632858" lon="30.0204849243"><time>2026-04-25T13:01:37Z</time></trkpt><trkpt lat="59.0775847435" lon="30.0204634666"><time>2026-04-25T13:01:39Z</time></trkpt><trkpt lat="59.0776491165" lon="30.0204420090"><time>2026-04-25T13:01:44Z</time></trkpt><trkpt lat="59.0776705742" lon="30.0204849243"><time>2026-04-25T13:01:47Z</time></trkpt><trkpt lat="59.0776920319" lon="30.0205278397"><time>2026-04-25T13:01:49Z</time></trkpt><trkpt lat="59.0776920319" lon="30.0208067894"><time>2026-04-25T13:02:19Z</time></trkpt><trkpt lat="59.0776276588" lon="30.0209784508"><time>2026-04-25T13:02:39Z</time></trkpt><trkpt lat="59.0776491165" lon="30.0211715698"><time>2026-04-25T13:03:09Z</time></trkpt><trkpt lat="59.0776491165" lon="30.0212788582"><time>2026-04-25T13:03:29Z</time></trkpt><trkpt lat="59.0776276588" lon="30.0212574005"><time>2026-04-25T13:03:59Z</time></trkpt><trkpt lat="59.0776276588" lon="30.0211715698"><time>2026-04-25T13:04:09Z</time></trkpt><trkpt lat="59.0775847435" lon="30.0211286545"><time>2026-04-25T13:04:12Z</time></trkpt><trkpt lat="59.0775632858" lon="30.0211501122"><time>2026-04-25T13:04:14Z</time></trkpt><trkpt lat="59.0775847435" lon="30.0211501122"><time>2026-04-25T13:04:17Z</time></trkpt><trkpt lat="59.0775847435" lon="30.0212144852"><time>2026-04-25T13:04:19Z</time></trkpt><trkpt lat="59.0776062012" lon="30.0213432312"><time>2026-04-25T13:04:44Z</time></trkpt><trkpt lat="59.0775203705" lon="30.0213861465"><time>2026-04-25T13:04:52Z</time></trkpt><trkpt lat="59.0774989128" lon="30.0214076042"><time>2026-04-25T13:04:54Z</time></trkpt><trkpt lat="59.0774774551" lon="30.0214505196"><time>2026-04-25T13:04:57Z</time></trkpt><trkpt lat="59.0774559975" lon="30.0215148926"><time>2026-04-25T13:04:59Z</time></trkpt><trkpt lat="59.0774559975" lon="30.0216007233"><time>2026-04-25T13:05:02Z</time></trkpt><trkpt lat="59.0774559975" lon="30.0216436386"><time>2026-04-25T13:05:04Z</time></trkpt><trkpt lat="59.0774774551" lon="30.0216650963"><time>2026-04-25T13:05:07Z</time></trkpt><trkpt lat="59.0774559975" lon="30.0216865540"><time>2026-04-25T13:05:09Z</time></trkpt><trkpt lat="59.0773916245" lon="30.0217080116"><time>2026-04-25T13:05:14Z</time></trkpt><trkpt lat="59.0773487091" lon="30.0217723846"><time>2026-04-25T13:05:17Z</time></trkpt><trkpt lat="59.0773272514" lon="30.0217080116"><time>2026-04-25T13:05:19Z</time></trkpt><trkpt lat="59.0773272514" lon="30.0216221809"><time>2026-04-25T13:05:22Z</time></trkpt><trkpt lat="59.0773272514" lon="30.0215363503"><time>2026-04-25T13:05:24Z</time></trkpt><trkpt lat="59.0773272514" lon="30.0214505196"><time>2026-04-25T13:05:27Z</time></trkpt><trkpt lat="59.0773487091" lon="30.0213646889"><time>2026-04-25T13:05:29Z</time></trkpt><trkpt lat="59.0773057938" lon="30.0213217735"><time>2026-04-25T13:05:37Z</time></trkpt><trkpt lat="59.0772199631" lon="30.0212574005"><time>2026-04-25T13:05:47Z</time></trkpt><trkpt lat="59.0771555901" lon="30.0212144852"><time>2026-04-25T13:06:17Z</time></trkpt><trkpt lat="59.0769624710" lon="30.0213217735"><time>2026-04-25T13:06:42Z</time></trkpt><trkpt lat="59.0768766403" lon="30.0214076042"><time>2026-04-25T13:06:57Z</time></trkpt><trkpt lat="59.0768337250" lon="30.0214076042"><time>2026-04-25T13:07:07Z</time></trkpt><trkpt lat="59.0768122673" lon="30.0214719772"><time>2026-04-25T13:07:14Z</time></trkpt><trkpt lat="59.0767478943" lon="30.0214076042"><time>2026-04-25T13:07:19Z</time></trkpt><trkpt lat="59.0767049789" lon="30.0213432312"><time>2026-04-25T13:07:22Z</time></trkpt><trkpt lat="59.0766620636" lon="30.0212788582"><time>2026-04-25T13:07:29Z</time></trkpt><trkpt lat="59.0766620636" lon="30.0211715698"><time>2026-04-25T13:07:39Z</time></trkpt><trkpt lat="59.0767049789" lon="30.0211071968"><time>2026-04-25T13:07:42Z</time></trkpt><trkpt lat="59.0767478943" lon="30.0211071968"><time>2026-04-25T13:07:44Z</time></trkpt><trkpt lat="59.0767693520" lon="30.0210857391"><time>2026-04-25T13:07:47Z</time></trkpt><trkpt lat="59.0768122673" lon="30.0210213661"><time>2026-04-25T13:07:49Z</time></trkpt><trkpt lat="59.0768551826" lon="30.0209569931"><time>2026-04-25T13:07:52Z</time></trkpt><trkpt lat="59.0768337250" lon="30.0209569931"><time>2026-04-25T13:07:54Z</time></trkpt><trkpt lat="59.0767693520" lon="30.0207209587"><time>2026-04-25T13:08:24Z</time></trkpt><trkpt lat="59.0768122673" lon="30.0206995010"><time>2026-04-25T13:08:54Z</time></trkpt><trkpt lat="59.0768337250" lon="30.0206780434"><time>2026-04-25T13:08:59Z</time></trkpt><trkpt lat="59.0768980980" lon="30.0205063820"><time>2026-04-25T13:09:29Z</time></trkpt><trkpt lat="59.0768980980" lon="30.0203776360"><time>2026-04-25T13:09:42Z</time></trkpt><trkpt lat="59.0768980980" lon="30.0203132629"><time>2026-04-25T13:09:44Z</time></trkpt><trkpt lat="59.0768551826" lon="30.0202703476"><time>2026-04-25T13:09:47Z</time></trkpt><trkpt lat="59.0768337250" lon="30.0202703476"><time>2026-04-25T13:10:17Z</time></trkpt><trkpt lat="59.0768337250" lon="30.0202059746"><time>2026-04-25T13:10:19Z</time></trkpt><trkpt lat="59.0768551826" lon="30.0200986862"><time>2026-04-25T13:10:27Z</time></trkpt><trkpt lat="59.0768551826" lon="30.0200343132"><time>2026-04-25T13:10:37Z</time></trkpt><trkpt lat="59.0768122673" lon="30.0199913979"><time>2026-04-25T13:10:42Z</time></trkpt><trkpt lat="59.0768122673" lon="30.0199270248"><time>2026-04-25T13:10:44Z</time></trkpt><trkpt lat="59.0768122673" lon="30.0198626518"><time>2026-04-25T13:10:47Z</time></trkpt><trkpt lat="59.0767908096" lon="30.0198626518"><time>2026-04-25T13:10:49Z</time></trkpt><trkpt lat="59.0768551826" lon="30.0197339058"><time>2026-04-25T13:11:07Z</time></trkpt><trkpt lat="59.0768337250" lon="30.0197124481"><time>2026-04-25T13:11:17Z</time></trkpt><trkpt lat="59.0768551826" lon="30.0196266174"><time>2026-04-25T13:11:19Z</time></trkpt><trkpt lat="59.0768122673" lon="30.0196480751"><time>2026-04-25T13:11:22Z</time></trkpt><trkpt lat="59.0767908096" lon="30.0196695328"><time>2026-04-25T13:11:24Z</time></trkpt><trkpt lat="59.0767693520" lon="30.0196480751"><time>2026-04-25T13:11:27Z</time></trkpt><trkpt lat="59.0767478943" lon="30.0196051598"><time>2026-04-25T13:11:29Z</time></trkpt><trkpt lat="59.0767478943" lon="30.0195193291"><time>2026-04-25T13:11:32Z</time></trkpt><trkpt lat="59.0767264366" lon="30.0194978714"><time>2026-04-25T13:11:34Z</time></trkpt><trkpt lat="59.0767264366" lon="30.0194120407"><time>2026-04-25T13:11:44Z</time></trkpt><trkpt lat="59.0767693520" lon="30.0193691254"><time>2026-04-25T13:11:47Z</time></trkpt><trkpt lat="59.0767908096" lon="30.0193262100"><time>2026-04-25T13:11:49Z</time></trkpt><trkpt lat="59.0767908096" lon="30.0192403793"><time>2026-04-25T13:11:52Z</time></trkpt><trkpt lat="59.0767693520" lon="30.0191974640"><time>2026-04-25T13:11:54Z</time></trkpt><trkpt lat="59.0766835213" lon="30.0192189217"><time>2026-04-25T13:12:04Z</time></trkpt><trkpt lat="59.0766406059" lon="30.0192189217"><time>2026-04-25T13:12:07Z</time></trkpt><trkpt lat="59.0766406059" lon="30.0191974640"><time>2026-04-25T13:12:09Z</time></trkpt><trkpt lat="59.0766620636" lon="30.0190901756"><time>2026-04-25T13:12:12Z</time></trkpt><trkpt lat="59.0766620636" lon="30.0190043449"><time>2026-04-25T13:12:14Z</time></trkpt><trkpt lat="59.0766835213" lon="30.0189185143"><time>2026-04-25T13:12:17Z</time></trkpt><trkpt lat="59.0767264366" lon="30.0188326836"><time>2026-04-25T13:12:19Z</time></trkpt><trkpt lat="59.0767478943" lon="30.0188970566"><time>2026-04-25T13:12:29Z</time></trkpt><trkpt lat="59.0767478943" lon="30.0190472603"><time>2026-04-25T13:12:59Z</time></trkpt><trkpt lat="59.0767049789" lon="30.0191116333"><time>2026-04-25T13:13:17Z</time></trkpt><trkpt lat="59.0766835213" lon="30.0191330910"><time>2026-04-25T13:13:19Z</time></trkpt><trkpt lat="59.0765547752" lon="30.0192403793"><time>2026-04-25T13:13:49Z</time></trkpt><trkpt lat="59.0765976906" lon="30.0192189217"><time>2026-04-25T13:13:57Z</time></trkpt><trkpt lat="59.0765762329" lon="30.0192832947"><time>2026-04-25T13:14:02Z</time></trkpt><trkpt lat="59.0765547752" lon="30.0193262100"><time>2026-04-25T13:14:04Z</time></trkpt><trkpt lat="59.0765333176" lon="30.0193262100"><time>2026-04-25T13:14:07Z</time></trkpt><trkpt lat="59.0765118599" lon="30.0193476677"><time>2026-04-25T13:14:09Z</time></trkpt><trkpt lat="59.0765333176" lon="30.0194120407"><time>2026-04-25T13:14:14Z</time></trkpt><trkpt lat="59.0765118599" lon="30.0194764137"><time>2026-04-25T13:14:17Z</time></trkpt><trkpt lat="59.0764260292" lon="30.0194978714"><time>2026-04-25T13:14:29Z</time></trkpt><trkpt lat="59.0764045715" lon="30.0196266174"><time>2026-04-25T13:14:34Z</time></trkpt><trkpt lat="59.0763616562" lon="30.0196695328"><time>2026-04-25T13:14:37Z</time></trkpt><trkpt lat="59.0763401985" lon="30.0197124481"><time>2026-04-25T13:14:39Z</time></trkpt><trkpt lat="59.0763401985" lon="30.0195837021"><time>2026-04-25T13:14:49Z</time></trkpt><trkpt lat="59.0763187408" lon="30.0195407867"><time>2026-04-25T13:14:52Z</time></trkpt><trkpt lat="59.0763187408" lon="30.0194764137"><time>2026-04-25T13:14:54Z</time></trkpt><trkpt lat="59.0763187408" lon="30.0194334984"><time>2026-04-25T13:14:57Z</time></trkpt><trkpt lat="59.0763616562" lon="30.0194120407"><time>2026-04-25T13:14:59Z</time></trkpt><trkpt lat="59.0763616562" lon="30.0194120407"><time>2026-04-25T13:15:02Z</time></trkpt><trkpt lat="59.0763401985" lon="30.0194120407"><time>2026-04-25T13:15:07Z</time></trkpt><trkpt lat="59.0762972832" lon="30.0194120407"><time>2026-04-25T13:15:09Z</time></trkpt><trkpt lat="59.0762543678" lon="30.0194120407"><time>2026-04-25T13:15:12Z</time></trkpt><trkpt lat="59.0762114525" lon="30.0194334984"><time>2026-04-25T13:15:14Z</time></trkpt><trkpt lat="59.0762114525" lon="30.0194978714"><time>2026-04-25T13:15:17Z</time></trkpt><trkpt lat="59.0762114525" lon="30.0194978714"><time>2026-04-25T13:15:34Z</time></trkpt><trkpt lat="59.0761899948" lon="30.0194549561"><time>2026-04-25T13:15:42Z</time></trkpt><trkpt lat="59.0761899948" lon="30.0194549561"><time>2026-04-25T13:15:44Z</time></trkpt><trkpt lat="59.0762329102" lon="30.0194120407"><time>2026-04-25T13:15:47Z</time></trkpt><trkpt lat="59.0762329102" lon="30.0193476677"><time>2026-04-25T13:15:49Z</time></trkpt><trkpt lat="59.0762543678" lon="30.0193262100"><time>2026-04-25T13:15:52Z</time></trkpt><trkpt lat="59.0763401985" lon="30.0194120407"><time>2026-04-25T13:16:02Z</time></trkpt><trkpt lat="59.0763401985" lon="30.0194549561"><time>2026-04-25T13:16:04Z</time></trkpt><trkpt lat="59.0763401985" lon="30.0195193291"><time>2026-04-25T13:16:07Z</time></trkpt><trkpt lat="59.0763616562" lon="30.0195837021"><time>2026-04-25T13:16:09Z</time></trkpt><trkpt lat="59.0763616562" lon="30.0196695328"><time>2026-04-25T13:16:12Z</time></trkpt><trkpt lat="59.0763616562" lon="30.0197553635"><time>2026-04-25T13:16:14Z</time></trkpt><trkpt lat="59.0763831139" lon="30.0198197365"><time>2026-04-25T13:16:17Z</time></trkpt><trkpt lat="59.0763831139" lon="30.0198841095"><time>2026-04-25T13:16:19Z</time></trkpt><trkpt lat="59.0763831139" lon="30.0199484825"><time>2026-04-25T13:16:22Z</time></trkpt><trkpt lat="59.0763831139" lon="30.0200128555"><time>2026-04-25T13:16:24Z</time></trkpt><trkpt lat="59.0763831139" lon="30.0200343132"><time>2026-04-25T13:16:47Z</time></trkpt><trkpt lat="59.0764045715" lon="30.0200772285"><time>2026-04-25T13:16:52Z</time></trkpt><trkpt lat="59.0764260292" lon="30.0201630592"><time>2026-04-25T13:16:54Z</time></trkpt><trkpt lat="59.0763831139" lon="30.0202488899"><time>2026-04-25T13:16:59Z</time></trkpt><trkpt lat="59.0763401985" lon="30.0202703476"><time>2026-04-25T13:17:02Z</time></trkpt><trkpt lat="59.0763187408" lon="30.0203132629"><time>2026-04-25T13:17:04Z</time></trkpt><trkpt lat="59.0762972832" lon="30.0203347206"><time>2026-04-25T13:17:07Z</time></trkpt><trkpt lat="59.0762758255" lon="30.0203561783"><time>2026-04-25T13:17:09Z</time></trkpt><trkpt lat="59.0762543678" lon="30.0203347206"><time>2026-04-25T13:17:12Z</time></trkpt><trkpt lat="59.0762114525" lon="30.0203776360"><time>2026-04-25T13:17:17Z</time></trkpt><trkpt lat="59.0761685371" lon="30.0204205513"><time>2026-04-25T13:17:19Z</time></trkpt><trkpt lat="59.0761470795" lon="30.0204634666"><time>2026-04-25T13:17:22Z</time></trkpt><trkpt lat="59.0761041641" lon="30.0204420090"><time>2026-04-25T13:17:24Z</time></trkpt><trkpt lat="59.0760612488" lon="30.0204634666"><time>2026-04-25T13:17:27Z</time></trkpt><trkpt lat="59.0760183334" lon="30.0204634666"><time>2026-04-25T13:17:29Z</time></trkpt><trkpt lat="59.0760397911" lon="30.0204420090"><time>2026-04-25T13:17:32Z</time></trkpt><trkpt lat="59.0760612488" lon="30.0204420090"><time>2026-04-25T13:17:34Z</time></trkpt><trkpt lat="59.0760827065" lon="30.0203990936"><time>2026-04-25T13:17:37Z</time></trkpt><trkpt lat="59.0760827065" lon="30.0203561783"><time>2026-04-25T13:17:39Z</time></trkpt><trkpt lat="59.0761470795" lon="30.0203776360"><time>2026-04-25T13:17:59Z</time></trkpt><trkpt lat="59.0762329102" lon="30.0204205513"><time>2026-04-25T13:18:02Z</time></trkpt><trkpt lat="59.0763187408" lon="30.0205492973"><time>2026-04-25T13:18:07Z</time></trkpt><trkpt lat="59.0763616562" lon="30.0205278397"><time>2026-04-25T13:18:09Z</time></trkpt><trkpt lat="59.0763616562" lon="30.0205922127"><time>2026-04-25T13:18:12Z</time></trkpt><trkpt lat="59.0763616562" lon="30.0206995010"><time>2026-04-25T13:18:27Z</time></trkpt><trkpt lat="59.0763616562" lon="30.0207638741"><time>2026-04-25T13:18:29Z</time></trkpt><trkpt lat="59.0763831139" lon="30.0208711624"><time>2026-04-25T13:18:59Z</time></trkpt><trkpt lat="59.0764689445" lon="30.0210642815"><time>2026-04-25T13:19:19Z</time></trkpt><trkpt lat="59.0764689445" lon="30.0211286545"><time>2026-04-25T13:19:22Z</time></trkpt><trkpt lat="59.0764689445" lon="30.0211715698"><time>2026-04-25T13:19:27Z</time></trkpt><trkpt lat="59.0764904022" lon="30.0212144852"><time>2026-04-25T13:19:29Z</time></trkpt><trkpt lat="59.0764904022" lon="30.0212359428"><time>2026-04-25T13:19:52Z</time></trkpt><trkpt lat="59.0765333176" lon="30.0213432312"><time>2026-04-25T13:20:02Z</time></trkpt><trkpt lat="59.0765547752" lon="30.0213646889"><time>2026-04-25T13:20:04Z</time></trkpt><trkpt lat="59.0765762329" lon="30.0214076042"><time>2026-04-25T13:20:07Z</time></trkpt><trkpt lat="59.0765976906" lon="30.0214505196"><time>2026-04-25T13:20:09Z</time></trkpt><trkpt lat="59.0766191483" lon="30.0215363503"><time>2026-04-25T13:20:12Z</time></trkpt><trkpt lat="59.0765976906" lon="30.0216650963"><time>2026-04-25T13:20:22Z</time></trkpt><trkpt lat="59.0765547752" lon="30.0216436386"><time>2026-04-25T13:20:24Z</time></trkpt><trkpt lat="59.0764904022" lon="30.0216650963"><time>2026-04-25T13:20:37Z</time></trkpt><trkpt lat="59.0765333176" lon="30.0215578079"><time>2026-04-25T13:20:47Z</time></trkpt><trkpt lat="59.0765547752" lon="30.0215148926"><time>2026-04-25T13:20:49Z</time></trkpt><trkpt lat="59.0765333176" lon="30.0215578079"><time>2026-04-25T13:21:12Z</time></trkpt><trkpt lat="59.0764904022" lon="30.0216007233"><time>2026-04-25T13:21:22Z</time></trkpt><trkpt lat="59.0764904022" lon="30.0215792656"><time>2026-04-25T13:21:52Z</time></trkpt><trkpt lat="59.0765547752" lon="30.0215363503"><time>2026-04-25T13:22:22Z</time></trkpt><trkpt lat="59.0765547752" lon="30.0215148926"><time>2026-04-25T13:22:52Z</time></trkpt><trkpt lat="59.0765333176" lon="30.0215148926"><time>2026-04-25T13:23:22Z</time></trkpt><trkpt lat="59.0765547752" lon="30.0215148926"><time>2026-04-25T13:23:52Z</time></trkpt><trkpt lat="59.0765762329" lon="30.0214719772"><time>2026-04-25T13:24:22Z</time></trkpt><trkpt lat="59.0765762329" lon="30.0214719772"><time>2026-04-25T13:24:52Z</time></trkpt><trkpt lat="59.0765762329" lon="30.0214719772"><time>2026-04-25T13:25:22Z</time></trkpt><trkpt lat="59.0765762329" lon="30.0214719772"><time>2026-04-25T13:25:52Z</time></trkpt><trkpt lat="59.0765762329" lon="30.0214719772"><time>2026-04-25T13:26:22Z</time></trkpt><trkpt lat="59.0765762329" lon="30.0214719772"><time>2026-04-25T13:26:52Z</time></trkpt><trkpt lat="59.0765762329" lon="30.0214719772"><time>2026-04-25T13:27:22Z</time></trkpt><trkpt lat="59.0765762329" lon="30.0214719772"><time>2026-04-25T13:27:52Z</time></trkpt><trkpt lat="59.0765762329" lon="30.0214719772"><time>2026-04-25T13:28:22Z</time></trkpt><trkpt lat="59.0765762329" lon="30.0214934349"><time>2026-04-25T13:28:52Z</time></trkpt><trkpt lat="59.0765762329" lon="30.0215578079"><time>2026-04-25T13:28:54Z</time></trkpt><trkpt lat="59.0765976906" lon="30.0216650963"><time>2026-04-25T13:28:59Z</time></trkpt><trkpt lat="59.0765976906" lon="30.0217509270"><time>2026-04-25T13:29:02Z</time></trkpt><trkpt lat="59.0765976906" lon="30.0217938423"><time>2026-04-25T13:29:04Z</time></trkpt><trkpt lat="59.0765762329" lon="30.0218796730"><time>2026-04-25T13:29:07Z</time></trkpt><trkpt lat="59.0765762329" lon="30.0218796730"><time>2026-04-25T13:29:22Z</time></trkpt><trkpt lat="59.0765547752" lon="30.0219225883"><time>2026-04-25T13:29:52Z</time></trkpt><trkpt lat="59.0765547752" lon="30.0219225883"><time>2026-04-25T13:30:04Z</time></trkpt><trkpt lat="59.0765333176" lon="30.0220084190"><time>2026-04-25T13:30:17Z</time></trkpt><trkpt lat="59.0765118599" lon="30.0220942497"><time>2026-04-25T13:30:19Z</time></trkpt><trkpt lat="59.0764689445" lon="30.0221371651"><time>2026-04-25T13:30:22Z</time></trkpt><trkpt lat="59.0764474869" lon="30.0222015381"><time>2026-04-25T13:30:27Z</time></trkpt><trkpt lat="59.0764045715" lon="30.0222444534"><time>2026-04-25T13:30:29Z</time></trkpt><trkpt lat="59.0763616562" lon="30.0221371651"><time>2026-04-25T13:30:37Z</time></trkpt><trkpt lat="59.0763187408" lon="30.0221586227"><time>2026-04-25T13:30:39Z</time></trkpt><trkpt lat="59.0763187408" lon="30.0222229958"><time>2026-04-25T13:30:42Z</time></trkpt><trkpt lat="59.0762758255" lon="30.0221371651"><time>2026-04-25T13:30:49Z</time></trkpt><trkpt lat="59.0762543678" lon="30.0220942497"><time>2026-04-25T13:30:52Z</time></trkpt><trkpt lat="59.0762329102" lon="30.0220942497"><time>2026-04-25T13:30:54Z</time></trkpt><trkpt lat="59.0761899948" lon="30.0220942497"><time>2026-04-25T13:30:57Z</time></trkpt><trkpt lat="59.0761685371" lon="30.0220727921"><time>2026-04-25T13:30:59Z</time></trkpt><trkpt lat="59.0761470795" lon="30.0220298767"><time>2026-04-25T13:31:04Z</time></trkpt><trkpt lat="59.0761256218" lon="30.0219655037"><time>2026-04-25T13:31:07Z</time></trkpt><trkpt lat="59.0760827065" lon="30.0220084190"><time>2026-04-25T13:31:14Z</time></trkpt><trkpt lat="59.0760183334" lon="30.0219869614"><time>2026-04-25T13:31:17Z</time></trkpt><trkpt lat="59.0759754181" lon="30.0219655037"><time>2026-04-25T13:31:19Z</time></trkpt><trkpt lat="59.0759110451" lon="30.0220084190"><time>2026-04-25T13:31:22Z</time></trkpt><trkpt lat="59.0758681297" lon="30.0220727921"><time>2026-04-25T13:31:24Z</time></trkpt><trkpt lat="59.0758895874" lon="30.0221371651"><time>2026-04-25T13:31:27Z</time></trkpt><trkpt lat="59.0759110451" lon="30.0222229958"><time>2026-04-25T13:31:32Z</time></trkpt><trkpt lat="59.0757822990" lon="30.0223088264"><time>2026-04-25T13:31:49Z</time></trkpt><trkpt lat="59.0757393837" lon="30.0223946571"><time>2026-04-25T13:31:52Z</time></trkpt><trkpt lat="59.0757179260" lon="30.0224590302"><time>2026-04-25T13:31:54Z</time></trkpt><trkpt lat="59.0756750107" lon="30.0225019455"><time>2026-04-25T13:31:57Z</time></trkpt><trkpt lat="59.0756535530" lon="30.0225019455"><time>2026-04-25T13:31:59Z</time></trkpt><trkpt lat="59.0756106377" lon="30.0225019455"><time>2026-04-25T13:32:02Z</time></trkpt><trkpt lat="59.0755677223" lon="30.0225019455"><time>2026-04-25T13:32:04Z</time></trkpt><trkpt lat="59.0755677223" lon="30.0225877762"><time>2026-04-25T13:32:07Z</time></trkpt><trkpt lat="59.0755891800" lon="30.0226521492"><time>2026-04-25T13:32:09Z</time></trkpt><trkpt lat="59.0755891800" lon="30.0227379799"><time>2026-04-25T13:32:17Z</time></trkpt><trkpt lat="59.0755462646" lon="30.0227379799"><time>2026-04-25T13:32:19Z</time></trkpt><trkpt lat="59.0755033493" lon="30.0226736069"><time>2026-04-25T13:32:22Z</time></trkpt><trkpt lat="59.0755033493" lon="30.0226092339"><time>2026-04-25T13:32:24Z</time></trkpt><trkpt lat="59.0754818916" lon="30.0225019455"><time>2026-04-25T13:32:27Z</time></trkpt><trkpt lat="59.0755248070" lon="30.0223946571"><time>2026-04-25T13:32:29Z</time></trkpt><trkpt lat="59.0755677223" lon="30.0223731995"><time>2026-04-25T13:32:32Z</time></trkpt><trkpt lat="59.0755891800" lon="30.0223088264"><time>2026-04-25T13:32:34Z</time></trkpt><trkpt lat="59.0755677223" lon="30.0222444534"><time>2026-04-25T13:32:37Z</time></trkpt><trkpt lat="59.0755677223" lon="30.0223302841"><time>2026-04-25T13:32:42Z</time></trkpt><trkpt lat="59.0755462646" lon="30.0223946571"><time>2026-04-25T13:32:44Z</time></trkpt><trkpt lat="59.0755033493" lon="30.0224590302"><time>2026-04-25T13:32:47Z</time></trkpt><trkpt lat="59.0754389763" lon="30.0225019455"><time>2026-04-25T13:32:49Z</time></trkpt><trkpt lat="59.0754175186" lon="30.0225234032"><time>2026-04-25T13:32:52Z</time></trkpt><trkpt lat="59.0753102303" lon="30.0225448608"><time>2026-04-25T13:33:04Z</time></trkpt><trkpt lat="59.0752673149" lon="30.0225019455"><time>2026-04-25T13:33:07Z</time></trkpt><trkpt lat="59.0752887726" lon="30.0224375725"><time>2026-04-25T13:33:12Z</time></trkpt><trkpt lat="59.0752243996" lon="30.0224161148"><time>2026-04-25T13:33:27Z</time></trkpt><trkpt lat="59.0751814842" lon="30.0223731995"><time>2026-04-25T13:33:29Z</time></trkpt><trkpt lat="59.0751814842" lon="30.0223088264"><time>2026-04-25T13:33:32Z</time></trkpt><trkpt lat="59.0751385689" lon="30.0222659111"><time>2026-04-25T13:33:34Z</time></trkpt><trkpt lat="59.0750956535" lon="30.0222015381"><time>2026-04-25T13:33:37Z</time></trkpt><trkpt lat="59.0750956535" lon="30.0222444534"><time>2026-04-25T13:33:39Z</time></trkpt><trkpt lat="59.0750741959" lon="30.0223088264"><time>2026-04-25T13:33:42Z</time></trkpt><trkpt lat="59.0750741959" lon="30.0223731995"><time>2026-04-25T13:33:44Z</time></trkpt><trkpt lat="59.0750527382" lon="30.0223731995"><time>2026-04-25T13:33:47Z</time></trkpt><trkpt lat="59.0750312805" lon="30.0224375725"><time>2026-04-25T13:33:49Z</time></trkpt><trkpt lat="59.0749883652" lon="30.0223946571"><time>2026-04-25T13:33:52Z</time></trkpt><trkpt lat="59.0749669075" lon="30.0223088264"><time>2026-04-25T13:33:54Z</time></trkpt><trkpt lat="59.0749669075" lon="30.0223731995"><time>2026-04-25T13:33:59Z</time></trkpt><trkpt lat="59.0749454498" lon="30.0224590302"><time>2026-04-25T13:34:02Z</time></trkpt><trkpt lat="59.0749239922" lon="30.0225234032"><time>2026-04-25T13:34:04Z</time></trkpt><trkpt lat="59.0748167038" lon="30.0226950645"><time>2026-04-25T13:34:24Z</time></trkpt><trkpt lat="59.0747952461" lon="30.0226950645"><time>2026-04-25T13:34:27Z</time></trkpt><trkpt lat="59.0747737885" lon="30.0226521492"><time>2026-04-25T13:34:29Z</time></trkpt><trkpt lat="59.0747523308" lon="30.0226521492"><time>2026-04-25T13:34:32Z</time></trkpt><trkpt lat="59.0747308731" lon="30.0226092339"><time>2026-04-25T13:34:34Z</time></trkpt><trkpt lat="59.0746879578" lon="30.0226092339"><time>2026-04-25T13:34:37Z</time></trkpt><trkpt lat="59.0747094154" lon="30.0226306915"><time>2026-04-25T13:34:39Z</time></trkpt><trkpt lat="59.0747094154" lon="30.0226736069"><time>2026-04-25T13:34:42Z</time></trkpt><trkpt lat="59.0747308731" lon="30.0227165222"><time>2026-04-25T13:34:44Z</time></trkpt><trkpt lat="59.0747523308" lon="30.0227379799"><time>2026-04-25T13:34:47Z</time></trkpt><trkpt lat="59.0747952461" lon="30.0226736069"><time>2026-04-25T13:34:54Z</time></trkpt><trkpt lat="59.0748167038" lon="30.0226092339"><time>2026-04-25T13:34:57Z</time></trkpt><trkpt lat="59.0748381615" lon="30.0225663185"><time>2026-04-25T13:34:59Z</time></trkpt><trkpt lat="59.0748167038" lon="30.0226092339"><time>2026-04-25T13:35:02Z</time></trkpt><trkpt lat="59.0748167038" lon="30.0225877762"><time>2026-04-25T13:35:24Z</time></trkpt><trkpt lat="59.0747952461" lon="30.0226521492"><time>2026-04-25T13:35:29Z</time></trkpt><trkpt lat="59.0746665001" lon="30.0228023529"><time>2026-04-25T13:35:39Z</time></trkpt><trkpt lat="59.0746665001" lon="30.0228881836"><time>2026-04-25T13:35:42Z</time></trkpt><trkpt lat="59.0747094154" lon="30.0229096413"><time>2026-04-25T13:35:44Z</time></trkpt><trkpt lat="59.0747308731" lon="30.0228667259"><time>2026-04-25T13:35:47Z</time></trkpt><trkpt lat="59.0747308731" lon="30.0229740143"><time>2026-04-25T13:36:17Z</time></trkpt><trkpt lat="59.0747094154" lon="30.0230383873"><time>2026-04-25T13:36:27Z</time></trkpt><trkpt lat="59.0746879578" lon="30.0230813026"><time>2026-04-25T13:36:29Z</time></trkpt><trkpt lat="59.0746879578" lon="30.0231242180"><time>2026-04-25T13:36:32Z</time></trkpt><trkpt lat="59.0746879578" lon="30.0231885910"><time>2026-04-25T13:36:34Z</time></trkpt><trkpt lat="59.0747308731" lon="30.0232529640"><time>2026-04-25T13:36:37Z</time></trkpt><trkpt lat="59.0747523308" lon="30.0233387947"><time>2026-04-25T13:36:49Z</time></trkpt><trkpt lat="59.0747737885" lon="30.0233817101"><time>2026-04-25T13:36:52Z</time></trkpt><trkpt lat="59.0747523308" lon="30.0233173370"><time>2026-04-25T13:36:54Z</time></trkpt><trkpt lat="59.0746879578" lon="30.0233173370"><time>2026-04-25T13:36:57Z</time></trkpt><trkpt lat="59.0746235847" lon="30.0232744217"><time>2026-04-25T13:36:59Z</time></trkpt><trkpt lat="59.0745806694" lon="30.0231671333"><time>2026-04-25T13:37:02Z</time></trkpt><trkpt lat="59.0745806694" lon="30.0230383873"><time>2026-04-25T13:37:04Z</time></trkpt><trkpt lat="59.0745592117" lon="30.0229525566"><time>2026-04-25T13:37:07Z</time></trkpt><trkpt lat="59.0744733810" lon="30.0228667259"><time>2026-04-25T13:37:09Z</time></trkpt><trkpt lat="59.0744304657" lon="30.0228452682"><time>2026-04-25T13:37:12Z</time></trkpt><trkpt lat="59.0743875504" lon="30.0228238106"><time>2026-04-25T13:37:14Z</time></trkpt><trkpt lat="59.0743446350" lon="30.0228023529"><time>2026-04-25T13:37:17Z</time></trkpt><trkpt lat="59.0743660927" lon="30.0228238106"><time>2026-04-25T13:37:19Z</time></trkpt><trkpt lat="59.0743875504" lon="30.0228452682"><time>2026-04-25T13:37:22Z</time></trkpt><trkpt lat="59.0743875504" lon="30.0229096413"><time>2026-04-25T13:37:24Z</time></trkpt><trkpt lat="59.0743660927" lon="30.0230169296"><time>2026-04-25T13:37:27Z</time></trkpt><trkpt lat="59.0743660927" lon="30.0231027603"><time>2026-04-25T13:37:29Z</time></trkpt><trkpt lat="59.0743231773" lon="30.0231242180"><time>2026-04-25T13:37:32Z</time></trkpt><trkpt lat="59.0742802620" lon="30.0231671333"><time>2026-04-25T13:37:34Z</time></trkpt><trkpt lat="59.0742373466" lon="30.0231456757"><time>2026-04-25T13:37:37Z</time></trkpt><trkpt lat="59.0741944313" lon="30.0230383873"><time>2026-04-25T13:37:44Z</time></trkpt><trkpt lat="59.0741515160" lon="30.0229525566"><time>2026-04-25T13:37:47Z</time></trkpt><trkpt lat="59.0740871429" lon="30.0228881836"><time>2026-04-25T13:37:49Z</time></trkpt><trkpt lat="59.0740442276" lon="30.0228238106"><time>2026-04-25T13:37:52Z</time></trkpt><trkpt lat="59.0740013123" lon="30.0228023529"><time>2026-04-25T13:37:54Z</time></trkpt><trkpt lat="59.0739798546" lon="30.0228452682"><time>2026-04-25T13:38:02Z</time></trkpt><trkpt lat="59.0739583969" lon="30.0229096413"><time>2026-04-25T13:38:04Z</time></trkpt><trkpt lat="59.0739369392" lon="30.0229740143"><time>2026-04-25T13:38:07Z</time></trkpt><trkpt lat="59.0738940239" lon="30.0229740143"><time>2026-04-25T13:38:09Z</time></trkpt><trkpt lat="59.0738511086" lon="30.0230169296"><time>2026-04-25T13:38:12Z</time></trkpt><trkpt lat="59.0738081932" lon="30.0230383873"><time>2026-04-25T13:38:14Z</time></trkpt><trkpt lat="59.0737867355" lon="30.0230598450"><time>2026-04-25T13:38:17Z</time></trkpt><trkpt lat="59.0737867355" lon="30.0231456757"><time>2026-04-25T13:38:19Z</time></trkpt><trkpt lat="59.0737652779" lon="30.0232100487"><time>2026-04-25T13:38:22Z</time></trkpt><trkpt lat="59.0737438202" lon="30.0232958794"><time>2026-04-25T13:38:24Z</time></trkpt><trkpt lat="59.0737009048" lon="30.0233387947"><time>2026-04-25T13:38:27Z</time></trkpt><trkpt lat="59.0736579895" lon="30.0233817101"><time>2026-04-25T13:38:29Z</time></trkpt><trkpt lat="59.0735721588" lon="30.0234675407"><time>2026-04-25T13:38:34Z</time></trkpt><trkpt lat="59.0735292435" lon="30.0234675407"><time>2026-04-25T13:38:37Z</time></trkpt><trkpt lat="59.0735077858" lon="30.0234246254"><time>2026-04-25T13:38:39Z</time></trkpt><trkpt lat="59.0734863281" lon="30.0234246254"><time>2026-04-25T13:38:42Z</time></trkpt><trkpt lat="59.0735292435" lon="30.0234246254"><time>2026-04-25T13:38:47Z</time></trkpt><trkpt lat="59.0735507011" lon="30.0233817101"><time>2026-04-25T13:38:49Z</time></trkpt><trkpt lat="59.0735936165" lon="30.0233173370"><time>2026-04-25T13:38:52Z</time></trkpt><trkpt lat="59.0736150742" lon="30.0232529640"><time>2026-04-25T13:38:54Z</time></trkpt><trkpt lat="59.0735936165" lon="30.0232744217"><time>2026-04-25T13:39:02Z</time></trkpt><trkpt lat="59.0735507011" lon="30.0232958794"><time>2026-04-25T13:39:04Z</time></trkpt><trkpt lat="59.0735292435" lon="30.0233173370"><time>2026-04-25T13:39:07Z</time></trkpt><trkpt lat="59.0735077858" lon="30.0233602524"><time>2026-04-25T13:39:09Z</time></trkpt><trkpt lat="59.0734863281" lon="30.0233817101"><time>2026-04-25T13:39:12Z</time></trkpt><trkpt lat="59.0734648705" lon="30.0234460831"><time>2026-04-25T13:39:14Z</time></trkpt><trkpt lat="59.0734434128" lon="30.0234889984"><time>2026-04-25T13:39:17Z</time></trkpt><trkpt lat="59.0734004974" lon="30.0235962868"><time>2026-04-25T13:39:27Z</time></trkpt><trkpt lat="59.0733575821" lon="30.0236392021"><time>2026-04-25T13:39:29Z</time></trkpt><trkpt lat="59.0733146667" lon="30.0236606598"><time>2026-04-25T13:39:32Z</time></trkpt><trkpt lat="59.0732717514" lon="30.0236392021"><time>2026-04-25T13:39:34Z</time></trkpt><trkpt lat="59.0732502937" lon="30.0236177444"><time>2026-04-25T13:39:37Z</time></trkpt><trkpt lat="59.0732073784" lon="30.0236392021"><time>2026-04-25T13:39:39Z</time></trkpt><trkpt lat="59.0732073784" lon="30.0235104561"><time>2026-04-25T13:39:47Z</time></trkpt><trkpt lat="59.0732073784" lon="30.0233817101"><time>2026-04-25T13:39:49Z</time></trkpt><trkpt lat="59.0732502937" lon="30.0233173370"><time>2026-04-25T13:39:52Z</time></trkpt><trkpt lat="59.0732932091" lon="30.0232529640"><time>2026-04-25T13:39:54Z</time></trkpt><trkpt lat="59.0733146667" lon="30.0231671333"><time>2026-04-25T13:39:57Z</time></trkpt><trkpt lat="59.0732288361" lon="30.0231885910"><time>2026-04-25T13:40:09Z</time></trkpt><trkpt lat="59.0732073784" lon="30.0232529640"><time>2026-04-25T13:40:12Z</time></trkpt><trkpt lat="59.0731859207" lon="30.0233387947"><time>2026-04-25T13:40:14Z</time></trkpt><trkpt lat="59.0731859207" lon="30.0235104561"><time>2026-04-25T13:40:29Z</time></trkpt><trkpt lat="59.0731859207" lon="30.0235962868"><time>2026-04-25T13:40:32Z</time></trkpt><trkpt lat="59.0731859207" lon="30.0236606598"><time>2026-04-25T13:40:34Z</time></trkpt><trkpt lat="59.0731644630" lon="30.0236821175"><time>2026-04-25T13:40:37Z</time></trkpt><trkpt lat="59.0731000900" lon="30.0236821175"><time>2026-04-25T13:40:52Z</time></trkpt><trkpt lat="59.0730786324" lon="30.0237035751"><time>2026-04-25T13:40:54Z</time></trkpt><trkpt lat="59.0730571747" lon="30.0237464905"><time>2026-04-25T13:40:57Z</time></trkpt><trkpt lat="59.0730357170" lon="30.0237464905"><time>2026-04-25T13:40:59Z</time></trkpt><trkpt lat="59.0729928017" lon="30.0238108635"><time>2026-04-25T13:41:07Z</time></trkpt><trkpt lat="59.0729928017" lon="30.0238966942"><time>2026-04-25T13:41:09Z</time></trkpt><trkpt lat="59.0729713440" lon="30.0239181519"><time>2026-04-25T13:41:12Z</time></trkpt><trkpt lat="59.0729713440" lon="30.0239825249"><time>2026-04-25T13:41:14Z</time></trkpt><trkpt lat="59.0729284286" lon="30.0240254402"><time>2026-04-25T13:41:17Z</time></trkpt><trkpt lat="59.0729069710" lon="30.0240254402"><time>2026-04-25T13:41:19Z</time></trkpt><trkpt lat="59.0729284286" lon="30.0239181519"><time>2026-04-25T13:41:22Z</time></trkpt><trkpt lat="59.0729713440" lon="30.0238323212"><time>2026-04-25T13:41:24Z</time></trkpt><trkpt lat="59.0730142593" lon="30.0237894058"><time>2026-04-25T13:41:27Z</time></trkpt><trkpt lat="59.0730571747" lon="30.0237679482"><time>2026-04-25T13:41:29Z</time></trkpt><trkpt lat="59.0730786324" lon="30.0236606598"><time>2026-04-25T13:41:32Z</time></trkpt><trkpt lat="59.0731215477" lon="30.0235962868"><time>2026-04-25T13:41:34Z</time></trkpt><trkpt lat="59.0731644630" lon="30.0235533714"><time>2026-04-25T13:41:37Z</time></trkpt><trkpt lat="59.0731859207" lon="30.0234675407"><time>2026-04-25T13:41:39Z</time></trkpt><trkpt lat="59.0732073784" lon="30.0233817101"><time>2026-04-25T13:41:42Z</time></trkpt><trkpt lat="59.0732073784" lon="30.0233817101"><time>2026-04-25T13:41:54Z</time></trkpt><trkpt lat="59.0732288361" lon="30.0233817101"><time>2026-04-25T13:42:17Z</time></trkpt><trkpt lat="59.0732073784" lon="30.0234246254"><time>2026-04-25T13:42:22Z</time></trkpt><trkpt lat="59.0731859207" lon="30.0234460831"><time>2026-04-25T13:42:34Z</time></trkpt><trkpt lat="59.0732073784" lon="30.0235533714"><time>2026-04-25T13:42:52Z</time></trkpt><trkpt lat="59.0732073784" lon="30.0237035751"><time>2026-04-25T13:42:59Z</time></trkpt><trkpt lat="59.0731859207" lon="30.0239181519"><time>2026-04-25T13:43:12Z</time></trkpt><trkpt lat="59.0731644630" lon="30.0239610672"><time>2026-04-25T13:43:32Z</time></trkpt><trkpt lat="59.0731644630" lon="30.0240254402"><time>2026-04-25T13:43:34Z</time></trkpt><trkpt lat="59.0731644630" lon="30.0241112709"><time>2026-04-25T13:43:37Z</time></trkpt><trkpt lat="59.0731644630" lon="30.0241756439"><time>2026-04-25T13:43:39Z</time></trkpt><trkpt lat="59.0731644630" lon="30.0241971016"><time>2026-04-25T13:43:42Z</time></trkpt><trkpt lat="59.0731644630" lon="30.0242400169"><time>2026-04-25T13:43:44Z</time></trkpt><trkpt lat="59.0731430054" lon="30.0243473053"><time>2026-04-25T13:43:49Z</time></trkpt><trkpt lat="59.0731215477" lon="30.0244116783"><time>2026-04-25T13:43:52Z</time></trkpt><trkpt lat="59.0730571747" lon="30.0244331360"><time>2026-04-25T13:44:02Z</time></trkpt><trkpt lat="59.0730142593" lon="30.0243687630"><time>2026-04-25T13:44:04Z</time></trkpt><trkpt lat="59.0729928017" lon="30.0243258476"><time>2026-04-25T13:44:07Z</time></trkpt><trkpt lat="59.0730142593" lon="30.0243473053"><time>2026-04-25T13:44:22Z</time></trkpt><trkpt lat="59.0731000900" lon="30.0243902206"><time>2026-04-25T13:44:24Z</time></trkpt><trkpt lat="59.0731859207" lon="30.0244545937"><time>2026-04-25T13:44:27Z</time></trkpt><trkpt lat="59.0732288361" lon="30.0244975090"><time>2026-04-25T13:44:29Z</time></trkpt><trkpt lat="59.0732717514" lon="30.0245404243"><time>2026-04-25T13:44:32Z</time></trkpt><trkpt lat="59.0733146667" lon="30.0246047974"><time>2026-04-25T13:44:34Z</time></trkpt><trkpt lat="59.0733146667" lon="30.0246691704"><time>2026-04-25T13:44:37Z</time></trkpt><trkpt lat="59.0733146667" lon="30.0247550011"><time>2026-04-25T13:44:39Z</time></trkpt><trkpt lat="59.0733361244" lon="30.0248408318"><time>2026-04-25T13:44:42Z</time></trkpt><trkpt lat="59.0733361244" lon="30.0249266624"><time>2026-04-25T13:44:44Z</time></trkpt><trkpt lat="59.0733575821" lon="30.0249695778"><time>2026-04-25T13:44:47Z</time></trkpt><trkpt lat="59.0733790398" lon="30.0250339508"><time>2026-04-25T13:44:49Z</time></trkpt><trkpt lat="59.0734004974" lon="30.0250339508"><time>2026-04-25T13:44:52Z</time></trkpt><trkpt lat="59.0734219551" lon="30.0250554085"><time>2026-04-25T13:44:54Z</time></trkpt><trkpt lat="59.0734219551" lon="30.0250124931"><time>2026-04-25T13:45:02Z</time></trkpt><trkpt lat="59.0734434128" lon="30.0249266624"><time>2026-04-25T13:45:04Z</time></trkpt><trkpt lat="59.0734863281" lon="30.0249052048"><time>2026-04-25T13:45:07Z</time></trkpt><trkpt lat="59.0735292435" lon="30.0248837471"><time>2026-04-25T13:45:09Z</time></trkpt><trkpt lat="59.0735507011" lon="30.0249266624"><time>2026-04-25T13:45:12Z</time></trkpt><trkpt lat="59.0735936165" lon="30.0250554085"><time>2026-04-25T13:45:14Z</time></trkpt><trkpt lat="59.0735507011" lon="30.0251626968"><time>2026-04-25T13:45:17Z</time></trkpt><trkpt lat="59.0735077858" lon="30.0252699852"><time>2026-04-25T13:45:19Z</time></trkpt><trkpt lat="59.0734434128" lon="30.0253343582"><time>2026-04-25T13:45:22Z</time></trkpt><trkpt lat="59.0734434128" lon="30.0253772736"><time>2026-04-25T13:45:24Z</time></trkpt><trkpt lat="59.0734648705" lon="30.0254416466"><time>2026-04-25T13:45:32Z</time></trkpt><trkpt lat="59.0734219551" lon="30.0253558159"><time>2026-04-25T13:45:39Z</time></trkpt><trkpt lat="59.0734219551" lon="30.0251412392"><time>2026-04-25T13:45:42Z</time></trkpt><trkpt lat="59.0734004974" lon="30.0249695778"><time>2026-04-25T13:45:44Z</time></trkpt><trkpt lat="59.0734219551" lon="30.0247120857"><time>2026-04-25T13:45:52Z</time></trkpt><trkpt lat="59.0734004974" lon="30.0246477127"><time>2026-04-25T13:45:54Z</time></trkpt><trkpt lat="59.0734219551" lon="30.0245833397"><time>2026-04-25T13:45:57Z</time></trkpt><trkpt lat="59.0734434128" lon="30.0246047974"><time>2026-04-25T13:45:59Z</time></trkpt><trkpt lat="59.0734863281" lon="30.0245833397"><time>2026-04-25T13:46:02Z</time></trkpt><trkpt lat="59.0735077858" lon="30.0246047974"><time>2026-04-25T13:46:04Z</time></trkpt><trkpt lat="59.0735507011" lon="30.0245833397"><time>2026-04-25T13:46:07Z</time></trkpt><trkpt lat="59.0735507011" lon="30.0246691704"><time>2026-04-25T13:46:09Z</time></trkpt><trkpt lat="59.0735507011" lon="30.0248408318"><time>2026-04-25T13:46:12Z</time></trkpt><trkpt lat="59.0735077858" lon="30.0249481201"><time>2026-04-25T13:46:14Z</time></trkpt><trkpt lat="59.0734434128" lon="30.0250124931"><time>2026-04-25T13:46:17Z</time></trkpt><trkpt lat="59.0734004974" lon="30.0250768661"><time>2026-04-25T13:46:19Z</time></trkpt><trkpt lat="59.0734219551" lon="30.0251626968"><time>2026-04-25T13:46:22Z</time></trkpt><trkpt lat="59.0734219551" lon="30.0252485275"><time>2026-04-25T13:46:24Z</time></trkpt><trkpt lat="59.0734648705" lon="30.0252914429"><time>2026-04-25T13:46:27Z</time></trkpt><trkpt lat="59.0735077858" lon="30.0254201889"><time>2026-04-25T13:46:34Z</time></trkpt><trkpt lat="59.0735292435" lon="30.0255274773"><time>2026-04-25T13:46:37Z</time></trkpt><trkpt lat="59.0735077858" lon="30.0256347656"><time>2026-04-25T13:46:39Z</time></trkpt><trkpt lat="59.0735077858" lon="30.0257635117"><time>2026-04-25T13:46:42Z</time></trkpt><trkpt lat="59.0734863281" lon="30.0258708000"><time>2026-04-25T13:46:44Z</time></trkpt><trkpt lat="59.0734863281" lon="30.0259566307"><time>2026-04-25T13:46:47Z</time></trkpt><trkpt lat="59.0735077858" lon="30.0260639191"><time>2026-04-25T13:46:49Z</time></trkpt><trkpt lat="59.0734648705" lon="30.0261497498"><time>2026-04-25T13:46:52Z</time></trkpt><trkpt lat="59.0734004974" lon="30.0262141228"><time>2026-04-25T13:46:54Z</time></trkpt><trkpt lat="59.0733575821" lon="30.0262570381"><time>2026-04-25T13:46:57Z</time></trkpt><trkpt lat="59.0733146667" lon="30.0262999535"><time>2026-04-25T13:46:59Z</time></trkpt><trkpt lat="59.0733146667" lon="30.0262999535"><time>2026-04-25T13:47:29Z</time></trkpt><trkpt lat="59.0732932091" lon="30.0262999535"><time>2026-04-25T13:47:54Z</time></trkpt><trkpt lat="59.0733146667" lon="30.0263428688"><time>2026-04-25T13:48:24Z</time></trkpt><trkpt lat="59.0732932091" lon="30.0263214111"><time>2026-04-25T13:48:54Z</time></trkpt><trkpt lat="59.0732717514" lon="30.0263428688"><time>2026-04-25T13:49:24Z</time></trkpt><trkpt lat="59.0732717514" lon="30.0263214111"><time>2026-04-25T13:49:54Z</time></trkpt><trkpt lat="59.0732502937" lon="30.0263428688"><time>2026-04-25T13:50:24Z</time></trkpt><trkpt lat="59.0732502937" lon="30.0263214111"><time>2026-04-25T13:50:39Z</time></trkpt><trkpt lat="59.0732717514" lon="30.0263643265"><time>2026-04-25T13:51:09Z</time></trkpt><trkpt lat="59.0732717514" lon="30.0263857841"><time>2026-04-25T13:51:39Z</time></trkpt><trkpt lat="59.0732717514" lon="30.0264072418"><time>2026-04-25T13:52:09Z</time></trkpt><trkpt lat="59.0732932091" lon="30.0264286995"><time>2026-04-25T13:52:39Z</time></trkpt><trkpt lat="59.0733146667" lon="30.0264501572"><time>2026-04-25T13:52:52Z</time></trkpt><trkpt lat="59.0732717514" lon="30.0264286995"><time>2026-04-25T13:52:54Z</time></trkpt><trkpt lat="59.0732717514" lon="30.0264072418"><time>2026-04-25T13:52:57Z</time></trkpt><trkpt lat="59.0732717514" lon="30.0264072418"><time>2026-04-25T13:53:27Z</time></trkpt><trkpt lat="59.0732717514" lon="30.0264072418"><time>2026-04-25T13:53:57Z</time></trkpt><trkpt lat="59.0732717514" lon="30.0263857841"><time>2026-04-25T13:54:27Z</time></trkpt><trkpt lat="59.0732932091" lon="30.0264072418"><time>2026-04-25T13:54:57Z</time></trkpt><trkpt lat="59.0732932091" lon="30.0264501572"><time>2026-04-25T13:55:27Z</time></trkpt><trkpt lat="59.0732932091" lon="30.0264501572"><time>2026-04-25T13:55:57Z</time></trkpt><trkpt lat="59.0732932091" lon="30.0264501572"><time>2026-04-25T13:56:27Z</time></trkpt><trkpt lat="59.0732932091" lon="30.0264501572"><time>2026-04-25T13:56:57Z</time></trkpt><trkpt lat="59.0732932091" lon="30.0264501572"><time>2026-04-25T13:57:27Z</time></trkpt><trkpt lat="59.0732932091" lon="30.0264501572"><time>2026-04-25T13:57:57Z</time></trkpt><trkpt lat="59.0732932091" lon="30.0264501572"><time>2026-04-25T13:58:27Z</time></trkpt><trkpt lat="59.0732932091" lon="30.0264501572"><time>2026-04-25T13:58:57Z</time></trkpt><trkpt lat="59.0732932091" lon="30.0264501572"><time>2026-04-25T13:59:27Z</time></trkpt><trkpt lat="59.0732932091" lon="30.0264501572"><time>2026-04-25T13:59:57Z</time></trkpt><trkpt lat="59.0732288361" lon="30.0264930725"><time>2026-04-25T14:00:12Z</time></trkpt><trkpt lat="59.0732073784" lon="30.0265574455"><time>2026-04-25T14:00:14Z</time></trkpt><trkpt lat="59.0731644630" lon="30.0266432762"><time>2026-04-25T14:00:22Z</time></trkpt><trkpt lat="59.0731430054" lon="30.0266647339"><time>2026-04-25T14:00:24Z</time></trkpt><trkpt lat="59.0730786324" lon="30.0267505646"><time>2026-04-25T14:00:39Z</time></trkpt><trkpt lat="59.0731000900" lon="30.0268149376"><time>2026-04-25T14:00:42Z</time></trkpt><trkpt lat="59.0731859207" lon="30.0266432762"><time>2026-04-25T14:00:47Z</time></trkpt><trkpt lat="59.0732717514" lon="30.0264930725"><time>2026-04-25T14:00:49Z</time></trkpt><trkpt lat="59.0732717514" lon="30.0264930725"><time>2026-04-25T14:01:19Z</time></trkpt><trkpt lat="59.0732717514" lon="30.0264716148"><time>2026-04-25T14:01:47Z</time></trkpt><trkpt lat="59.0732717514" lon="30.0264930725"><time>2026-04-25T14:02:17Z</time></trkpt><trkpt lat="59.0732717514" lon="30.0264072418"><time>2026-04-25T14:02:47Z</time></trkpt><trkpt lat="59.0734219551" lon="30.0265145302"><time>2026-04-25T14:03:17Z</time></trkpt><trkpt lat="59.0733790398" lon="30.0265145302"><time>2026-04-25T14:03:19Z</time></trkpt><trkpt lat="59.0733146667" lon="30.0265145302"><time>2026-04-25T14:03:22Z</time></trkpt><trkpt lat="59.0732932091" lon="30.0265145302"><time>2026-04-25T14:03:24Z</time></trkpt><trkpt lat="59.0734004974" lon="30.0264501572"><time>2026-04-25T14:03:37Z</time></trkpt><trkpt lat="59.0734863281" lon="30.0264072418"><time>2026-04-25T14:03:39Z</time></trkpt><trkpt lat="59.0735292435" lon="30.0264072418"><time>2026-04-25T14:03:42Z</time></trkpt><trkpt lat="59.0734648705" lon="30.0264501572"><time>2026-04-25T14:03:47Z</time></trkpt><trkpt lat="59.0734434128" lon="30.0264501572"><time>2026-04-25T14:03:49Z</time></trkpt><trkpt lat="59.0734004974" lon="30.0264930725"><time>2026-04-25T14:03:52Z</time></trkpt><trkpt lat="59.0732932091" lon="30.0264501572"><time>2026-04-25T14:03:54Z</time></trkpt><trkpt lat="59.0733146667" lon="30.0264501572"><time>2026-04-25T14:04:24Z</time></trkpt><trkpt lat="59.0733146667" lon="30.0264501572"><time>2026-04-25T14:04:29Z</time></trkpt><trkpt lat="59.0733146667" lon="30.0264501572"><time>2026-04-25T14:04:52Z</time></trkpt><trkpt lat="59.0733146667" lon="30.0264716148"><time>2026-04-25T14:05:22Z</time></trkpt><trkpt lat="59.0733146667" lon="30.0264716148"><time>2026-04-25T14:05:52Z</time></trkpt><trkpt lat="59.0733146667" lon="30.0264716148"><time>2026-04-25T14:06:22Z</time></trkpt><trkpt lat="59.0733146667" lon="30.0264930725"><time>2026-04-25T14:06:49Z</time></trkpt><trkpt lat="59.0733146667" lon="30.0264930725"><time>2026-04-25T14:07:19Z</time></trkpt><trkpt lat="59.0732932091" lon="30.0265359879"><time>2026-04-25T14:07:34Z</time></trkpt><trkpt lat="59.0732717514" lon="30.0266432762"><time>2026-04-25T14:07:42Z</time></trkpt><trkpt lat="59.0732717514" lon="30.0267291069"><time>2026-04-25T14:07:44Z</time></trkpt><trkpt lat="59.0732502937" lon="30.0268149376"><time>2026-04-25T14:07:47Z</time></trkpt><trkpt lat="59.0732502937" lon="30.0269007683"><time>2026-04-25T14:07:49Z</time></trkpt><trkpt lat="59.0732288361" lon="30.0270938873"><time>2026-04-25T14:07:54Z</time></trkpt><trkpt lat="59.0732502937" lon="30.0270295143"><time>2026-04-25T14:07:57Z</time></trkpt><trkpt lat="59.0732717514" lon="30.0269651413"><time>2026-04-25T14:07:59Z</time></trkpt><trkpt lat="59.0732717514" lon="30.0269007683"><time>2026-04-25T14:08:02Z</time></trkpt><trkpt lat="59.0733146667" lon="30.0269651413"><time>2026-04-25T14:08:04Z</time></trkpt><trkpt lat="59.0733146667" lon="30.0270724297"><time>2026-04-25T14:08:07Z</time></trkpt><trkpt lat="59.0732932091" lon="30.0271582603"><time>2026-04-25T14:08:09Z</time></trkpt><trkpt lat="59.0732932091" lon="30.0271153450"><time>2026-04-25T14:08:12Z</time></trkpt><trkpt lat="59.0733146667" lon="30.0270724297"><time>2026-04-25T14:08:14Z</time></trkpt><trkpt lat="59.0733361244" lon="30.0270295143"><time>2026-04-25T14:08:17Z</time></trkpt><trkpt lat="59.0733790398" lon="30.0269651413"><time>2026-04-25T14:08:19Z</time></trkpt><trkpt lat="59.0733790398" lon="30.0270080566"><time>2026-04-25T14:08:22Z</time></trkpt><trkpt lat="59.0733361244" lon="30.0270080566"><time>2026-04-25T14:08:24Z</time></trkpt><trkpt lat="59.0733146667" lon="30.0270080566"><time>2026-04-25T14:08:54Z</time></trkpt><trkpt lat="59.0733146667" lon="30.0270080566"><time>2026-04-25T14:08:57Z</time></trkpt><trkpt lat="59.0733146667" lon="30.0270295143"><time>2026-04-25T14:09:27Z</time></trkpt><trkpt lat="59.0732932091" lon="30.0270295143"><time>2026-04-25T14:09:57Z</time></trkpt><trkpt lat="59.0732932091" lon="30.0270295143"><time>2026-04-25T14:10:27Z</time></trkpt><trkpt lat="59.0732932091" lon="30.0270295143"><time>2026-04-25T14:10:57Z</time></trkpt><trkpt lat="59.0732932091" lon="30.0270295143"><time>2026-04-25T14:11:27Z</time></trkpt><trkpt lat="59.0732717514" lon="30.0270509720"><time>2026-04-25T14:11:57Z</time></trkpt><trkpt lat="59.0732932091" lon="30.0270509720"><time>2026-04-25T14:12:27Z</time></trkpt><trkpt lat="59.0732932091" lon="30.0270509720"><time>2026-04-25T14:12:57Z</time></trkpt><trkpt lat="59.0732932091" lon="30.0270724297"><time>2026-04-25T14:13:27Z</time></trkpt><trkpt lat="59.0732932091" lon="30.0270509720"><time>2026-04-25T14:13:57Z</time></trkpt><trkpt lat="59.0732932091" lon="30.0270509720"><time>2026-04-25T14:14:27Z</time></trkpt><trkpt lat="59.0732932091" lon="30.0270509720"><time>2026-04-25T14:14:57Z</time></trkpt><trkpt lat="59.0732717514" lon="30.0270509720"><time>2026-04-25T14:15:27Z</time></trkpt><trkpt lat="59.0732717514" lon="30.0270509720"><time>2026-04-25T14:15:57Z</time></trkpt><trkpt lat="59.0732502937" lon="30.0270509720"><time>2026-04-25T14:16:27Z</time></trkpt><trkpt lat="59.0732717514" lon="30.0270509720"><time>2026-04-25T14:16:57Z</time></trkpt><trkpt lat="59.0732717514" lon="30.0270509720"><time>2026-04-25T14:17:27Z</time></trkpt><trkpt lat="59.0732717514" lon="30.0270509720"><time>2026-04-25T14:17:57Z</time></trkpt><trkpt lat="59.0732717514" lon="30.0270509720"><time>2026-04-25T14:18:27Z</time></trkpt><trkpt lat="59.0732717514" lon="30.0270509720"><time>2026-04-25T14:18:57Z</time></trkpt><trkpt lat="59.0732932091" lon="30.0270724297"><time>2026-04-25T14:19:07Z</time></trkpt><trkpt lat="59.0733146667" lon="30.0270080566"><time>2026-04-25T14:19:37Z</time></trkpt><trkpt lat="59.0733146667" lon="30.0270295143"><time>2026-04-25T14:20:07Z</time></trkpt><trkpt lat="59.0733146667" lon="30.0270080566"><time>2026-04-25T14:20:37Z</time></trkpt><trkpt lat="59.0733146667" lon="30.0270295143"><time>2026-04-25T14:21:07Z</time></trkpt><trkpt lat="59.0733146667" lon="30.0270295143"><time>2026-04-25T14:21:37Z</time></trkpt><trkpt lat="59.0733146667" lon="30.0270509720"><time>2026-04-25T14:22:07Z</time></trkpt><trkpt lat="59.0733146667" lon="30.0270724297"><time>2026-04-25T14:22:09Z</time></trkpt><trkpt lat="59.0733146667" lon="30.0270295143"><time>2026-04-25T14:22:12Z</time></trkpt><trkpt lat="59.0733146667" lon="30.0270724297"><time>2026-04-25T14:22:42Z</time></trkpt><trkpt lat="59.0733146667" lon="30.0270724297"><time>2026-04-25T14:23:12Z</time></trkpt><trkpt lat="59.0733146667" lon="30.0270724297"><time>2026-04-25T14:23:42Z</time></trkpt><trkpt lat="59.0733146667" lon="30.0270724297"><time>2026-04-25T14:24:12Z</time></trkpt><trkpt lat="59.0733146667" lon="30.0270724297"><time>2026-04-25T14:24:42Z</time></trkpt><trkpt lat="59.0732932091" lon="30.0270509720"><time>2026-04-25T14:25:12Z</time></trkpt><trkpt lat="59.0732932091" lon="30.0270509720"><time>2026-04-25T14:25:42Z</time></trkpt><trkpt lat="59.0732932091" lon="30.0270509720"><time>2026-04-25T14:26:12Z</time></trkpt><trkpt lat="59.0732932091" lon="30.0270509720"><time>2026-04-25T14:26:42Z</time></trkpt><trkpt lat="59.0733146667" lon="30.0270509720"><time>2026-04-25T14:27:12Z</time></trkpt><trkpt lat="59.0733146667" lon="30.0270509720"><time>2026-04-25T14:27:42Z</time></trkpt><trkpt lat="59.0733146667" lon="30.0270509720"><time>2026-04-25T14:28:12Z</time></trkpt><trkpt lat="59.0733146667" lon="30.0270509720"><time>2026-04-25T14:28:42Z</time></trkpt><trkpt lat="59.0733146667" lon="30.0270509720"><time>2026-04-25T14:29:12Z</time></trkpt><trkpt lat="59.0733146667" lon="30.0270509720"><time>2026-04-25T14:29:42Z</time></trkpt><trkpt lat="59.0733146667" lon="30.0270509720"><time>2026-04-25T14:30:12Z</time></trkpt><trkpt lat="59.0733146667" lon="30.0270295143"><time>2026-04-25T14:30:42Z</time></trkpt><trkpt lat="59.0733146667" lon="30.0270295143"><time>2026-04-25T14:31:12Z</time></trkpt><trkpt lat="59.0733146667" lon="30.0270295143"><time>2026-04-25T14:31:42Z</time></trkpt><trkpt lat="59.0733146667" lon="30.0270724297"><time>2026-04-25T14:32:12Z</time></trkpt><trkpt lat="59.0732932091" lon="30.0271582603"><time>2026-04-25T14:32:32Z</time></trkpt><trkpt lat="59.0732502937" lon="30.0273084641"><time>2026-04-25T14:32:54Z</time></trkpt><trkpt lat="59.0731430054" lon="30.0274372101"><time>2026-04-25T14:33:19Z</time></trkpt><trkpt lat="59.0731000900" lon="30.0275230408"><time>2026-04-25T14:33:24Z</time></trkpt><trkpt lat="59.0731215477" lon="30.0276088715"><time>2026-04-25T14:33:34Z</time></trkpt><trkpt lat="59.0731000900" lon="30.0276732445"><time>2026-04-25T14:33:37Z</time></trkpt><trkpt lat="59.0731000900" lon="30.0277376175"><time>2026-04-25T14:33:39Z</time></trkpt><trkpt lat="59.0730571747" lon="30.0277161598"><time>2026-04-25T14:33:44Z</time></trkpt><trkpt lat="59.0729928017" lon="30.0277161598"><time>2026-04-25T14:33:52Z</time></trkpt><trkpt lat="59.0729498863" lon="30.0277590752"><time>2026-04-25T14:33:54Z</time></trkpt><trkpt lat="59.0728855133" lon="30.0278019905"><time>2026-04-25T14:33:57Z</time></trkpt><trkpt lat="59.0728425980" lon="30.0278449059"><time>2026-04-25T14:33:59Z</time></trkpt><trkpt lat="59.0728211403" lon="30.0278878212"><time>2026-04-25T14:34:02Z</time></trkpt><trkpt lat="59.0727567673" lon="30.0278449059"><time>2026-04-25T14:34:09Z</time></trkpt><trkpt lat="59.0726709366" lon="30.0278878212"><time>2026-04-25T14:34:12Z</time></trkpt><trkpt lat="59.0726494789" lon="30.0279092789"><time>2026-04-25T14:34:14Z</time></trkpt><trkpt lat="59.0725851059" lon="30.0279307365"><time>2026-04-25T14:34:19Z</time></trkpt><trkpt lat="59.0725421906" lon="30.0279521942"><time>2026-04-25T14:34:22Z</time></trkpt><trkpt lat="59.0723919868" lon="30.0279951096"><time>2026-04-25T14:34:29Z</time></trkpt><trkpt lat="59.0723490715" lon="30.0280594826"><time>2026-04-25T14:34:32Z</time></trkpt><trkpt lat="59.0723276138" lon="30.0280594826"><time>2026-04-25T14:34:34Z</time></trkpt><trkpt lat="59.0722846985" lon="30.0281023979"><time>2026-04-25T14:34:39Z</time></trkpt><trkpt lat="59.0722417831" lon="30.0281238556"><time>2026-04-25T14:34:47Z</time></trkpt><trkpt lat="59.0721988678" lon="30.0281453133"><time>2026-04-25T14:34:49Z</time></trkpt><trkpt lat="59.0721774101" lon="30.0281882286"><time>2026-04-25T14:34:52Z</time></trkpt><trkpt lat="59.0721344948" lon="30.0282096863"><time>2026-04-25T14:34:59Z</time></trkpt><trkpt lat="59.0720915794" lon="30.0282096863"><time>2026-04-25T14:35:02Z</time></trkpt><trkpt lat="59.0720486641" lon="30.0281667709"><time>2026-04-25T14:35:04Z</time></trkpt><trkpt lat="59.0720272064" lon="30.0281882286"><time>2026-04-25T14:35:07Z</time></trkpt><trkpt lat="59.0719842911" lon="30.0282311440"><time>2026-04-25T14:35:09Z</time></trkpt><trkpt lat="59.0719199181" lon="30.0281882286"><time>2026-04-25T14:35:12Z</time></trkpt><trkpt lat="59.0718555450" lon="30.0281882286"><time>2026-04-25T14:35:14Z</time></trkpt><trkpt lat="59.0716838837" lon="30.0282096863"><time>2026-04-25T14:35:44Z</time></trkpt><trkpt lat="59.0715980530" lon="30.0282311440"><time>2026-04-25T14:35:52Z</time></trkpt><trkpt lat="59.0715551376" lon="30.0281882286"><time>2026-04-25T14:35:54Z</time></trkpt><trkpt lat="59.0714907646" lon="30.0282311440"><time>2026-04-25T14:35:57Z</time></trkpt><trkpt lat="59.0714263916" lon="30.0282311440"><time>2026-04-25T14:35:59Z</time></trkpt><trkpt lat="59.0713834763" lon="30.0282955170"><time>2026-04-25T14:36:14Z</time></trkpt><trkpt lat="59.0713405609" lon="30.0282740593"><time>2026-04-25T14:36:17Z</time></trkpt><trkpt lat="59.0712976456" lon="30.0282740593"><time>2026-04-25T14:36:19Z</time></trkpt><trkpt lat="59.0712332726" lon="30.0283169746"><time>2026-04-25T14:36:22Z</time></trkpt><trkpt lat="59.0712118149" lon="30.0282955170"><time>2026-04-25T14:36:24Z</time></trkpt><trkpt lat="59.0711474419" lon="30.0283169746"><time>2026-04-25T14:36:27Z</time></trkpt><trkpt lat="59.0711045265" lon="30.0283384323"><time>2026-04-25T14:36:29Z</time></trkpt><trkpt lat="59.0709972382" lon="30.0283813477"><time>2026-04-25T14:36:34Z</time></trkpt><trkpt lat="59.0709543228" lon="30.0284028053"><time>2026-04-25T14:36:37Z</time></trkpt><trkpt lat="59.0708899498" lon="30.0284671783"><time>2026-04-25T14:36:44Z</time></trkpt><trkpt lat="59.0707826614" lon="30.0285100937"><time>2026-04-25T14:37:02Z</time></trkpt><trkpt lat="59.0707826614" lon="30.0285100937"><time>2026-04-25T14:37:07Z</time></trkpt><trkpt lat="59.0707612038" lon="30.0285315514"><time>2026-04-25T14:37:12Z</time></trkpt><trkpt lat="59.0707182884" lon="30.0285315514"><time>2026-04-25T14:37:14Z</time></trkpt><trkpt lat="59.0706324577" lon="30.0285530090"><time>2026-04-25T14:37:27Z</time></trkpt><trkpt lat="59.0705895424" lon="30.0285744667"><time>2026-04-25T14:37:29Z</time></trkpt><trkpt lat="59.0705037117" lon="30.0285959244"><time>2026-04-25T14:37:32Z</time></trkpt><trkpt lat="59.0702891350" lon="30.0286388397"><time>2026-04-25T14:37:49Z</time></trkpt><trkpt lat="59.0702247620" lon="30.0286817551"><time>2026-04-25T14:37:52Z</time></trkpt><trkpt lat="59.0701603889" lon="30.0287461281"><time>2026-04-25T14:37:57Z</time></trkpt><trkpt lat="59.0700531006" lon="30.0287032127"><time>2026-04-25T14:38:07Z</time></trkpt><trkpt lat="59.0699887276" lon="30.0287461281"><time>2026-04-25T14:38:09Z</time></trkpt><trkpt lat="59.0699458122" lon="30.0287461281"><time>2026-04-25T14:38:14Z</time></trkpt><trkpt lat="59.0698385239" lon="30.0287890434"><time>2026-04-25T14:38:24Z</time></trkpt><trkpt lat="59.0697956085" lon="30.0287461281"><time>2026-04-25T14:38:27Z</time></trkpt><trkpt lat="59.0697526932" lon="30.0288105011"><time>2026-04-25T14:38:32Z</time></trkpt><trkpt lat="59.0696883202" lon="30.0288748741"><time>2026-04-25T14:38:39Z</time></trkpt><trkpt lat="59.0696024895" lon="30.0288748741"><time>2026-04-25T14:38:42Z</time></trkpt><trkpt lat="59.0695595741" lon="30.0288748741"><time>2026-04-25T14:38:44Z</time></trkpt><trkpt lat="59.0694952011" lon="30.0288534164"><time>2026-04-25T14:38:49Z</time></trkpt><trkpt lat="59.0693020821" lon="30.0289392471"><time>2026-04-25T14:39:07Z</time></trkpt><trkpt lat="59.0692162514" lon="30.0289607048"><time>2026-04-25T14:39:19Z</time></trkpt><trkpt lat="59.0691518784" lon="30.0289821625"><time>2026-04-25T14:39:22Z</time></trkpt><trkpt lat="59.0691089630" lon="30.0290250778"><time>2026-04-25T14:39:24Z</time></trkpt><trkpt lat="59.0690660477" lon="30.0290036201"><time>2026-04-25T14:39:27Z</time></trkpt><trkpt lat="59.0690016747" lon="30.0290679932"><time>2026-04-25T14:39:37Z</time></trkpt><trkpt lat="59.0689158440" lon="30.0291109085"><time>2026-04-25T14:39:52Z</time></trkpt><trkpt lat="59.0688514709" lon="30.0291538239"><time>2026-04-25T14:39:54Z</time></trkpt><trkpt lat="59.0688300133" lon="30.0291538239"><time>2026-04-25T14:39:57Z</time></trkpt><trkpt lat="59.0687870979" lon="30.0291752815"><time>2026-04-25T14:39:59Z</time></trkpt><trkpt lat="59.0687227249" lon="30.0292181969"><time>2026-04-25T14:40:02Z</time></trkpt><trkpt lat="59.0686368942" lon="30.0292181969"><time>2026-04-25T14:40:04Z</time></trkpt><trkpt lat="59.0685939789" lon="30.0292396545"><time>2026-04-25T14:40:07Z</time></trkpt><trkpt lat="59.0685510635" lon="30.0292825699"><time>2026-04-25T14:40:09Z</time></trkpt><trkpt lat="59.0684866905" lon="30.0292825699"><time>2026-04-25T14:40:12Z</time></trkpt><trkpt lat="59.0684437752" lon="30.0292825699"><time>2026-04-25T14:40:14Z</time></trkpt><trkpt lat="59.0684008598" lon="30.0292825699"><time>2026-04-25T14:40:17Z</time></trkpt><trkpt lat="59.0684008598" lon="30.0293040276"><time>2026-04-25T14:40:19Z</time></trkpt><trkpt lat="59.0682935715" lon="30.0293254852"><time>2026-04-25T14:40:22Z</time></trkpt><trkpt lat="59.0681433678" lon="30.0293898582"><time>2026-04-25T14:40:24Z</time></trkpt><trkpt lat="59.0679073334" lon="30.0294542313"><time>2026-04-25T14:40:29Z</time></trkpt><trkpt lat="59.0679717064" lon="30.0294327736"><time>2026-04-25T14:40:34Z</time></trkpt><trkpt lat="59.0680146217" lon="30.0293469429"><time>2026-04-25T14:40:42Z</time></trkpt><trkpt lat="59.0680360794" lon="30.0293684006"><time>2026-04-25T14:40:57Z</time></trkpt><trkpt lat="59.0680146217" lon="30.0293684006"><time>2026-04-25T14:40:59Z</time></trkpt><trkpt lat="59.0679931641" lon="30.0293684006"><time>2026-04-25T14:41:02Z</time></trkpt><trkpt lat="59.0679073334" lon="30.0294113159"><time>2026-04-25T14:41:12Z</time></trkpt><trkpt lat="59.0678644180" lon="30.0294327736"><time>2026-04-25T14:41:17Z</time></trkpt><trkpt lat="59.0678000450" lon="30.0294756889"><time>2026-04-25T14:41:22Z</time></trkpt><trkpt lat="59.0677571297" lon="30.0294756889"><time>2026-04-25T14:41:37Z</time></trkpt><trkpt lat="59.0677142143" lon="30.0294756889"><time>2026-04-25T14:41:39Z</time></trkpt><trkpt lat="59.0674567223" lon="30.0295829773"><time>2026-04-25T14:41:57Z</time></trkpt><trkpt lat="59.0674138069" lon="30.0296258926"><time>2026-04-25T14:41:59Z</time></trkpt><trkpt lat="59.0673923492" lon="30.0296044350"><time>2026-04-25T14:42:02Z</time></trkpt><trkpt lat="59.0672636032" lon="30.0296258926"><time>2026-04-25T14:42:19Z</time></trkpt><trkpt lat="59.0672206879" lon="30.0296258926"><time>2026-04-25T14:42:22Z</time></trkpt><trkpt lat="59.0671777725" lon="30.0297760963"><time>2026-04-25T14:42:37Z</time></trkpt><trkpt lat="59.0671133995" lon="30.0297546387"><time>2026-04-25T14:42:39Z</time></trkpt><trkpt lat="59.0670275688" lon="30.0297760963"><time>2026-04-25T14:42:42Z</time></trkpt><trkpt lat="59.0669846535" lon="30.0297760963"><time>2026-04-25T14:42:44Z</time></trkpt><trkpt lat="59.0669202805" lon="30.0297760963"><time>2026-04-25T14:42:49Z</time></trkpt><trkpt lat="59.0668773651" lon="30.0297760963"><time>2026-04-25T14:42:52Z</time></trkpt><trkpt lat="59.0668344498" lon="30.0298190117"><time>2026-04-25T14:42:54Z</time></trkpt><trkpt lat="59.0668344498" lon="30.0298404694"><time>2026-04-25T14:42:57Z</time></trkpt><trkpt lat="59.0667915344" lon="30.0298833847"><time>2026-04-25T14:43:04Z</time></trkpt><trkpt lat="59.0667057037" lon="30.0298833847"><time>2026-04-25T14:43:07Z</time></trkpt><trkpt lat="59.0666627884" lon="30.0298619270"><time>2026-04-25T14:43:12Z</time></trkpt><trkpt lat="59.0665125847" lon="30.0298833847"><time>2026-04-25T14:43:22Z</time></trkpt><trkpt lat="59.0664267540" lon="30.0299263000"><time>2026-04-25T14:43:24Z</time></trkpt><trkpt lat="59.0663838387" lon="30.0298833847"><time>2026-04-25T14:43:27Z</time></trkpt><trkpt lat="59.0663194656" lon="30.0297975540"><time>2026-04-25T14:43:29Z</time></trkpt><trkpt lat="59.0662765503" lon="30.0298619270"><time>2026-04-25T14:43:34Z</time></trkpt><trkpt lat="59.0662121773" lon="30.0299263000"><time>2026-04-25T14:43:37Z</time></trkpt><trkpt lat="59.0661692619" lon="30.0299477577"><time>2026-04-25T14:43:39Z</time></trkpt><trkpt lat="59.0661907196" lon="30.0300121307"><time>2026-04-25T14:43:42Z</time></trkpt><trkpt lat="59.0661263466" lon="30.0300335884"><time>2026-04-25T14:43:47Z</time></trkpt><trkpt lat="59.0660619736" lon="30.0300121307"><time>2026-04-25T14:43:49Z</time></trkpt><trkpt lat="59.0660190582" lon="30.0299477577"><time>2026-04-25T14:43:52Z</time></trkpt><trkpt lat="59.0659761429" lon="30.0300335884"><time>2026-04-25T14:43:54Z</time></trkpt><trkpt lat="59.0659761429" lon="30.0300335884"><time>2026-04-25T14:44:24Z</time></trkpt><trkpt lat="59.0659761429" lon="30.0300979614"><time>2026-04-25T14:44:29Z</time></trkpt><trkpt lat="59.0659332275" lon="30.0301194191"><time>2026-04-25T14:44:32Z</time></trkpt><trkpt lat="59.0659117699" lon="30.0300765038"><time>2026-04-25T14:44:34Z</time></trkpt><trkpt lat="59.0658688545" lon="30.0300979614"><time>2026-04-25T14:44:37Z</time></trkpt><trkpt lat="59.0658473969" lon="30.0301408768"><time>2026-04-25T14:44:47Z</time></trkpt><trkpt lat="59.0658259392" lon="30.0302052498"><time>2026-04-25T14:44:49Z</time></trkpt><trkpt lat="59.0657830238" lon="30.0302267075"><time>2026-04-25T14:44:52Z</time></trkpt><trkpt lat="59.0657401085" lon="30.0302910805"><time>2026-04-25T14:44:54Z</time></trkpt><trkpt lat="59.0656757355" lon="30.0302910805"><time>2026-04-25T14:44:57Z</time></trkpt><trkpt lat="59.0656328201" lon="30.0302696228"><time>2026-04-25T14:44:59Z</time></trkpt><trkpt lat="59.0655469894" lon="30.0302696228"><time>2026-04-25T14:45:07Z</time></trkpt><trkpt lat="59.0655040741" lon="30.0302910805"><time>2026-04-25T14:45:09Z</time></trkpt><trkpt lat="59.0654826164" lon="30.0302910805"><time>2026-04-25T14:45:12Z</time></trkpt><trkpt lat="59.0654397011" lon="30.0303339958"><time>2026-04-25T14:45:17Z</time></trkpt><trkpt lat="59.0654182434" lon="30.0303125381"><time>2026-04-25T14:45:19Z</time></trkpt><trkpt lat="59.0653753281" lon="30.0303125381"><time>2026-04-25T14:45:22Z</time></trkpt><trkpt lat="59.0653753281" lon="30.0302910805"><time>2026-04-25T14:45:24Z</time></trkpt><trkpt lat="59.0654182434" lon="30.0302910805"><time>2026-04-25T14:45:27Z</time></trkpt><trkpt lat="59.0653753281" lon="30.0302910805"><time>2026-04-25T14:45:44Z</time></trkpt><trkpt lat="59.0652680397" lon="30.0303339958"><time>2026-04-25T14:45:49Z</time></trkpt><trkpt lat="59.0652251244" lon="30.0303554535"><time>2026-04-25T14:45:52Z</time></trkpt><trkpt lat="59.0650105476" lon="30.0304627419"><time>2026-04-25T14:46:04Z</time></trkpt><trkpt lat="59.0647959709" lon="30.0304841995"><time>2026-04-25T14:46:19Z</time></trkpt><trkpt lat="59.0645813942" lon="30.0305700302"><time>2026-04-25T14:46:34Z</time></trkpt><trkpt lat="59.0645170212" lon="30.0305485725"><time>2026-04-25T14:46:42Z</time></trkpt><trkpt lat="59.0644741058" lon="30.0305700302"><time>2026-04-25T14:46:44Z</time></trkpt><trkpt lat="59.0643882751" lon="30.0305914879"><time>2026-04-25T14:46:49Z</time></trkpt><trkpt lat="59.0643453598" lon="30.0306558609"><time>2026-04-25T14:46:57Z</time></trkpt><trkpt lat="59.0643239021" lon="30.0306344032"><time>2026-04-25T14:46:59Z</time></trkpt><trkpt lat="59.0642809868" lon="30.0306344032"><time>2026-04-25T14:47:02Z</time></trkpt><trkpt lat="59.0642380714" lon="30.0306558609"><time>2026-04-25T14:47:04Z</time></trkpt><trkpt lat="59.0642166138" lon="30.0307202339"><time>2026-04-25T14:47:07Z</time></trkpt><trkpt lat="59.0641736984" lon="30.0307416916"><time>2026-04-25T14:47:09Z</time></trkpt><trkpt lat="59.0641093254" lon="30.0307202339"><time>2026-04-25T14:47:17Z</time></trkpt><trkpt lat="59.0640449524" lon="30.0307416916"><time>2026-04-25T14:47:22Z</time></trkpt><trkpt lat="59.0638732910" lon="30.0306773186"><time>2026-04-25T14:47:52Z</time></trkpt><trkpt lat="59.0638518333" lon="30.0306344032"><time>2026-04-25T14:48:22Z</time></trkpt><trkpt lat="59.0638303757" lon="30.0306344032"><time>2026-04-25T14:48:29Z</time></trkpt><trkpt lat="59.0637230873" lon="30.0306558609"><time>2026-04-25T14:48:49Z</time></trkpt><trkpt lat="59.0635299683" lon="30.0308275223"><time>2026-04-25T14:49:12Z</time></trkpt><trkpt lat="59.0634441376" lon="30.0308918953"><time>2026-04-25T14:49:17Z</time></trkpt><trkpt lat="59.0634012222" lon="30.0309348106"><time>2026-04-25T14:49:19Z</time></trkpt><trkpt lat="59.0633797646" lon="30.0309562683"><time>2026-04-25T14:49:22Z</time></trkpt><trkpt lat="59.0633368492" lon="30.0309348106"><time>2026-04-25T14:49:24Z</time></trkpt><trkpt lat="59.0633368492" lon="30.0309562683"><time>2026-04-25T14:49:54Z</time></trkpt><trkpt lat="59.0633368492" lon="30.0309348106"><time>2026-04-25T14:50:17Z</time></trkpt></trkseg></trk></gpx>